[[{"header":{"parameterUnit":"m.s-1","parameterCategory":1,"la1":30.6,"la2":29.2853,"lo1":-89.7004,"lo2":-87.6739,"dy":0.0162,"dx":0.0183,"nx":112,"ny":82,"refTime":"2023-06-20T06:00:00:Z","depth":0,"parameterNumber":2,"parameterNumberName":"U-component_of_WINDS"},"data":[0.0,0.0,0.0,0.0,0.0,0.0,0.0,0.0,0.0,0.0,0.0,0.0,0.0,0.0,0.0,0.0,0.0,0.0,0.0,0.0,0.0,0.0,0.0,0.0,0.0,0.0,0.0,0.0,0.0,0.0,0.0,0.0,0.0,0.0,0.0,0.0,0.0,0.0,0.0,0.0,0.0,0.0,0.0,0.0,0.0,0.0,0.0,0.0,0.0,0.0,0.0,0.0,0.0,0.0,0.0,0.0,0.0,0.0,0.0,0.0,0.0,0.0,0.0,0.0,0.0,0.0,0.0,0.0,0.0,0.0,0.0,0.0,0.0,0.0,0.0,0.0,0.0,0.0,0.0,0.0,0.0,0.0,0.0,0.0,0.0,0.0,0.0,0.0,0.0,0.0,-3.5622,-3.5622,-3.5622,-3.5739,-3.6174,-3.5827,-3.5622,-3.5622,0.0,0.0,0.0,0.0,0.0,0.0,0.0,0.0,0.0,0.0,0.0,0.0,0.0,0.0,0.0,0.0,0.0,0.0,0.0,0.0,0.0,0.0,0.0,0.0,0.0,0.0,0.0,0.0,0.0,0.0,0.0,0.0,0.0,0.0,0.0,0.0,0.0,0.0,0.0,0.0,0.0,0.0,0.0,0.0,0.0,0.0,0.0,0.0,0.0,0.0,0.0,0.0,0.0,0.0,0.0,0.0,0.0,0.0,0.0,0.0,0.0,0.0,0.0,0.0,0.0,0.0,0.0,0.0,0.0,0.0,0.0,0.0,0.0,0.0,0.0,0.0,0.0,0.0,0.0,0.0,0.0,0.0,0.0,0.0,0.0,0.0,0.0,0.0,0.0,0.0,0.0,0.0,0.0,0.0,0.0,0.0,0.0,0.0,0.0,0.0,0.0,0.0,0.0,0.0,-3.5622,-3.5622,-3.5622,-3.5622,-3.5694,-3.5667,-3.5622,-3.5622,0.0,0.0,0.0,0.0,0.0,0.0,0.0,0.0,0.0,0.0,0.0,0.0,0.0,0.0,0.0,0.0,0.0,0.0,0.0,0.0,0.0,0.0,0.0,0.0,0.0,0.0,0.0,0.0,0.0,0.0,0.0,0.0,0.0,0.0,0.0,0.0,0.0,0.0,0.0,0.0,0.0,0.0,0.0,0.0,0.0,0.0,0.0,0.0,0.0,0.0,0.0,0.0,0.0,0.0,0.0,0.0,0.0,0.0,0.0,0.0,0.0,0.0,0.0,0.0,0.0,0.0,0.0,0.0,0.0,0.0,0.0,0.0,0.0,0.0,0.0,0.0,0.0,0.0,0.0,0.0,0.0,0.0,0.0,0.0,0.0,0.0,0.0,0.0,0.0,0.0,0.0,0.0,0.0,0.0,0.0,0.0,0.0,0.0,0.0,0.0,0.0,0.0,0.0,-3.5622,-3.5622,-3.5622,-3.5622,-3.5622,-3.5622,-3.5622,-3.5622,-3.5622,-3.4816,0.0,0.0,0.0,0.0,0.0,0.0,0.0,0.0,0.0,0.0,0.0,0.0,0.0,0.0,0.0,0.0,0.0,0.0,0.0,0.0,0.0,0.0,0.0,0.0,0.0,0.0,0.0,0.0,0.0,0.0,0.0,0.0,0.0,0.0,0.0,0.0,0.0,0.0,0.0,0.0,0.0,0.0,0.0,0.0,0.0,0.0,0.0,0.0,0.0,0.0,0.0,0.0,0.0,0.0,0.0,0.0,0.0,0.0,0.0,0.0,0.0,0.0,0.0,0.0,0.0,0.0,0.0,0.0,0.0,0.0,0.0,0.0,0.0,0.0,0.0,0.0,0.0,0.0,0.0,0.0,0.0,0.0,0.0,0.0,0.0,0.0,0.0,0.0,0.0,0.0,0.0,0.0,0.0,0.0,0.0,0.0,0.0,0.0,0.0,0.0,0.0,0.0,-3.5622,-3.5622,-3.5622,-3.5622,-3.5622,-3.5622,-3.5622,-3.5577,-3.5424,-3.4529,0.0,0.0,0.0,0.0,0.0,0.0,0.0,0.0,0.0,0.0,0.0,0.0,0.0,0.0,0.0,0.0,0.0,0.0,0.0,0.0,0.0,0.0,0.0,0.0,0.0,0.0,0.0,0.0,0.0,0.0,0.0,0.0,0.0,0.0,0.0,0.0,0.0,0.0,0.0,0.0,0.0,0.0,0.0,0.0,0.0,0.0,0.0,0.0,0.0,0.0,0.0,0.0,0.0,0.0,0.0,0.0,0.0,0.0,0.0,0.0,0.0,0.0,0.0,0.0,0.0,0.0,0.0,0.0,0.0,0.0,0.0,0.0,0.0,0.0,0.0,0.0,0.0,0.0,0.0,0.0,0.0,0.0,0.0,0.0,0.0,0.0,0.0,0.0,0.0,0.0,0.0,0.0,0.0,0.0,0.0,0.0,0.0,0.0,0.0,0.0,0.0,0.0,-3.5622,-3.5622,-3.5622,-3.5622,-3.5622,-3.5622,-3.5622,-3.5379,-3.488,-3.4333,0.0,0.0,0.0,0.0,0.0,0.0,0.0,0.0,0.0,0.0,0.0,0.0,0.0,0.0,0.0,0.0,0.0,0.0,0.0,0.0,0.0,0.0,0.0,0.0,0.0,0.0,0.0,0.0,0.0,0.0,0.0,0.0,0.0,0.0,0.0,0.0,0.0,0.0,0.0,0.0,0.0,0.0,0.0,0.0,0.0,0.0,0.0,0.0,0.0,0.0,0.0,0.0,0.0,0.0,0.0,0.0,0.0,0.0,0.0,0.0,0.0,0.0,0.0,0.0,0.0,0.0,0.0,0.0,0.0,0.0,0.0,0.0,0.0,0.0,0.0,0.0,0.0,0.0,0.0,0.0,0.0,0.0,0.0,0.0,0.0,0.0,0.0,0.0,0.0,0.0,0.0,0.0,0.0,0.0,0.0,0.0,0.0,0.0,0.0,0.0,0.0,0.0,-3.5622,-3.5622,-3.5622,-3.5622,-3.5622,-3.5622,-3.5622,-3.5379,-3.4816,0.0,0.0,0.0,0.0,0.0,0.0,0.0,0.0,0.0,0.0,0.0,0.0,0.0,0.0,0.0,0.0,0.0,0.0,0.0,0.0,0.0,0.0,0.0,0.0,0.0,0.0,0.0,0.0,0.0,0.0,0.0,0.0,0.0,0.0,0.0,0.0,0.0,0.0,0.0,0.0,0.0,0.0,0.0,0.0,0.0,0.0,0.0,0.0,0.0,0.0,0.0,0.0,0.0,0.0,0.0,0.0,0.0,0.0,0.0,0.0,0.0,0.0,0.0,0.0,0.0,0.0,0.0,0.0,0.0,0.0,0.0,0.0,0.0,0.0,0.0,0.0,0.0,0.0,0.0,0.0,0.0,0.0,0.0,0.0,0.0,0.0,0.0,0.0,0.0,0.0,0.0,0.0,0.0,0.0,0.0,0.0,0.0,0.0,0.0,0.0,0.0,0.0,-3.5622,-3.5622,-3.5622,-3.5622,-3.5622,-3.5622,-3.5622,-3.5622,-3.5316,-3.4577,0.0,0.0,0.0,0.0,0.0,0.0,0.0,0.0,0.0,0.0,0.0,0.0,0.0,0.0,0.0,0.0,0.0,0.0,0.0,0.0,0.0,0.0,0.0,0.0,0.0,0.0,0.0,0.0,0.0,0.0,0.0,0.0,0.0,0.0,0.0,0.0,0.0,0.0,0.0,0.0,0.0,0.0,0.0,0.0,0.0,0.0,0.0,0.0,0.0,0.0,0.0,0.0,0.0,0.0,0.0,0.0,0.0,0.0,0.0,0.0,0.0,0.0,0.0,0.0,0.0,0.0,0.0,0.0,0.0,0.0,0.0,0.0,0.0,0.0,0.0,0.0,0.0,0.0,0.0,0.0,0.0,0.0,0.0,0.0,0.0,0.0,0.0,0.0,0.0,0.0,0.0,0.0,0.0,0.0,0.0,0.0,0.0,0.0,0.0,0.0,0.0,0.0,-3.5622,-3.5622,-3.5622,-3.5622,-3.5622,-3.5622,-3.5622,-3.5577,-3.5131,0.0,0.0,0.0,0.0,0.0,0.0,0.0,0.0,0.0,0.0,0.0,0.0,0.0,0.0,0.0,0.0,0.0,0.0,0.0,0.0,0.0,0.0,0.0,0.0,0.0,0.0,0.0,0.0,0.0,0.0,0.0,0.0,0.0,0.0,0.0,0.0,0.0,0.0,0.0,0.0,0.0,0.0,0.0,0.0,0.0,0.0,0.0,0.0,0.0,0.0,0.0,0.0,0.0,0.0,0.0,0.0,0.0,0.0,0.0,0.0,0.0,0.0,0.0,0.0,0.0,0.0,0.0,0.0,0.0,0.0,0.0,0.0,0.0,0.0,0.0,0.0,0.0,0.0,0.0,0.0,0.0,0.0,0.0,0.0,0.0,0.0,0.0,0.0,0.0,0.0,0.0,0.0,0.0,0.0,0.0,0.0,0.0,0.0,0.0,0.0,0.0,0.0,0.0,-3.5622,-3.5622,-3.5622,-3.5622,-3.5622,-3.5622,-3.5622,-3.527,-3.4721,-3.3903,0.0,0.0,0.0,0.0,0.0,0.0,0.0,0.0,0.0,0.0,0.0,0.0,0.0,0.0,0.0,0.0,0.0,0.0,0.0,0.0,0.0,0.0,0.0,0.0,0.0,0.0,0.0,0.0,0.0,0.0,0.0,0.0,0.0,0.0,0.0,0.0,0.0,0.0,0.0,0.0,0.0,0.0,0.0,0.0,0.0,0.0,0.0,0.0,0.0,0.0,0.0,0.0,0.0,0.0,0.0,0.0,0.0,0.0,0.0,0.0,0.0,0.0,0.0,0.0,0.0,0.0,0.0,0.0,0.0,0.0,0.0,0.0,0.0,0.0,0.0,0.0,0.0,0.0,0.0,0.0,0.0,0.0,0.0,0.0,0.0,0.0,0.0,0.0,0.0,0.0,0.0,0.0,0.0,0.0,0.0,0.0,0.0,0.0,0.0,0.0,0.0,0.0,-3.5577,-3.5622,-3.5622,-3.5622,-3.5622,-3.5577,-3.5549,-3.5021,-3.4447,-3.3735,0.0,0.0,0.0,0.0,0.0,0.0,0.0,0.0,0.0,0.0,0.0,0.0,0.0,0.0,0.0,0.0,0.0,0.0,0.0,0.0,0.0,0.0,0.0,0.0,0.0,0.0,0.0,0.0,0.0,0.0,0.0,0.0,0.0,0.0,0.0,0.0,0.0,0.0,0.0,0.0,0.0,0.0,0.0,0.0,0.0,0.0,0.0,0.0,0.0,0.0,0.0,0.0,0.0,0.0,0.0,0.0,0.0,0.0,0.0,0.0,0.0,0.0,0.0,0.0,0.0,0.0,0.0,0.0,0.0,0.0,0.0,0.0,0.0,0.0,0.0,0.0,0.0,0.0,0.0,0.0,0.0,0.0,0.0,0.0,0.0,0.0,0.0,0.0,0.0,0.0,0.0,0.0,0.0,0.0,0.0,0.0,0.0,0.0,0.0,0.0,0.0,0.0,-3.547,-3.5577,-3.5577,-3.5577,-3.5577,-3.5532,-3.5383,-3.4864,-3.4235,-3.3547,0.0,0.0,0.0,0.0,0.0,0.0,0.0,0.0,0.0,0.0,0.0,0.0,0.0,0.0,0.0,0.0,0.0,0.0,0.0,0.0,0.0,0.0,0.0,0.0,0.0,0.0,0.0,0.0,0.0,0.0,0.0,0.0,0.0,0.0,0.0,0.0,0.0,0.0,0.0,0.0,0.0,0.0,0.0,0.0,0.0,0.0,0.0,0.0,0.0,0.0,0.0,0.0,0.0,0.0,0.0,0.0,0.0,0.0,0.0,0.0,-3.6233,-3.6208,0.0,0.0,0.0,0.0,0.0,0.0,0.0,0.0,0.0,0.0,0.0,0.0,0.0,0.0,0.0,0.0,0.0,0.0,0.0,0.0,0.0,0.0,0.0,0.0,0.0,0.0,0.0,0.0,0.0,0.0,0.0,0.0,0.0,0.0,0.0,0.0,0.0,0.0,0.0,0.0,-3.5021,-3.5304,-3.5537,-3.5537,-3.5429,-3.5182,-3.469,-3.4103,-3.3547,-3.2841,-3.2302,0.0,0.0,0.0,0.0,0.0,0.0,0.0,0.0,0.0,0.0,0.0,0.0,0.0,0.0,0.0,0.0,0.0,0.0,0.0,0.0,0.0,0.0,0.0,0.0,0.0,0.0,0.0,0.0,0.0,0.0,0.0,0.0,0.0,0.0,0.0,0.0,0.0,0.0,0.0,0.0,0.0,0.0,0.0,0.0,0.0,0.0,0.0,0.0,0.0,0.0,0.0,0.0,0.0,0.0,0.0,0.0,0.0,0.0,0.0,-3.6276,-3.6191,0.0,0.0,0.0,0.0,0.0,0.0,0.0,0.0,0.0,0.0,0.0,0.0,0.0,0.0,0.0,0.0,0.0,0.0,0.0,0.0,0.0,0.0,0.0,0.0,0.0,0.0,0.0,0.0,0.0,0.0,0.0,0.0,0.0,0.0,0.0,0.0,0.0,0.0,0.0,0.0,-3.4754,-3.5182,-3.5337,-3.5008,-3.4944,-3.4673,-3.3969,-3.3443,-3.2933,-3.2547,-3.1981,0.0,0.0,0.0,0.0,0.0,0.0,0.0,0.0,0.0,0.0,0.0,0.0,0.0,0.0,0.0,0.0,0.0,0.0,0.0,0.0,0.0,0.0,0.0,0.0,0.0,0.0,0.0,0.0,0.0,0.0,0.0,0.0,0.0,0.0,0.0,0.0,0.0,0.0,0.0,0.0,0.0,0.0,0.0,0.0,0.0,0.0,0.0,0.0,0.0,0.0,0.0,0.0,0.0,-3.6678,-3.6451,-3.6301,-3.6301,-3.6301,-3.6301,-3.6301,-3.6174,-3.6019,-3.6019,0.0,0.0,0.0,0.0,0.0,0.0,0.0,0.0,0.0,0.0,0.0,0.0,0.0,0.0,0.0,0.0,0.0,0.0,0.0,0.0,0.0,0.0,-3.2949,-3.2492,-3.2788,-3.3182,-3.3182,0.0,0.0,0.0,0.0,0.0,0.0,0.0,0.0,0.0,0.0,0.0,-3.448,-3.4977,-3.5008,-3.4317,-3.4301,-3.4037,-3.3287,-3.2841,-3.2492,-3.2231,-3.1811,-3.1482,0.0,0.0,0.0,0.0,0.0,0.0,0.0,0.0,0.0,0.0,0.0,0.0,0.0,0.0,0.0,0.0,0.0,0.0,0.0,0.0,0.0,0.0,0.0,0.0,0.0,0.0,0.0,0.0,0.0,0.0,0.0,0.0,-3.9731,-3.9754,0.0,0.0,0.0,0.0,0.0,0.0,0.0,0.0,0.0,0.0,0.0,0.0,0.0,-3.867,-3.8627,-3.8515,-3.8101,-3.7432,-3.7358,-3.6978,-3.6301,-3.6301,-3.6301,-3.6301,-3.6301,0.0,-3.6165,-3.6165,0.0,0.0,0.0,0.0,0.0,0.0,0.0,0.0,0.0,0.0,0.0,0.0,0.0,0.0,0.0,0.0,0.0,0.0,0.0,0.0,0.0,0.0,-3.2492,-3.2453,-3.2788,-3.3182,-3.3182,-3.2895,-3.2749,-3.3145,-3.3251,-3.3287,0.0,0.0,0.0,0.0,0.0,0.0,-3.3969,-3.4169,-3.4185,-3.3598,-3.3443,-3.3145,-3.2602,-3.2437,-3.2176,-3.164,-3.1524,-3.1482,-3.1482,-3.1482,0.0,0.0,0.0,0.0,0.0,0.0,0.0,0.0,0.0,0.0,0.0,0.0,0.0,0.0,0.0,0.0,0.0,0.0,0.0,0.0,0.0,0.0,0.0,0.0,0.0,0.0,0.0,0.0,0.0,-3.988,-4.0003,-4.0003,-3.9941,-3.9878,0.0,0.0,0.0,0.0,0.0,0.0,0.0,0.0,0.0,-3.8822,-3.8792,-3.878,-3.8707,-3.8483,-3.8068,-3.7505,-3.7283,-3.686,-3.6301,-3.6301,-3.6301,-3.6301,-3.6301,-3.6259,-3.6233,-3.6105,-3.58,-3.527,0.0,0.0,0.0,0.0,-3.2398,-3.2398,-3.2398,-3.2398,-3.2398,-3.2398,0.0,0.0,0.0,0.0,0.0,0.0,0.0,-3.2398,-3.2398,-3.2398,-3.2398,-3.2398,-3.2602,-3.2734,-3.2734,-3.2547,-3.2547,-3.3093,-3.3182,-3.3093,-3.2788,-3.2964,0.0,0.0,0.0,-3.3527,-3.3287,-3.3547,-3.3511,-3.2895,-3.2841,-3.2586,-3.1966,-3.191,-3.1796,-3.1539,-3.1482,-3.1482,-3.1482,-3.1482,-3.1482,0.0,0.0,0.0,0.0,0.0,0.0,0.0,0.0,0.0,0.0,0.0,0.0,0.0,0.0,0.0,0.0,0.0,0.0,0.0,0.0,0.0,0.0,0.0,0.0,0.0,0.0,0.0,0.0,-4.012,-4.0286,-4.0286,-4.0233,-4.0196,0.0,0.0,0.0,0.0,0.0,0.0,-3.9036,-3.8979,-3.8921,-3.8822,-3.8822,-3.881,-3.8707,-3.8285,-3.7913,-3.7505,-3.7306,-3.6992,-3.6611,-3.6801,-3.6887,-3.6887,-3.6887,-3.6784,-3.6594,-3.6191,-3.565,-3.4958,-3.4317,-3.37,-3.3145,-3.2586,-3.2398,-3.2398,-3.2398,-3.2398,-3.2398,-3.2398,-3.2398,-3.2398,-3.2398,0.0,0.0,0.0,0.0,-3.2398,-3.2398,-3.2398,-3.2398,-3.2398,-3.2398,-3.2398,-3.2398,-3.2398,-3.2547,-3.2949,-3.3093,-3.3039,-3.2492,-3.2492,0.0,-3.2547,-3.2695,-3.2788,-3.2734,-3.2986,-3.2879,-3.2231,-3.2272,-3.212,-3.1539,-3.1482,-3.1482,-3.1482,-3.1482,-3.1482,-3.1482,-3.1482,-3.1482,-3.1482,0.0,0.0,0.0,0.0,0.0,0.0,0.0,0.0,0.0,0.0,0.0,0.0,0.0,0.0,0.0,0.0,0.0,0.0,0.0,0.0,0.0,0.0,0.0,0.0,0.0,0.0,0.0,0.0,0.0,-4.0489,-4.0321,0.0,0.0,0.0,0.0,-3.9526,-3.9502,-3.9376,-3.9101,-3.9101,-3.9017,-3.891,-3.8892,-3.8822,-3.8707,-3.8285,-3.7913,-3.7505,-3.787,-3.7812,-3.7439,-3.8146,-3.8474,-3.8474,-3.8474,-3.8077,-3.737,-3.6517,-3.5766,-3.5128,-3.4431,-3.3786,-3.3145,-3.2586,-3.2398,-3.2398,-3.2398,-3.2398,-3.2398,-3.2398,-3.2398,-3.2398,-3.2398,-3.2398,0.0,0.0,-3.2398,-3.2398,-3.2398,-3.2398,-3.2398,-3.2398,-3.2398,-3.2398,-3.2398,-3.2398,-3.2398,-3.2437,-3.2841,-3.3039,-3.2492,0.0,-3.3093,-3.2986,-3.2895,-3.2734,-3.2641,-3.2492,-3.2231,-3.1582,-3.1524,-3.1539,-3.1482,-3.1482,-3.1482,-3.1482,-3.1482,-3.1482,-3.1482,-3.1482,-3.1482,-3.1482,-3.1467,0.0,0.0,0.0,0.0,0.0,0.0,0.0,0.0,0.0,0.0,0.0,0.0,0.0,0.0,0.0,0.0,0.0,0.0,0.0,0.0,0.0,0.0,0.0,0.0,0.0,0.0,0.0,0.0,-4.0489,-4.0441,0.0,-4.0389,-4.0195,-3.9962,-3.9705,-3.9561,-3.9401,-3.9129,-3.9101,-3.9045,-3.8892,-3.891,-3.884,-3.8707,-3.8285,-3.8131,-3.82,-3.8135,-3.8126,-3.8215,-3.8474,-3.8594,-3.8594,-3.8594,-3.8439,-3.8084,-3.6786,-3.584,-3.5081,-3.3987,-3.3391,-3.3145,-3.2586,-3.2398,-3.2398,-3.2398,-3.2398,-3.2398,-3.2398,-3.2398,-3.2398,-3.2398,-3.2398,-3.2398,-3.2398,-3.2398,-3.2398,-3.2398,-3.2398,-3.2398,-3.2398,-3.2398,-3.2398,-3.2398,-3.2398,-3.2398,-3.2398,-3.2547,-3.2641,-3.2437,-3.2492,-3.2547,-3.2492,-3.2287,-3.215,-3.2094,-3.1925,-3.1754,-3.1524,-3.1482,-3.1482,-3.1482,-3.1482,-3.1482,-3.1482,-3.1482,-3.1482,-3.1482,-3.1482,-3.1482,-3.1482,-3.1482,-3.1161,0.0,0.0,0.0,0.0,0.0,0.0,0.0,0.0,0.0,0.0,0.0,0.0,0.0,0.0,0.0,0.0,0.0,0.0,0.0,0.0,0.0,0.0,0.0,0.0,0.0,-4.0539,-4.0523,-4.0504,-4.0441,-4.0425,-4.0489,-4.0321,-4.0081,-3.9819,-3.9683,-3.9439,-3.9129,-3.9101,-3.9045,-3.8892,-3.891,-3.884,-3.8707,-3.8186,-3.8025,-3.8217,-3.8257,-3.8399,-3.8612,-3.9129,-3.937,-3.937,-3.937,-3.9124,-3.8567,-3.7093,-3.5956,-3.4987,-3.3694,-3.3093,-3.2895,-3.2547,-3.2398,-3.2398,-3.2398,-3.2398,-3.2398,-3.2398,-3.2398,-3.2398,-3.2398,-3.2398,-3.2398,-3.2398,-3.2398,-3.2398,-3.2398,-3.2398,-3.2398,-3.2398,-3.2398,-3.2398,-3.2398,-3.2398,-3.2398,-3.2342,-3.2342,-3.2398,-3.2398,-3.2302,-3.2191,-3.215,-3.194,-3.1784,-3.1727,-3.1597,-3.1482,-3.1482,-3.1482,-3.1482,-3.1482,-3.1482,-3.1482,-3.1482,-3.1482,-3.1482,-3.1482,-3.1278,-3.1161,-3.1161,-3.1161,-3.097,-3.0524,0.0,0.0,0.0,0.0,0.0,0.0,0.0,0.0,0.0,0.0,0.0,0.0,0.0,0.0,0.0,0.0,0.0,0.0,0.0,0.0,0.0,0.0,0.0,-4.0573,-4.0607,-4.0573,-4.0523,-4.0321,-4.0286,-4.0473,-4.0321,-4.0081,-3.9819,-3.9797,-3.9571,-3.911,-3.9101,-3.9045,-3.8892,-3.891,-3.8822,-3.8676,-3.7913,-3.7523,-3.7522,-3.8231,-3.8577,-3.8646,-4.0129,-4.0802,-4.0802,-4.0802,-4.0069,-3.877,-3.7403,-3.6067,-3.478,-3.3625,-3.2841,-3.2398,-3.2398,-3.2398,-3.2398,-3.2398,-3.2398,-3.2398,-3.2398,-3.2398,-3.2398,-3.2398,-3.2398,-3.2398,-3.2398,-3.2398,-3.2398,-3.2398,-3.2398,-3.2398,-3.2398,-3.2398,-3.2398,-3.2398,-3.2398,-3.2342,-3.2247,-3.2287,-3.2398,-3.2398,-3.2302,-3.2135,-3.2053,-3.1898,0.0,-3.1539,-3.1482,-3.1482,-3.1482,-3.1482,-3.1482,-3.1482,-3.1482,-3.1482,-3.1482,-3.1482,-3.1482,-3.1482,-3.0896,-3.0524,-3.0524,-3.0524,-3.0524,-3.0464,0.0,0.0,0.0,0.0,0.0,0.0,0.0,0.0,0.0,0.0,0.0,0.0,0.0,0.0,0.0,0.0,0.0,0.0,0.0,0.0,0.0,-4.0406,-4.0489,-4.0592,-4.0607,-4.0573,-4.0523,-4.0457,-4.0441,-4.0489,-4.0321,-4.0081,-3.9819,-3.966,-3.9458,-3.9129,-3.9101,-3.9045,-3.8892,-3.891,-3.8713,-3.8252,-3.7774,-3.7642,-3.7937,-3.786,-3.8077,-3.8594,-3.9026,-3.9215,-3.9215,-3.9215,-3.8785,-3.8007,-3.6604,-3.5609,-3.4848,-3.3354,-3.2672,-3.2523,-3.2453,-3.2398,-3.2398,-3.2398,-3.2398,-3.2398,-3.2398,-3.2398,-3.2398,-3.2398,-3.2398,-3.2398,-3.2398,-3.2398,-3.2398,-3.2398,-3.2398,-3.2398,-3.2398,-3.2398,-3.2398,-3.2398,-3.2398,-3.2342,-3.2247,-3.2247,-3.2247,-3.2247,-3.2038,-3.194,-3.1996,-3.1769,-3.1539,-3.1539,-3.1482,-3.1482,-3.1482,-3.1482,-3.1482,-3.1482,-3.1482,-3.1482,-3.1482,-3.1482,-3.1482,-3.1482,-3.1351,-3.1219,-3.1219,-3.0777,-3.0269,0.0,0.0,0.0,0.0,0.0,0.0,0.0,0.0,0.0,0.0,0.0,0.0,0.0,0.0,0.0,0.0,0.0,0.0,0.0,0.0,0.0,0.0,-4.0569,-4.0631,-4.0631,-4.0617,-4.0583,-4.0539,-4.0441,-4.0425,-4.0489,-4.0232,-3.9963,-3.9819,-3.9609,-3.9401,-3.9129,-3.9101,-3.9045,-3.8968,-3.8755,-3.8473,-3.815,-3.756,-3.7362,-3.7602,-3.7515,-3.7698,-3.8129,-3.8439,-3.8594,-3.8594,-3.838,-3.7959,-3.7349,-3.6026,-3.5191,-3.4601,0.0,0.0,0.0,0.0,-3.2398,-3.2398,-3.2398,-3.2398,-3.2398,-3.2398,-3.2231,-3.1992,-3.1992,-3.1992,-3.1992,-3.1992,-3.2231,-3.2398,-3.2398,-3.2398,-3.2398,-3.2398,-3.2342,-3.2302,-3.2302,-3.2287,-3.2191,-3.2038,-3.2038,0.0,-3.2038,-3.1898,-3.1841,-3.1883,-3.1655,-3.1482,-3.1482,-3.1482,-3.1482,-3.1482,-3.1482,-3.1482,-3.1482,-3.1482,0.0,0.0,0.0,-3.1351,-3.1087,-3.1087,0.0,0.0,0.0,-3.045,-3.0329,-3.0718,0.0,0.0,-3.1351,-3.1482,0.0,0.0,0.0,0.0,0.0,0.0,0.0,0.0,0.0,0.0,0.0,0.0,0.0,0.0,0.0,0.0,-4.0673,-4.0778,-4.0733,-4.0654,-4.0607,-4.0588,-4.0375,-4.0304,-4.0489,-4.0101,-3.984,-3.9797,-3.9609,-3.9401,-3.9129,-3.9101,0.0,0.0,0.0,-3.8277,-3.8147,-3.736,-3.6939,-3.6838,-3.7203,-3.7353,-3.737,-3.8025,-3.8318,-3.8229,-3.775,-3.7213,-3.6604,-3.5524,-3.4711,-3.406,-3.3045,-3.2594,-3.2578,-3.2453,-3.2398,-3.2398,-3.2398,0.0,0.0,-3.2398,-3.1992,-3.148,-3.148,-3.1422,-3.1364,-3.1364,-3.1766,-3.216,-3.216,-3.216,-3.2216,-3.2272,-3.2231,-3.2135,-3.2191,-3.215,-3.1996,-3.1841,-3.1784,-3.1799,-3.1784,-3.1784,-3.1784,-3.1799,-3.1597,-3.1482,-3.1482,-3.1482,-3.1482,-3.1482,0.0,0.0,-3.1482,-3.1409,-3.1409,-3.1482,-3.1482,-3.1219,-3.0524,-3.0584,-3.0584,-3.0524,-3.0584,-3.0896,-3.1409,-3.1409,-3.1409,-3.1409,-3.1467,-3.1482,0.0,0.0,0.0,0.0,0.0,0.0,0.0,0.0,0.0,0.0,0.0,0.0,0.0,0.0,0.0,-4.072,-4.0778,-4.079,-4.079,-4.0713,-4.066,-4.0622,-4.0508,-4.0457,-4.0489,-4.0267,-4.0042,-3.9819,-3.9609,-3.9401,-3.9129,-3.9101,-3.9073,-3.9007,-3.8862,-3.8442,-3.772,-3.7487,-3.7055,-3.6409,-3.6498,0.0,-3.6542,-3.668,-3.656,-3.6191,-3.6084,-3.5532,-3.4624,-3.441,-3.385,-3.3123,-3.2944,-3.2648,-3.2453,-3.2398,-3.2398,-3.2398,-3.2398,-3.2398,-3.2398,-3.2398,-3.1992,-3.148,-3.148,-3.1116,0.0,-3.0703,-3.0748,-3.0866,-3.0866,-3.0866,-3.0984,-3.1537,-3.1652,-3.1781,-3.2231,-3.2247,-3.215,-3.1996,-3.1898,-3.1727,-3.1597,-3.1539,-3.1597,-3.1784,-3.1597,-3.1482,-3.1482,-3.1482,-3.1482,-3.1482,-3.1482,-3.1482,-3.1482,-3.1029,-3.0896,-3.1467,-3.1482,-3.1219,-3.0524,-3.1029,-3.1029,-3.0524,-3.1029,-3.1087,-3.0703,-3.0703,-3.0703,-3.0703,-3.1219,-3.1482,0.0,0.0,0.0,0.0,0.0,0.0,0.0,0.0,0.0,0.0,0.0,-3.8736,-4.0347,0.0,-4.0673,-4.079,-4.079,-4.079,-4.079,-4.0746,-4.0673,-4.0612,-4.0569,-4.0539,-4.0504,-4.0194,-3.9943,-3.9819,-3.9489,-3.9245,-3.9101,-3.9101,-3.9073,-3.9064,-3.8579,-3.8077,-3.7649,-3.7135,-3.6719,-3.6301,-3.6301,-3.6301,-3.6301,-3.6071,-3.5793,-3.5571,-3.5068,-3.4561,-3.4101,-3.3797,-3.3398,-3.3005,-3.2897,-3.2703,-3.2327,-3.2048,-3.1936,-3.1879,-3.158,-3.145,-3.145,-3.145,-3.1043,-3.0495,-3.0495,-3.0254,-3.0011,-3.0011,-3.0269,-3.0524,-3.0524,-3.0524,-3.0584,-3.094,-3.0955,-3.0955,-3.1291,-3.1175,-3.0999,-3.0896,-3.0777,-3.0644,-3.0524,-3.0524,-3.0644,-3.1087,-3.1087,-3.1029,-3.1029,-3.1029,-3.1029,-3.1029,-3.0703,-3.0524,-3.0524,-3.0208,-3.0133,-3.0464,-3.0524,-3.0329,-3.0011,-3.0329,-3.0524,-3.0524,-3.0524,-3.0644,-3.1029,-3.0644,-3.0644,-3.1029,-3.1351,-3.1482,0.0,0.0,0.0,0.0,0.0,0.0,0.0,0.0,-3.5621,-3.7512,-3.7906,-3.8488,-4.0449,-4.079,-4.079,-4.079,-4.079,-4.079,-4.079,-4.0746,-4.07,-4.0621,-4.0617,-4.0573,-4.0523,-4.012,-3.9861,-3.9797,-3.9414,-3.9137,-3.9101,-3.9101,-3.9101,-3.9101,-3.8305,-3.7823,-3.7701,-3.6865,-3.6409,-3.6301,-3.6301,-3.6301,-3.6301,-3.5898,-3.5616,-3.5391,-3.4366,-3.3949,-3.3899,-3.345,-3.3203,-3.3096,-3.2897,-3.2594,-3.2216,-3.1709,-3.148,-3.1422,-3.0763,-3.0524,-3.0524,-3.0524,-3.0072,-2.9504,-2.9504,-2.9393,-2.9331,-2.9331,-2.9718,-3.0162,-3.0162,-3.0162,-3.0162,-3.0269,-3.0222,-3.0176,-3.0312,-3.0054,-2.987,-2.987,-2.9656,-2.9504,-2.958,-2.9393,-2.9518,-3.0208,-3.0329,-3.0329,-3.0329,-3.0329,-3.0329,-3.0329,-2.9827,-2.9442,-2.9331,-2.9442,-2.9442,-2.9317,-2.9442,-2.9442,-2.9331,-2.9442,-2.969,-3.0086,-2.9704,-3.0072,-3.1278,-3.0644,-3.0718,-3.1482,-3.1219,-3.1219,-3.2297,-3.3442,-3.4057,-3.3939,-3.4494,-3.5078,0.0,0.0,-3.5621,-3.7512,-3.7906,-3.8488,-4.0449,-4.079,-4.079,-4.079,-4.079,-4.079,-4.079,-4.079,-4.0759,-4.07,-4.0631,-4.0607,-4.0588,-4.0341,-4.0062,-3.9819,-3.9585,-3.935,-3.9129,-3.9101,-3.9101,-3.9101,-3.8658,-3.818,-3.7701,-3.7228,-3.6776,-3.6301,-3.6301,-3.6301,-3.6301,-3.6259,-3.5749,-3.4816,-3.3832,-3.3398,-3.3361,-3.3203,-3.3096,-3.3043,-3.2757,-3.2287,-3.1751,-3.1595,-3.148,-3.1422,-3.0763,-3.0524,-3.0524,-3.0524,-3.0072,-2.9504,-2.9504,-2.9107,-2.8716,-2.8716,-2.8766,-2.883,-2.883,-2.883,-2.8944,-2.9456,-2.958,-2.9766,-3.0329,-3.0208,-3.0025,-3.019,-2.9842,-2.958,-2.9732,-2.9107,-2.8839,-2.9518,-2.9628,-2.9628,-2.9628,-2.9628,-2.9628,-2.9628,-2.9566,-2.9268,-2.8661,-2.9142,-2.9268,-2.8661,-2.9142,-2.9205,-2.8661,-2.9205,-2.9268,-2.8725,-2.9205,-2.9889,-3.0584,-2.995,-3.0269,-3.1467,-3.0269,-3.0329,-3.2711,-3.3317,-3.3442,-3.3403,-3.4089,-3.4735,-3.4713,-3.5104,-3.5952,-3.7757,-3.8128,-3.8703,-4.0567,-4.0915,-4.0915,-4.0915,-4.0878,-4.0856,-4.0856,-4.082,-4.079,-4.0759,-4.0706,-4.0631,-4.0588,-4.0358,-4.0081,-3.9819,-3.9609,-3.9401,-3.9129,-3.9101,-3.8998,-3.8807,-3.8392,-3.7946,-3.7506,-3.6995,-3.665,-3.6402,-3.6343,-3.6174,-3.5898,-3.5571,-3.4864,-3.3917,-3.3487,-3.3309,-3.3309,-3.3256,-3.2958,-3.2477,-3.2256,-3.1721,-3.1087,-3.0999,-3.0689,-3.0254,-2.9608,-2.9373,-2.9373,-2.9373,-2.9184,-2.8994,-2.8994,-2.883,-2.8587,-2.8587,-2.8587,-2.8587,-2.8587,-2.8587,-2.8651,-2.8944,-2.8994,-2.9058,-2.931,-2.9121,-2.8944,-2.9008,-2.8675,-2.8338,-2.8481,-2.8157,-2.8026,-2.8274,-2.8648,-2.8903,-2.8903,-2.8903,-2.8776,-2.8403,-2.8338,-2.8403,-2.8481,-2.8403,-2.8403,-2.8481,-2.8403,-2.8208,-2.7908,-2.8222,-2.8403,-2.8481,-2.8403,-2.8826,-2.995,-2.9268,-2.9393,-3.0329,-3.0147,-3.0389,-3.2864,-3.3057,-3.2878,-3.2787,-3.348,-3.4167,-3.4117,-3.4565,-3.5573,-3.7538,-3.7944,-3.8572,-4.0602,-4.1,-4.0994,-4.0994,-4.0964,-4.0924,-4.0924,-4.0858,-4.0831,-4.0831,-4.0739,-4.0673,-4.0617,-4.0425,-4.0195,-3.9943,-3.9705,-3.9464,-3.9219,-3.9156,-3.8942,-3.8609,-3.818,-3.7756,-3.7339,-3.6794,-3.6502,-3.6444,-3.6216,-3.5941,-3.5571,-3.4927,-3.4218,-3.3503,-3.3346,-3.324,-3.3118,-3.3081,-3.2586,-3.186,-3.1721,-3.1145,-3.0435,-3.0269,-2.995,-2.9393,-2.8817,-2.8587,-2.8587,-2.8587,-2.8587,-2.8587,-2.8587,-2.8587,-2.8587,-2.8587,-2.8587,-2.8587,-2.8587,-2.8587,-2.8587,-2.8587,-2.8587,-2.8522,-2.8522,-2.8262,-2.8,-2.8079,-2.7802,-2.7523,-2.759,-2.7523,-2.7523,-2.7523,-2.7908,-2.8222,-2.8222,-2.8222,-2.8039,-2.7523,-2.7523,-2.7723,-2.8157,-2.7776,-2.7723,-2.8157,-2.7776,-2.7523,-2.7523,-2.7523,-2.7723,-2.8222,-2.7789,-2.8091,-2.9205,-2.8725,-2.8839,-2.9504,-2.9827,-2.9964,-3.2585,-3.2658,-3.2749,-3.2093,-3.2634,-3.334,-3.334,-3.329,-3.3996,-3.652,-3.7033,-3.7828,-4.0431,-4.0964,-4.0994,-4.0994,-4.1007,-4.1007,-4.1007,-4.0941,-4.0907,-4.0907,-4.0781,-4.0668,-4.0607,-4.0583,-4.0476,-4.0214,-3.9943,-3.9705,-3.9483,-3.9245,-3.8942,-3.8609,-3.8281,-3.7809,-3.7226,-3.6869,-3.6544,-3.6301,-3.5854,-3.5616,-3.5588,-3.4561,-3.4101,-3.405,-3.3555,-3.3065,-3.2602,-3.2492,-3.2033,-3.1377,-3.1116,-3.0539,-2.9794,-2.958,-2.9504,-2.9393,-2.8817,-2.8587,-2.8587,-2.8587,-2.8587,-2.8587,-2.8587,-2.8587,-2.8587,-2.8587,-2.8587,-2.8587,-2.8587,-2.8587,-2.8587,-2.8587,-2.8444,-2.8287,-2.8287,-2.8039,-2.7855,-2.8079,-2.7802,-2.759,-2.7789,-2.7656,-2.7523,-2.7523,-2.7523,-2.7523,-2.7523,-2.7523,-2.7523,-2.7523,-2.7523,-2.7523,-2.7523,-2.7523,-2.7523,-2.7523,-2.7523,-2.7523,-2.7523,-2.7523,-2.7523,-2.7523,-2.7523,-2.7842,-2.8546,-2.8481,-2.8839,-2.9504,-2.8839,-2.8546,-3.1464,-3.166,-3.1307,-3.1035,-3.1679,-3.2361,-3.2313,-3.2775,-3.3778,-3.579,-3.6198,-3.7014,-3.9681,-4.0194,-4.0409,-4.1025,-4.1104,-4.107,-4.107,-4.1,-4.0972,-4.0972,-4.0921,-4.0869,-4.0746,-4.0648,-4.0425,-3.9963,-3.984,-3.9618,-3.9245,-3.9156,-3.8942,-3.8609,-3.8281,-3.7879,-3.7395,-3.693,-3.6643,-3.6544,-3.5571,-3.4927,-3.4561,-3.3899,-3.3555,-3.3555,-3.3398,-3.3187,-3.3065,-3.2656,-3.2074,-3.1362,-3.0748,-3.004,-2.9275,-2.9008,-2.8881,-2.8881,-2.8651,-2.8587,-2.8587,-2.8587,-2.8587,-2.8587,-2.8587,-2.8587,-2.8587,-2.8587,-2.8587,-2.8587,-2.8587,-2.8587,-2.8587,-2.8587,-2.8522,-2.8444,-2.8352,-2.8118,-2.8,-2.7921,-2.7656,-2.7523,-2.759,-2.7523,-2.7523,-2.7523,-2.7523,-2.7523,-2.7523,-2.7523,-2.7523,-2.7523,-2.7523,-2.7656,-2.8091,-2.7789,-2.7723,-2.8157,-2.7789,-2.7523,-2.7523,-2.7523,-2.7523,-2.7523,-2.7523,-2.759,-2.7842,-2.7842,-2.7973,-2.8208,-2.8417,-2.8481,-3.0138,-3.0481,-2.9863,-3.0035,-3.0689,-3.128,-3.1203,-3.1965,-3.3183,-3.4903,-3.5556,-3.6596,-3.9239,-3.9764,-4.0098,-4.0982,-4.1133,-4.1125,-4.1091,-4.1065,-4.1047,-4.1047,-4.1006,-4.0953,-4.082,-4.0699,-4.0477,-4.012,-3.9903,-3.9664,-3.9364,-3.9192,-3.8942,-3.8609,-3.8281,-3.7879,-3.7469,-3.697,-3.6461,-3.6002,-3.5191,-3.4448,-3.3797,-3.345,-3.3309,-3.3309,-3.3118,-3.2958,-3.2796,-3.2327,-3.1637,-3.0881,-3.0283,-2.9637,-2.9035,-2.8716,-2.8587,-2.8587,-2.8587,-2.8587,-2.8587,-2.8587,-2.8587,-2.8587,-2.8587,-2.8587,-2.8587,-2.8587,-2.8587,-2.8587,-2.8587,-2.8587,-2.8587,-2.8587,-2.8522,-2.8444,-2.8352,-2.8118,-2.7934,-2.7855,-2.7656,-2.7523,-2.7523,-2.7523,-2.7523,-2.7523,-2.7523,-2.7523,-2.7523,-2.7523,-2.7523,-2.7523,-2.7523,-2.7656,-2.8105,-2.7789,-2.7656,-2.8105,-2.7723,-2.7523,-2.7523,-2.7523,-2.7523,-2.7523,-2.7523,-2.7523,-2.7523,-2.7523,-2.7523,-2.7523,-2.7908,-2.8157,-2.8554,-2.9093,-2.8418,-2.9017,-2.9617,-3.0072,-3.0062,-3.0925,-3.2231,-3.3867,-3.5053,-3.6547,0.0,0.0,-4.0059,-4.0844,-4.1091,-4.1169,-4.1114,-4.1094,-4.1094,0.0,0.0,0.0,0.0,0.0,-4.0672,-4.0617,-4.012,-3.9819,-3.9775,-3.9364,-3.897,-3.8658,-3.8281,-3.7897,-3.745,-3.6948,-3.6088,-3.4864,-3.4816,-3.4301,-3.3346,-3.3293,-3.3309,-3.324,-3.2765,-3.2312,-3.1879,-3.1452,-3.0866,-3.0111,-2.9803,-2.9415,-2.9099,-2.8716,-2.8587,-2.8587,-2.8587,-2.8587,-2.8587,-2.8587,-2.8587,-2.8587,-2.8587,-2.8587,-2.8587,-2.8587,-2.8587,-2.8587,-2.8587,-2.8587,-2.8587,-2.8587,-2.8444,-2.8287,-2.8287,-2.8039,-2.7842,-2.7776,-2.7656,-2.7523,-2.7523,-2.7523,-2.7523,-2.7523,-2.7523,-2.7523,-2.7523,-2.7523,-2.7523,-2.7523,-2.7523,-2.7523,-2.7523,-2.7523,-2.7523,-2.7523,-2.7523,-2.7523,-2.7523,-2.7523,-2.7523,-2.7523,-2.7523,-2.7523,-2.7523,-2.7523,-2.7523,-2.7523,-2.7523,-2.7523,-2.5595,-2.6571,-2.6676,-2.7277,-2.7885,-2.8515,-2.921,-3.0247,-3.1399,-3.2635,-3.4359,-3.6211,-3.7996,-3.9052,-3.9894,-4.0657,-4.0941,0.0,-4.1108,-4.1101,0.0,-4.1171,0.0,-4.1116,-4.1037,-4.0863,-4.0743,-4.0684,-4.0312,-3.9941,-3.9604,-3.9458,-3.9272,-3.897,-3.841,-3.8034,-3.7913,-3.7126,-3.6301,-3.5493,-3.4988,-3.4496,-3.3899,-3.3503,-3.3118,-3.2765,-3.2656,-3.2312,-3.1879,-3.1452,-3.1161,-3.0925,-3.0219,-2.9803,-2.9415,-2.9099,-2.878,-2.8587,-2.8587,-2.8587,-2.8587,-2.8587,-2.8587,-2.8587,-2.8587,-2.8587,-2.8587,-2.8587,-2.8587,-2.8587,-2.8587,-2.8587,-2.8587,-2.8587,-2.8587,-2.8509,-2.8352,-2.8222,-2.8105,-2.7842,-2.7656,-2.7523,-2.7523,-2.7523,-2.7523,-2.7523,-2.7523,-2.7523,-2.7523,-2.7523,-2.7523,-2.7523,-2.7523,-2.7523,-2.7523,-2.7523,-2.7523,-2.7523,-2.7523,-2.7523,-2.7523,-2.7523,-2.7523,-2.7523,-2.7523,-2.7523,-2.7523,-2.7523,-2.7523,-2.7523,-2.7523,-2.7523,-2.3776,-2.4882,-2.5211,-2.6371,-2.7077,-2.7767,-2.8658,-3.0053,-3.1391,-3.2176,-3.4225,-3.6262,-3.7618,-3.876,-3.9742,0.0,0.0,0.0,-4.1006,-4.1047,-4.1078,0.0,-4.1167,0.0,-4.1094,-4.0969,-4.0848,-4.0701,-4.0377,-4.0022,-3.9656,-3.9556,-3.9376,-3.9101,-3.8442,-3.7931,-3.7523,-3.7009,-3.6284,-3.5386,-3.5035,-3.4496,-3.3745,-3.345,-3.3187,-3.2888,-3.2492,-3.2145,-3.1879,-3.1263,-3.0984,-3.0896,-3.0024,-2.9562,-2.9275,-2.8566,-2.8161,-2.7988,-2.7876,-2.7813,-2.7908,-2.8424,-2.8587,-2.8587,-2.8587,-2.8587,-2.8587,-2.8587,-2.8587,-2.8587,-2.8587,-2.8587,-2.8587,-2.8587,-2.8587,-2.8587,-2.8444,-2.8314,-2.8118,-2.7723,-2.759,-2.7523,-2.7523,-2.7523,-2.7523,-2.7523,-2.7523,-2.7523,-2.7523,-2.7523,-2.7523,-2.7523,-2.7523,-2.7523,-2.7523,-2.7523,-2.7523,-2.7523,-2.7523,-2.7523,-2.7523,-2.7523,-2.7523,-2.7523,-2.7523,-2.7523,-2.7523,-2.7523,-2.7523,-2.7523,-2.7523,-2.7523,-2.2656,-2.3731,-2.3999,-2.5713,-2.6684,-2.7461,-2.8262,-3.0088,-3.1734,-3.2147,-3.4434,-3.6633,-3.7572,-3.8719,-3.9728,-4.0376,0.0,-4.0937,-4.0897,-4.0957,-4.1006,-4.1078,-4.1085,-4.1107,-4.1103,-4.1039,-4.0916,-4.0732,-4.0438,-4.0139,-3.9861,-3.9637,-3.9383,-3.9027,-3.841,-3.7703,-3.6891,-3.6811,-3.6266,-3.522,-3.5081,-3.4464,-3.3487,-3.3346,-3.324,-3.3081,-3.2272,-3.1823,-3.1637,-3.0822,-3.0451,-3.0379,-2.9432,-2.9011,-2.8822,-2.7739,-2.7308,-2.7189,-2.6917,-2.6823,-2.6986,-2.8017,-2.841,-2.8478,-2.8478,-2.8532,-2.8587,-2.8587,-2.8587,-2.8587,-2.8587,-2.8587,-2.8587,-2.8587,-2.8587,-2.8587,-2.8587,-2.8341,-2.7987,-2.7498,-2.7419,-2.7392,-2.7314,-2.7301,-2.7301,-2.7301,-2.7301,-2.7301,-2.7301,-2.7445,-2.7523,-2.7523,-2.7523,-2.7523,-2.7523,-2.7523,-2.7523,-2.7523,-2.7523,-2.7523,-2.7523,-2.7523,-2.7523,-2.7523,-2.7523,-2.7523,-2.7523,-2.7523,-2.7523,-2.7523,-2.7523,-2.7523,-2.1498,-2.242,-2.3157,-2.4071,-2.5603,-2.6985,-2.7513,-2.9726,0.0,-3.1864,-3.467,-3.7182,-3.7432,-3.8932,-4.0175,-4.0312,-4.0472,-4.0655,-4.0869,-4.0906,-4.0949,0.0,-4.107,-4.1094,-4.1101,-4.1045,-4.0933,-4.0785,-4.0676,-4.0462,-4.0158,-3.988,-3.9408,-3.87,-3.8314,-3.7879,-3.7395,-3.6992,-3.6667,-3.6402,-3.5464,-3.4847,-3.4496,-3.3678,-3.2904,-3.2104,-3.1992,0.0,-3.0763,-3.006,-2.9784,-2.9726,-2.903,-2.8598,-2.8354,-2.8125,-2.7661,-2.7189,-2.7143,-2.6977,-2.685,-2.7054,-2.7461,-2.7868,-2.7868,-2.8193,-2.8587,-2.8587,-2.8587,-2.8587,-2.8587,-2.8587,-2.8587,-2.8587,-2.8587,-2.8587,-2.8587,-2.8341,-2.7867,-2.7169,-2.6882,-2.6674,-2.6203,-2.6112,-2.6112,-2.6112,-2.6112,-2.6112,-2.6112,-2.6948,-2.7523,-2.7523,-2.7523,-2.7523,-2.7523,-2.7523,-2.7523,-2.7523,-2.7523,-2.7523,-2.7523,-2.7523,-2.7523,-2.7523,-2.7523,-2.7523,-2.7523,-2.7523,-2.7523,-2.7523,-2.7523,-2.7523,-2.1841,-2.2587,-2.3613,-2.4751,-2.627,-2.7703,-2.8679,0.0,0.0,-3.2121,-3.4769,-3.7028,-3.7162,-3.8841,-4.0194,-4.0194,-4.0367,-4.0535,-4.0674,-4.0773,-4.0868,-4.0941,-4.0986,-4.1017,-4.1085,-4.1034,-4.0962,-4.0908,-4.0818,-4.0591,-4.0213,-3.9857,-3.9231,-3.8378,-3.8183,-3.7809,-3.7243,-3.7009,-3.6731,-3.6402,-3.5476,-3.4861,-3.448,-3.3678,-3.3065,-3.2617,-3.2104,-3.1456,-3.0728,-2.9915,-2.9421,-2.9073,-2.8434,-2.8062,-2.7907,-2.7396,-2.6933,-2.6481,-2.638,-2.6106,-2.5873,-2.5873,-2.6497,-2.7244,-2.7244,-2.7447,-2.7664,-2.7664,-2.7664,-2.7746,-2.8058,-2.8125,-2.8207,-2.8519,-2.8587,-2.8505,-2.8052,-2.7857,-2.749,-2.6588,-2.6343,-2.6201,-2.5863,-2.5824,-2.5824,-2.5824,-2.5824,-2.5824,-2.5824,-2.6308,-2.6648,-2.6648,-2.6648,-2.6765,-2.7053,-2.7079,-2.721,-2.751,-2.7523,-2.7523,-2.7523,-2.7523,-2.7523,-2.7523,-2.7523,-2.7523,-2.7523,-2.7523,-2.7523,-2.7523,-2.7523,-2.7523,-2.3226,-2.3722,-2.4747,-2.6122,-2.7331,-2.856,-2.9937,-3.1058,-3.1959,-3.2517,-3.4828,-3.6814,-3.6967,-3.8677,-4.008,0.0,-4.0266,-4.0431,-4.0477,-4.064,-4.0764,-4.0858,-4.0898,0.0,-4.107,-4.1033,-4.0996,-4.1007,-4.0867,-4.0571,-4.0139,-3.9769,-3.9189,-3.8346,-3.8168,-3.7827,-3.7223,-3.7087,-3.6753,-3.6241,-3.5459,-3.4844,-3.4366,-3.3626,-3.324,-3.3118,-3.2118,-3.1364,-3.0754,-2.9648,-2.8927,-2.8405,-2.7766,-2.7534,-2.7407,-2.659,-2.6136,-2.5839,-2.5592,-2.5257,-2.5005,-2.5005,-2.5738,-2.6633,-2.6633,-2.6714,-2.6823,-2.6823,-2.6823,-2.6932,-2.7393,-2.7515,-2.7637,-2.8098,-2.8207,-2.8008,-2.7332,-2.7162,-2.6876,-2.5994,-2.5827,-2.5713,-2.5484,-2.5458,-2.5458,-2.5458,-2.5458,-2.5458,-2.5458,-2.5458,-2.5458,-2.5458,-2.568,-2.6007,-2.6452,-2.6491,-2.6687,-2.7131,-2.7275,-2.7353,-2.7353,-2.7458,-2.7523,-2.7523,-2.7523,-2.7523,-2.7523,-2.7523,-2.7523,-2.7523,-2.7523,-2.7523,-2.591,-2.6044,-2.6282,-2.7134,-2.8135,-2.9081,-2.9843,0.0,-3.2823,-3.2706,-3.4982,-3.6967,-3.699,-3.8606,-3.9956,0.0,0.0,-4.0212,-4.0481,-4.0511,-4.0607,-4.0784,0.0,0.0,-4.0994,-4.0996,-4.0996,-4.1007,-4.082,-4.0453,-3.9861,-3.9797,-3.9524,-3.9027,-3.841,-3.8068,-3.8,-3.7337,-3.6891,-3.6731,-3.562,-3.5031,-3.4878,-3.3815,-3.3065,-3.2625,-3.1518,-3.083,0.0,-2.8583,-2.7868,-2.7752,-2.7128,-2.6866,-2.6866,-2.6433,-2.6136,-2.5839,-2.5592,-2.5257,-2.5005,-2.5005,-2.5453,-2.5968,-2.5968,-2.6375,-2.6823,-2.6823,-2.6823,-2.6837,-2.6891,-2.6904,-2.6918,-2.6972,-2.6986,-2.6837,-2.6449,-2.6374,-2.6153,-2.5279,-2.5101,-2.4943,-2.436,-2.4269,-2.4269,-2.4269,-2.4269,-2.4269,-2.4269,-2.4269,-2.4269,-2.4269,-2.5197,-2.5837,-2.5903,-2.5903,-2.5929,-2.5981,-2.6465,-2.6752,-2.6752,-2.7249,-2.7523,-2.7523,-2.7523,-2.7523,-2.7523,-2.7523,-2.7523,-2.7523,-2.7523,-2.7523,-2.5512,-2.6182,-2.7086,-2.7553,-2.8867,-3.0297,-3.1115,0.0,-3.2893,-3.3121,-3.5136,-3.6814,-3.6549,-3.838,-3.9848,0.0,0.0,0.0,-4.023,-4.0334,-4.045,-4.0607,-4.0642,-4.0734,-4.0913,-4.098,-4.097,-4.0883,-4.08,-4.0546,-4.0081,-3.9901,-3.9481,-3.8836,-3.8346,-3.7982,-3.7721,-3.7261,-3.697,-3.6908,-3.5873,-3.5261,-3.5015,-3.3615,-3.2764,-3.2337,-3.0937,-3.0046,0.0,-2.8184,-2.7505,-2.7128,-2.6881,-2.6779,-2.6779,-2.6659,-2.6326,-2.5893,-2.5798,-2.5411,-2.5005,-2.5005,-2.5168,-2.5358,-2.5358,-2.5534,-2.5738,-2.5738,-2.5738,-2.5805,-2.6172,-2.6267,-2.6267,-2.6267,-2.5982,-2.5571,-2.5091,-2.5177,-2.5127,-2.4394,-2.4424,-2.4478,-2.4151,-2.4112,-2.4112,-2.4112,-2.4112,-2.4112,-2.4112,-2.4112,-2.4112,-2.4112,-2.453,-2.4936,-2.5275,-2.5315,-2.5458,-2.5798,-2.6046,-2.6164,-2.6164,-2.6713,-2.7013,-2.7013,-2.7353,-2.7523,-2.7523,-2.7523,-2.7523,-2.7523,-2.7523,-2.7523,-2.6402,-2.7133,-2.8151,-2.859,-2.9707,-3.0999,-3.2126,0.0,-3.297,-3.3444,-3.5264,-3.6656,-3.6288,-3.8184,-3.9735,0.0,0.0,-4.0041,-4.0101,-4.0176,-4.03,-4.0415,0.0,-4.0549,-4.0789,-4.0928,-4.097,-4.0877,-4.0816,-4.0633,-4.0264,-3.9964,-3.9529,-3.8905,-3.8455,-3.8065,-3.7685,-3.7319,-3.6964,-3.6636,-3.5761,-3.5003,-3.4392,-3.3062,-3.2318,-3.1902,-3.0454,-2.9526,0.0,-2.8001,-2.7292,-2.6779,-2.6779,-2.6779,-2.6779,-2.6712,-2.6379,-2.5988,-2.5853,-2.5522,-2.5131,-2.5005,-2.5005,-2.5005,-2.5005,-2.5005,-2.5005,-2.5005,-2.4883,-2.4842,-2.5263,-2.5236,-2.51,-2.51,-2.4788,-2.4312,-2.3838,-2.3971,-2.4035,-2.3455,-2.3659,-2.3927,-2.3851,-2.3995,-2.4112,-2.4112,-2.4112,-2.4112,-2.4112,-2.4112,-2.4112,-2.4112,-2.4112,-2.4282,-2.4687,-2.4713,-2.4883,-2.5288,-2.5471,-2.5563,-2.5563,-2.6112,-2.6412,-2.6412,-2.6817,-2.7118,-2.7275,-2.7275,-2.7366,-2.7523,-2.7523,-2.7523,-2.9782,-2.9705,-2.9789,-3.0567,-3.064,-3.0931,-3.2449,-3.2947,-3.3201,-3.3625,-3.5299,-3.6638,-3.6344,-3.8055,-3.9483,-3.9502,-3.9735,0.0,-4.0081,-4.0101,-4.0139,0.0,-4.03,-4.0392,-4.0583,-4.0836,-4.0996,-4.1007,-4.0867,-4.066,-4.0312,-3.9986,-3.9687,-3.9502,-3.8905,-3.8423,-3.8101,-3.7703,-3.6911,-3.5791,-3.5209,-3.4227,-3.2887,-3.2282,-3.1726,-3.1142,-3.0089,-2.9381,0.0,-2.7859,-2.7144,-2.6779,-2.6779,-2.6779,-2.6779,-2.6418,-2.6283,-2.6244,-2.5702,-2.5494,-2.5439,-2.5131,-2.5005,-2.5005,-2.5005,-2.5005,-2.5005,-2.5005,-2.4584,-2.4137,-2.4137,-2.3662,-2.3216,-2.3216,-2.3202,-2.3149,-2.2884,-2.2844,-2.2724,-2.2482,-2.2831,-2.3223,-2.3223,-2.372,-2.4112,-2.4112,-2.4112,-2.4112,-2.4112,-2.4112,-2.4112,-2.4112,-2.4112,-2.4112,-2.4125,-2.4125,-2.4125,-2.4138,-2.4661,-2.5035,-2.5035,-2.5524,-2.5837,-2.5837,-2.5837,-2.6112,-2.6687,-2.6687,-2.6974,-2.7523,-2.7523,-2.7523,-2.9492,-2.9729,-2.9989,-3.026,-3.0673,-3.1287,-3.2263,-3.2677,-3.3045,-3.3597,-3.5192,-3.6399,-3.6083,-3.7922,-3.9433,-3.9189,-3.958,0.0,0.0,0.0,0.0,-4.0158,-4.0334,-4.0538,-4.0846,-4.0905,-4.0952,-4.0992,-4.0887,-4.0731,-4.0584,-4.0081,-3.9705,-3.9526,-3.8915,-3.8548,-3.8423,-3.732,-3.6577,-3.6185,-3.4983,-3.399,-3.3119,-3.2056,-3.1277,-3.0625,-2.9389,-2.8593,-2.8217,-2.7614,-2.7144,-2.6779,-2.6779,-2.6779,-2.6779,-2.6659,-2.6472,-2.6297,-2.6096,-2.5798,-2.5494,-2.5383,-2.5188,-2.5005,-2.5005,-2.5005,-2.4924,-2.4517,-2.4272,-2.4028,-2.3568,-2.3065,-2.2603,-2.2603,-2.2291,-2.1893,-2.1757,-2.1963,-2.214,-2.1931,-2.2297,-2.2635,-2.2635,-2.3119,-2.3498,-2.3498,-2.3851,-2.4112,-2.4112,-2.4112,-2.4112,-2.4112,-2.4112,-2.4112,-2.4112,-2.4112,-2.4112,-2.4112,-2.4282,-2.4387,-2.4387,-2.4936,-2.5236,-2.5236,-2.5628,-2.5903,-2.6086,-2.6086,-2.6177,-2.6373,-2.6765,-2.6948,0.0,-3.0185,-3.0551,-3.0551,-3.1128,0.0,-3.2382,-3.2759,-3.3124,-3.3625,-3.5092,-3.6211,-3.6113,-3.7868,-3.9268,-3.9189,-3.958,-3.9889,0.0,0.0,-3.9956,-4.0081,-4.0283,-4.0552,-4.0859,-4.0889,-4.094,-4.1033,-4.0935,-4.0829,-4.0738,-4.0271,-3.9865,-3.9632,-3.91,-3.8571,-3.8157,-3.7123,-3.6215,-3.5471,-3.4442,-3.3399,-3.2435,-3.165,-3.0855,-3.011,-2.9233,-2.8496,0.0,-2.7695,-2.7269,-2.6779,-2.6779,-2.6779,-2.6779,-2.6779,-2.6659,-2.6472,-2.6336,-2.6002,-2.5647,-2.555,-2.5257,-2.4964,-2.4747,-2.4666,-2.4598,-2.4232,-2.3784,-2.335,-2.2983,-2.2427,-2.1966,-2.1966,-2.1681,-2.1375,-2.1229,-2.1425,-2.1579,-2.1453,-2.1812,-2.2141,-2.2088,-2.2531,-2.291,-2.2897,-2.3393,-2.3772,-2.3772,-2.3968,-2.4112,-2.4112,-2.4112,-2.4112,-2.4112,-2.4112,-2.4112,-2.4112,-2.4112,-2.4112,-2.4112,-2.4452,-2.4648,-2.4648,-2.5001,-2.5288,-2.5497,-2.572,-2.5824,-2.5837,-2.619,-2.6347,0.0,-3.1269,-3.1393,-3.1393,-3.1877,-3.2403,0.0,0.0,0.0,-3.3808,-3.5034,-3.6131,-3.6436,-3.7886,-3.9109,-3.9458,-3.9712,-3.9889,0.0,-3.9889,-3.9956,-4.0081,-4.0212,-4.0414,-4.0674,-4.0818,-4.0945,-4.1072,-4.1035,-4.0942,-4.082,-4.0488,-4.0112,-3.9724,-3.927,-3.8526,-3.7441,-3.6971,-3.5836,-3.4026,-3.3634,-3.2644,-3.1162,-3.1123,-3.0543,0.0,-2.9515,-2.8935,-2.7947,-2.7898,-2.7479,-2.6832,-2.6779,-2.6779,-2.6779,-2.6779,-2.6779,-2.6779,-2.6418,-2.615,-2.5893,-2.555,-2.5189,-2.4829,-2.4245,-2.4096,-2.4096,-2.4015,-2.3173,-2.2291,-2.2251,-2.183,-2.1423,-2.1423,-2.1423,-2.1375,-2.1229,-2.118,-2.1144,-2.0938,-2.131,-2.1602,-2.1498,-2.1956,-2.2335,-2.2363,-2.2792,-2.3171,-2.321,-2.3707,-2.4073,-2.4112,-2.4112,-2.4112,-2.4112,-2.4112,-2.4112,-2.4112,-2.4112,-2.4112,-2.4112,-2.4112,-2.4112,-2.4112,-2.4112,-2.4387,-2.4909,-2.5445,-2.5694,-2.5707,-2.5746,-2.5759,-3.427,0.0,-3.2468,-3.2468,-3.2568,-3.2763,0.0,0.0,0.0,0.0,0.0,0.0,0.0,0.0,-3.9109,-3.9458,-3.9551,-3.967,-3.9867,-3.9889,-3.9956,-4.0081,-4.0212,-4.0389,-4.0599,-4.0789,-4.0933,-4.1013,-4.101,-4.0942,-4.082,-4.0488,-3.9862,-3.8911,-3.8639,-3.8271,-3.7785,-3.5962,-3.4829,-3.4357,-3.3206,-3.2318,-3.1694,-3.1278,-3.0747,-3.0097,-2.9677,-2.909,-2.8367,-2.8012,-2.7645,-2.7248,-2.6937,-2.6779,-2.6779,-2.6779,-2.6779,-2.6779,-2.6712,-2.6486,-2.6065,-2.5131,-2.46,-2.4218,-2.3568,-2.3703,-2.3933,-2.2997,-2.2522,-2.2196,-2.1749,-2.1532,-2.1423,-2.1423,-2.1423,-2.1375,-2.1229,-2.118,-2.1144,-2.0997,-2.103,-2.1086,-2.1036,-2.1406,-2.1721,-2.1707,-2.2217,-2.2753,-2.3158,-2.3341,-2.3602,-2.4073,-2.4112,-2.4112,-2.4112,-2.4112,-2.4112,-2.4112,-2.4112,-2.4112,-2.4112,-2.4112,-2.4112,-2.4112,-2.4112,-2.4178,-2.4321,-2.4452,-2.4517,-2.453,-2.4962,-2.5171,-3.5755,-3.4839,-3.3898,-3.3898,-3.4028,-3.4186,-3.4359,0.0,0.0,0.0,0.0,0.0,0.0,0.0,0.0,0.0,-3.9408,0.0,-3.9867,-3.9889,-3.9956,-4.0081,-4.0212,-4.0377,-4.0583,-4.0805,-4.0959,-4.1008,-4.1027,-4.0808,-4.0276,-4.0076,-3.9418,-3.8175,-3.7595,-3.7117,-3.6798,-3.5261,-3.4298,-3.3954,-3.2885,-3.2232,-3.1894,-3.1487,-3.0965,-3.0418,-2.9881,-2.9273,-2.8669,-2.8319,-2.7978,-2.761,-2.7233,-2.7093,-2.7041,-2.6884,-2.6779,-2.6779,-2.6779,-2.6419,-2.5678,-2.4532,-2.4035,-2.3767,-2.2997,-2.3038,-2.3146,-2.2481,-2.2101,-2.1817,-2.1505,-2.1423,-2.1423,-2.1423,-2.1423,-2.1375,-2.1326,-2.1277,-2.1229,-2.1131,-2.1059,-2.1023,-2.0951,-2.1088,-2.1184,-2.1119,-2.1616,-2.21,-2.24,-2.2662,-2.3054,-2.3642,-2.3707,-2.3825,-2.4099,-2.4112,-2.4112,-2.4112,-2.4112,-2.4112,-2.4112,-2.4112,-2.4112,-2.4112,-2.4112,-2.4112,-2.4112,-2.4112,-2.4112,-2.4125,-2.4426,-2.4583,-3.6777,-3.6217,-3.569,-3.5439,-3.558,-3.5799,-3.5799,0.0,0.0,0.0,0.0,0.0,0.0,-3.8571,0.0,0.0,0.0,0.0,-3.9867,-3.9889,-3.9935,-4.006,-4.0194,-4.0361,-4.0552,-4.0818,-4.1008,-4.0984,-4.0937,-4.0535,-3.966,-3.9488,-3.8802,-3.7479,-3.6596,-3.5885,-3.5367,-3.4742,-3.4032,-3.3291,-3.2737,-3.2284,-3.1984,-3.1691,-3.1257,-3.073,-3.0166,0.0,-2.9028,-2.8701,-2.8367,-2.7963,-2.761,-2.7378,-2.7187,-2.6879,-2.6628,-2.6489,-2.6489,-2.5972,-2.5052,-2.397,-2.3506,-2.3293,-2.246,-2.2219,-2.2169,-2.2169,-2.1803,-2.1423,-2.1423,-2.1423,-2.1423,-2.1423,-2.1423,-2.1423,-2.1423,-2.1423,-2.1375,-2.1229,-2.1229,-2.1144,-2.0987,-2.0938,-2.0838,-2.0762,-2.1118,-2.1407,-2.1498,-2.193,-2.2452,-2.3027,-2.3158,-2.342,-2.3942,-2.406,-2.4112,-2.4112,-2.4112,-2.4112,-2.4112,-2.4112,-2.4112,-2.4112,-2.4112,-2.4112,-2.4112,-2.4112,-2.4112,-2.4112,-2.4112,-2.4112,-3.8394,-3.8261,-3.7851,-3.6479,-3.6179,-3.6208,-3.6208,0.0,0.0,0.0,0.0,0.0,0.0,-3.8722,-3.8748,0.0,0.0,-3.9599,-3.9867,-3.9889,-3.9911,-3.9933,-4.0158,-4.0298,-4.0329,-4.0752,-4.0972,-4.091,-4.0409,-3.9976,-3.9695,-3.893,-3.7956,-3.6801,-3.6498,-3.5837,-3.4745,-3.4183,-3.3706,-3.3291,-3.2908,-3.2588,-3.2319,-3.1984,-3.1711,-3.1414,0.0,-3.0192,-2.9701,-2.9104,-2.8669,-2.8367,-2.7978,-2.73,-2.654,-2.6476,-2.5903,-2.5168,-2.5139,-2.4854,-2.4419,-2.3743,-2.3189,-2.2732,-2.2076,-2.1704,-2.1559,-2.1559,-2.1491,-2.1423,-2.1423,-2.1423,-2.1423,-2.1423,-2.1423,-2.1423,-2.1423,-2.1423,-2.1375,-2.1375,-2.1277,-2.118,-2.1144,-2.1023,-2.0888,-2.0888,-2.0841,-2.1013,-2.1446,-2.159,-2.1864,-2.2439,-2.2923,-2.325,-2.3341,-2.3825,-2.4112,-2.4112,-2.4112,-2.4112,-2.4112,-2.4112,-2.4112,-2.4112,-2.4112,-2.4112,-2.4112,-2.4112,-2.4112,-2.4112,-2.4112,-2.4112,-3.8913,-3.8695,-3.8394,-3.7631,-3.7461,-3.7461,-3.743,0.0,0.0,0.0,0.0,0.0,0.0,0.0,-3.8933,-3.9216,0.0,-3.9599,-3.9867,-3.9889,-3.9889,-3.9889,-4.0139,-4.03,-4.03,-4.0696,-4.0746,-4.0281,-4.0008,-3.9388,-3.8346,-3.7891,-3.715,-3.6098,-3.5883,-3.5302,-3.4225,-3.3765,-3.334,-3.2931,-3.2451,-3.1898,-3.1352,-3.0888,-3.0612,-3.0488,0.0,-2.9426,-2.9066,-2.8485,-2.8112,-2.785,-2.7334,-2.6872,-2.6426,-2.6001,-2.5664,-2.5381,-2.4761,-2.4502,-2.4291,-2.3511,-2.2969,-2.255,-2.1985,-2.1712,-2.1616,-2.1423,-2.1423,-2.1423,-2.1423,-2.1423,-2.1423,-2.1423,-2.1423,-2.1423,-2.1423,-2.1423,-2.1423,-2.1423,-2.1375,-2.1277,-2.1229,-2.1144,-2.1023,-2.0951,-2.0838,-2.0867,-2.1066,-2.1054,-2.1263,-2.1838,-2.2139,-2.2544,-2.3158,-2.3472,-2.3772,-2.4099,-2.4112,-2.4112,-2.4112,-2.4112,-2.4112,-2.4112,-2.4112,-2.4112,-2.4112,-2.4112,-2.4112,-2.4112,-2.4112,-2.4112,-3.9008,-3.87,-3.8478,-3.8401,-3.8415,-3.8478,-3.8415,0.0,0.0,0.0,0.0,0.0,0.0,-3.8789,0.0,-3.9338,-3.9458,-3.9599,-3.9867,-3.9889,-3.9889,-3.9889,-4.0101,-4.0189,-4.0032,-4.0352,-4.0226,-3.9429,-3.9266,-3.8594,-3.7194,-3.6928,-3.6372,-3.5398,-3.5183,-3.4609,-3.3632,-3.3296,-3.2882,-3.2353,-3.1797,-3.116,-3.0487,-2.9939,-2.9726,-2.9693,-2.9177,-2.8837,-2.854,-2.8024,-2.7737,-2.7541,-2.6879,-2.6479,-2.6176,-2.5379,-2.5228,-2.5334,-2.4552,-2.4298,-2.4209,-2.3511,-2.3038,-2.2646,-2.217,-2.1888,-2.1746,-2.1471,-2.1423,-2.1423,-2.1423,-2.1423,-2.1423,-2.1423,-2.1423,-2.1423,-2.1423,-2.1423,-2.1423,-2.1423,-2.1423,-2.1375,-2.1277,-2.118,-2.1095,-2.0924,-2.0888,-2.0825,-2.0699,-2.0699,-2.0882,-2.1263,-2.1433,-2.1917,-2.2936,-2.3145,-2.342,-2.3877,-2.4034,-2.4112,-2.4112,-2.4112,-2.4112,-2.4112,-2.4112,-2.4112,-2.4112,-2.4112,-2.4112,-2.4112,-2.4112,-2.4112,-3.9008,-3.87,-3.8478,-3.8322,-3.8336,0.0,-3.8382,-3.8382,0.0,-3.8415,0.0,0.0,0.0,-3.8478,-3.8718,-3.898,-3.9313,-3.9599,-3.9867,-3.9889,-3.9889,-3.9889,-4.002,-3.9871,-3.925,-3.9386,-3.9189,-3.8463,-3.7765,-3.7338,-3.7207,-3.644,-3.5588,-3.4703,-3.4477,-3.3867,-3.2801,-3.2699,-3.2316,-3.1672,-3.118,-3.0808,-3.0487,-3.0215,-3.0074,-3.0024,-2.9676,-2.9386,-2.909,-2.8389,-2.8135,-2.8157,-2.7348,-2.6459,-2.5459,-2.4475,-2.4134,-2.4119,-2.4073,-2.4016,-2.4,-2.3955,-2.3538,-2.2994,-2.2694,-2.2249,-2.1746,-2.1471,-2.1423,-2.1423,-2.1423,-2.1423,-2.1423,-2.1423,-2.1423,-2.1423,-2.1423,-2.1423,-2.1423,-2.1423,-2.1423,-2.1423,-2.1375,-2.118,-2.0997,-2.0997,-2.0848,-2.0699,-2.0699,-2.0699,-2.0725,-2.0764,-2.1198,-2.176,-2.2428,-2.291,-2.3237,-2.3276,-2.3812,-2.4112,-2.4112,-2.4112,-2.4112,-2.4112,-2.4112,-2.4112,-2.4112,-2.4112,-2.4112,-2.4112,-2.4112,-2.4112,-3.9171,-3.877,-3.8401,-3.8274,0.0,0.0,0.0,0.0,-3.8274,-3.8274,-3.8241,0.0,0.0,0.0,-3.8943,-3.9261,-3.9556,-3.9781,-3.9889,-3.9889,-3.9721,-3.921,-3.9259,-3.9069,-3.835,-3.8436,-3.8249,-3.7536,-3.7242,-3.6879,-3.6419,-3.5566,-3.4945,-3.4618,-3.3949,-3.3132,-3.2138,-3.1941,-3.1407,-3.0528,-3.0565,-3.0118,-2.926,-2.8973,-2.8759,-2.8614,-2.8456,-2.8282,-2.8058,-2.7555,-2.7169,-2.6784,-2.6062,-2.5647,-2.5409,-2.4601,-2.4441,-2.4605,-2.4359,-2.4333,-2.4333,-2.4333,-2.4024,-2.3625,-2.3334,-2.2844,-2.2374,-2.2406,-2.2142,-2.1793,-2.1471,-2.1423,-2.1471,-2.1793,-2.1664,-2.1471,-2.1841,-2.1664,-2.1423,-2.1423,-2.1664,-2.1902,-2.1902,-2.1746,-2.1616,-2.152,-2.1095,-2.0775,-2.0699,-2.0699,-2.0699,-2.0699,-2.1172,-2.159,-2.1812,-2.2361,-2.2831,-2.3197,-2.3785,-2.4112,-2.4112,-2.4112,-2.4112,-2.4112,-2.4112,-2.4112,-2.4112,-2.4112,-2.4112,-2.4112,-2.4112,-2.4112,-3.9282,-3.8868,-3.846,0.0,0.0,0.0,0.0,0.0,-3.8192,-3.8192,-3.8192,0.0,-3.8554,0.0,0.0,0.0,-3.9421,-3.9407,-3.951,-3.9202,-3.8801,-3.8338,-3.8364,-3.8137,-3.7439,-3.7452,-3.7257,-3.658,-3.6578,-3.6262,-3.55,-3.4912,-3.4355,-3.3832,-3.3165,-3.2368,-3.1426,-3.1226,-3.0737,-2.9965,-3.0152,-2.9675,-2.8646,-2.835,-2.8075,-2.7829,-2.7829,-2.7683,-2.7448,-2.7066,-2.6488,-2.5815,-2.561,-2.5535,-2.5427,-2.4997,-2.4974,-2.5107,-2.4766,-2.4661,-2.4661,-2.4661,-2.4441,-2.4109,-2.3782,-2.3319,-2.292,-2.295,-2.2694,-2.2356,-2.1969,-2.1874,-2.1969,-2.2356,-2.2123,-2.1969,-2.2356,-2.203,-2.1712,-2.1827,-2.203,-2.2231,-2.2402,-2.231,-2.2217,-2.2123,-2.1712,-2.1291,-2.1033,-2.0997,-2.0898,-2.0699,-2.1002,-2.1237,-2.1237,-2.176,-2.2256,-2.2648,-2.3237,-2.3733,-2.4099,-2.4112,-2.4112,-2.4112,-2.4112,-2.4112,-2.4112,-2.4112,-2.4112,-2.4112,-2.4112,-2.4112,-3.9364,-3.9008,-3.87,0.0,0.0,0.0,-3.8192,-3.8192,-3.8192,-3.8192,0.0,-3.8274,-3.8523,-3.8799,0.0,-3.9414,-3.8794,-3.838,-3.8639,-3.7713,-3.7099,-3.7351,-3.7371,-3.7109,-3.646,-3.6446,-3.6209,-3.5541,-3.5601,-3.5332,-3.4535,-3.4544,-3.3806,-3.2143,-3.2037,-3.1544,-3.0607,-3.0524,-3.037,-3.0109,-2.9981,-2.9589,-2.9003,-2.867,-2.835,-2.8084,-2.8084,-2.7936,-2.7654,-2.7129,-2.6334,-2.5615,-2.6401,-2.621,-2.5503,-2.5503,-2.5503,-2.5427,-2.5107,-2.5005,-2.5005,-2.5005,-2.4782,-2.4441,-2.4021,-2.3666,-2.3319,-2.3024,-2.2889,-2.2889,-2.2889,-2.2934,-2.2889,-2.2889,-2.2889,-2.2889,-2.2889,-2.254,-2.2356,-2.2799,-2.254,-2.2356,-2.2844,-2.2799,-2.2694,-2.2694,-2.2603,-2.2282,-2.1712,-2.1602,-2.1375,-2.0749,-2.0699,-2.0699,-2.0699,-2.1172,-2.1498,-2.1511,-2.2034,-2.2884,-2.406,-2.4112,-2.4112,-2.4112,-2.4112,-2.4112,-2.4112,-2.4112,-2.4112,-2.4112,-2.4112,-2.4112,-3.9535,-3.9156,0.0,-3.8368,0.0,0.0,0.0,-3.7933,0.0,0.0,-3.7967,-3.8044,-3.7544,-3.7692,0.0,-3.7248,-3.7184,-3.7187,-3.728,-3.7007,-3.6657,-3.6305,-3.6252,-3.6058,-3.5528,-3.5501,-3.5239,-3.4573,-3.4603,-3.4283,-3.3491,-3.3014,-3.255,-3.2107,-3.1431,-3.0946,-3.0676,-3.0605,-3.0453,-3.0251,-3.0163,-2.978,-2.9132,-2.8948,-2.8688,-2.8376,-2.8376,-2.8219,-2.7936,-2.7206,-2.6856,-2.6725,-2.6401,-2.6315,-2.6315,-2.6016,-2.5726,-2.5503,-2.5406,-2.5208,-2.5005,-2.5005,-2.4926,-2.4846,-2.471,-2.423,-2.3794,-2.4021,-2.3767,-2.3465,-2.3824,-2.3867,-2.3824,-2.3465,-2.3157,-2.2979,-2.3334,-2.3024,-2.2709,-2.2889,-2.3068,-2.3246,-2.3377,-2.3275,-2.3187,-2.3187,-2.2785,-2.242,-2.2235,-2.1921,-2.1664,-2.1375,-2.1059,-2.0775,-2.0712,-2.0856,-2.108,-2.1485,-2.1668,-2.2283,-2.3433,-2.3485,-2.3681,-2.4112,-2.4112,-2.4112,-2.4112,-2.4112,-2.4112,-2.4112,-2.4112,-2.4112,-3.9793,-3.949,0.0,-3.877,-3.8346,-3.7849,-3.7235,0.0,0.0,0.0,-3.728,-3.712,-3.6752,-3.6808,0.0,-3.6464,-3.6194,-3.6051,-3.6154,-3.5818,-3.5454,-3.5194,-3.5252,-3.5216,-3.4927,-3.4731,-3.4451,-3.4052,-3.3786,-3.333,-3.2551,-3.2147,-3.1812,-3.1587,-3.1035,-3.0728,-3.0707,-3.0667,-3.0564,-3.0414,-3.0294,-3.0009,-2.9586,-2.9338,-2.9064,-2.8759,-2.8585,-2.8402,-2.8166,-2.7554,-2.7272,-2.7213,-2.6741,-2.6624,-2.6657,-2.6436,-2.6158,-2.5944,-2.5799,-2.5519,-2.5208,-2.5208,-2.5107,-2.5005,-2.4926,-2.4574,-2.423,-2.4467,-2.4219,-2.3952,-2.4219,-2.4302,-2.4219,-2.3952,-2.3638,-2.3508,-2.3824,-2.3508,-2.3246,-2.3421,-2.3508,-2.3638,-2.3867,-2.3809,-2.3767,-2.3767,-2.3231,-2.2875,-2.2875,-2.2374,-2.1969,-2.1712,-2.1388,-2.1059,-2.0825,-2.0712,-2.0856,-2.1146,-2.1172,-2.159,-2.2505,-2.2753,-2.3158,-2.3746,-2.3759,-2.3877,-2.4112,-2.4112,-2.4112,-2.4112,-2.4112,-2.4112,-4.0128,0.0,0.0,-3.9327,-3.8404,0.0,-3.581,-3.6158,-3.6812,-3.6852,0.0,-3.5859,-3.6014,-3.6036,-3.6131,-3.6374,-3.5522,-3.4935,-3.518,-3.4363,-3.3868,-3.4124,-3.4363,-3.4539,-3.4561,-3.4131,-3.3813,-3.3756,-3.3077,-3.2372,-3.17,-3.1671,-3.1409,-3.0791,-3.0784,-3.0761,-3.0704,-3.071,-3.0682,-3.0614,-3.0434,-3.0287,-3.0222,-2.9817,-2.9476,-2.92,-2.8753,-2.8504,-2.8402,-2.8075,-2.766,-2.7265,-2.7341,-2.7087,-2.6758,-2.6758,-2.6725,-2.6657,-2.628,-2.5908,-2.554,-2.554,-2.5307,-2.5045,-2.4886,-2.4766,-2.4589,-2.4539,-2.44,-2.4317,-2.4302,-2.4302,-2.4302,-2.4302,-2.4302,-2.4302,-2.4302,-2.3952,-2.3782,-2.4219,-2.3952,-2.3824,-2.4219,-2.4302,-2.4302,-2.4302,-2.3809,-2.3493,-2.3493,-2.2965,-2.242,-2.1969,-2.1793,-2.152,-2.1023,-2.0861,-2.0799,-2.0749,-2.0699,-2.0948,-2.142,-2.2035,-2.2557,-2.3132,-2.3145,-2.3406,-2.3955,-2.3955,-2.3981,-2.4034,-2.4034,-2.406,-4.0475,-4.0213,0.0,0.0,-3.8495,-3.7349,-3.6321,-3.567,-3.5351,-3.5616,-3.575,-3.5602,-3.5042,-3.4933,-3.4745,-3.4196,-3.3913,-3.3775,-3.3814,-3.3629,-3.3577,-3.3842,-3.3947,-3.4049,-3.4269,-3.377,-3.3164,-3.2523,-3.1998,-3.1393,-3.0662,-3.0714,-3.0742,-3.0658,-3.0758,-3.0788,-3.0775,-3.0775,-3.0749,-3.0685,-3.0574,-3.049,-3.0424,-3.0013,-2.9715,-2.9494,-2.906,-2.8808,-2.8694,-2.835,-2.802,-2.7683,-2.7642,-2.7434,-2.7169,-2.7169,-2.6957,-2.6691,-2.6624,-2.6315,-2.598,-2.598,-2.5689,-2.5406,-2.5368,-2.5091,-2.4726,-2.4605,-2.4523,-2.4441,-2.4317,-2.4302,-2.4302,-2.4302,-2.4302,-2.4302,-2.4302,-2.4219,-2.4177,-2.4261,-2.4219,-2.4177,-2.4261,-2.4302,-2.4302,-2.4302,-2.4177,-2.4135,-2.4135,-2.3681,-2.3275,-2.3098,-2.2694,-2.2249,-2.1664,-2.1568,-2.1375,-2.0947,-2.0875,-2.0891,-2.1009,-2.1459,-2.1956,-2.2585,-2.2544,-2.2609,-2.2795,-2.2795,-2.2975,-2.3406,-2.3406,-2.3668,-4.0731,0.0,0.0,-3.8918,0.0,-3.7119,-3.5625,-3.4869,-3.4486,-3.4528,-3.4624,-3.4576,-3.4159,-3.4057,-3.39,-3.3465,-3.3393,-3.3393,-3.3393,-3.3393,-3.3452,-3.3605,-3.3726,-3.3842,-3.3998,-3.3111,-3.2369,-3.1939,-3.1073,-3.0392,-3.0079,-3.0266,-3.0453,-3.0548,-3.065,-3.0747,-3.0801,-3.0799,-3.0779,-3.0757,-3.0672,-3.0808,-3.1109,-3.0343,-2.9851,-2.9589,-2.9375,-2.9209,-2.9075,-2.8694,-2.8428,-2.821,-2.7869,-2.7659,-2.7465,-2.7345,-2.7186,-2.699,-2.699,-2.6725,-2.6401,-2.6401,-2.6139,-2.5762,-2.5577,-2.5307,-2.5029,-2.471,-2.4564,-2.4457,-2.4317,-2.4302,-2.4302,-2.4302,-2.4302,-2.4302,-2.4302,-2.4302,-2.4302,-2.4302,-2.4302,-2.4302,-2.4302,-2.4302,-2.4302,-2.4302,-2.4302,-2.4302,-2.4302,-2.4094,-2.3824,-2.345,-2.3143,-2.2603,-2.1746,-2.1664,-2.1375,-2.0898,-2.0812,-2.0775,-2.0775,-2.1,-2.1368,-2.1943,-2.1956,-2.2086,-2.2415,-2.2415,-2.2518,-2.2805,-2.2805,-2.2988,-4.0939,0.0,-4.0178,-3.8159,-3.7431,0.0,-3.4772,-3.4227,-3.408,-3.3842,-3.3643,-3.3538,-3.3538,-3.3481,-3.3422,-3.3422,-3.3422,-3.3393,-3.3393,-3.3393,-3.3393,-3.3393,-3.3605,-3.3671,-3.3524,-3.2385,-3.1566,-3.1436,-3.0277,-2.9644,-2.9801,-3.009,-3.0328,-3.0491,-3.0548,-3.0639,-3.0765,-3.0796,-3.0797,-3.0792,-3.0877,-3.13,-3.199,-3.1044,-3.0361,-2.9905,-2.9701,-2.9532,-2.9409,-2.9034,-2.8814,-2.8676,-2.8147,-2.7886,-2.7742,-2.7465,-2.7376,-2.7376,-2.733,-2.7072,-2.6808,-2.6808,-2.6539,-2.6139,-2.5799,-2.5577,-2.5329,-2.4958,-2.4751,-2.4605,-2.4467,-2.4426,-2.4385,-2.4317,-2.4302,-2.4302,-2.4302,-2.4302,-2.4302,-2.4302,-2.4302,-2.4302,-2.4302,-2.4302,-2.4302,-2.4302,-2.4302,-2.4302,-2.4302,-2.4302,-2.412,-2.3595,-2.345,-2.2995,-2.2016,-2.1827,-2.1506,-2.0947,-2.0848,-2.0799,-2.0762,-2.0699,-2.0935,-2.1355,-2.1368,-2.159,-2.2127,-2.2127,-2.2166,-2.2258,-2.2258,-2.2283,0.0,0.0,-3.9481,0.0,-3.7159,-3.6155,0.0,0.0,-3.4375,0.0,-3.3842,-3.3577,-3.3577,-3.3577,-3.3549,-3.3509,-3.3481,-3.3481,-3.3411,-3.3393,-3.3393,-3.3393,-3.3422,-3.3179,-3.2472,-3.177,-3.106,-3.0386,-2.9859,-2.9644,-2.9801,-3.0015,-3.0215,-3.0409,-3.0482,-3.0556,-3.062,-3.0735,-3.0804,-3.081,-3.1498,-3.2206,-3.2917,-3.2774,-3.2131,-3.11,-3.0034,-2.9589,-2.957,-2.9328,-2.9052,-2.8766,-2.8633,-2.8404,-2.8075,-2.7771,-2.7642,-2.763,-2.7376,-2.725,-2.7218,-2.7218,-2.6957,-2.6624,-2.6556,-2.6068,-2.554,-2.5742,-2.5481,-2.5075,-2.5013,-2.4918,-2.4719,-2.4385,-2.4302,-2.4302,-2.4302,-2.4302,-2.4302,-2.4302,-2.4302,-2.4302,-2.4302,-2.4302,-2.4302,-2.4302,-2.4302,-2.4302,-2.4302,-2.4302,-2.4261,-2.4177,-2.4162,-2.3894,-2.3231,-2.3128,-2.2694,-2.1698,-2.1568,-2.1291,-2.0888,-2.0762,-2.0738,-2.0817,-2.0817,-2.0856,-2.0935,-2.0935,-2.1197,-2.1629,-2.1629,-2.189,-4.1011,-4.0335,-3.9369,0.0,-3.7353,-3.6291,-3.5255,-3.4925,-3.4716,-3.4298,-3.4074,-3.3868,-3.3698,-3.3633,-3.3605,-3.3549,-3.3549,-3.352,-3.3481,-3.3452,-3.3452,-3.3393,-3.2995,-3.2596,-3.2234,-3.1129,-3.0316,-2.9951,-2.9517,-2.9355,-2.9514,-2.9784,-3.0026,-3.0228,-3.0378,-3.0482,-3.054,-3.0639,-3.0977,-3.1543,-3.2382,-3.3194,-3.3918,-3.3433,-3.2822,-3.2095,-3.1575,-3.1219,-3.0978,-3.0917,-3.0429,-2.9734,-2.9521,-2.9032,-2.843,-2.8065,-2.7829,-2.7672,-2.7569,-2.7421,-2.7299,-2.7299,-2.7186,-2.699,-2.6775,-2.647,-2.6104,-2.5668,-2.5556,-2.5443,-2.5075,-2.4958,-2.4879,-2.4679,-2.4451,-2.4302,-2.4302,-2.4302,-2.4302,-2.4302,-2.4302,-2.4302,-2.4302,-2.4302,-2.4302,-2.4302,-2.4302,-2.4302,-2.4302,-2.4302,-2.4276,-2.4234,-2.3967,-2.3681,-2.3319,-2.3054,-2.2694,-2.2203,-2.1888,-2.1616,-2.1388,-2.101,-2.0825,-2.0825,-2.0762,-2.0699,-2.0699,-2.0699,-2.083,-2.1028,-2.1028,-2.121,0.0,0.0,-3.9096,-3.8206,-3.7249,-3.6303,0.0,0.0,-3.5028,0.0,-3.4321,-3.4179,-3.3868,-3.3726,-3.3661,-3.3633,-3.3633,-3.3577,-3.3433,-3.3375,-3.3316,-3.3147,-3.2505,-3.1975,-3.1794,-3.0577,-2.9699,-2.95,-2.9186,-2.9071,-2.9228,-2.957,-2.9817,-3.0015,-3.0254,-3.0419,-3.0462,-3.0792,-3.1554,-3.2734,-3.3417,-3.4153,-3.4905,-3.4269,-3.3774,-3.3423,-3.2938,-3.2553,-3.2241,-3.2146,-3.1628,-3.0872,-3.0557,-2.9893,-2.9083,-2.8693,-2.8271,-2.7915,-2.7742,-2.7569,-2.739,-2.7313,-2.7299,-2.725,-2.694,-2.6775,-2.6539,-2.5924,-2.5852,-2.5852,-2.5389,-2.5237,-2.516,-2.4942,-2.4679,-2.441,-2.4302,-2.4302,-2.4302,-2.4302,-2.4302,-2.4302,-2.4302,-2.4302,-2.4302,-2.4302,-2.4302,-2.4302,-2.4302,-2.4302,-2.4276,-2.425,-2.3867,-2.358,-2.345,-2.3009,-2.2649,-2.2512,-2.2063,-2.1746,-2.1616,-2.1158,-2.0938,-2.0938,-2.0812,-2.0749,-2.0699,-2.0699,-2.0699,-2.0699,-2.0699,-2.0699,0.0,-3.9129,0.0,-3.7322,-3.6443,0.0,0.0,0.0,-3.5292,-3.4945,-3.4653,-3.442,-3.4203,-3.3972,-3.378,-3.3698,-3.3698,-3.3559,-3.3178,-3.3086,-3.288,-3.2486,-3.1973,-3.135,-3.0672,-3.0116,-2.9481,-2.8739,-2.8858,-2.9003,-2.9026,-2.9395,-2.9662,-2.9817,-3.0133,-3.0343,-3.0409,-3.143,-3.2779,-3.4468,-3.4588,-3.5054,-3.5822,-3.5795,-3.5675,-3.5438,-3.36,-3.2749,-3.2638,-3.226,-3.2068,-3.1991,-3.1663,-3.102,-3.0259,-2.9872,-2.9202,-2.8474,-2.7886,-2.7701,-2.7659,-2.739,-2.7299,-2.7299,-2.7299,-2.699,-2.6775,-2.7105,-2.6775,-2.6349,-2.6332,-2.6175,-2.5835,-2.5098,-2.4863,-2.4744,-2.4385,-2.4302,-2.4302,-2.4302,-2.4302,-2.4302,-2.4302,-2.4302,-2.4302,-2.4302,-2.4302,-2.4302,-2.4302,-2.4302,-2.4302,-2.4317,-2.4261,-2.4234,-2.4166,-2.3653,-2.3098,-2.2558,-2.2063,-2.1568,-2.1033,-2.0997,-2.0997,-2.0997,-2.0997,-2.0898,-2.0699,-2.0699,-2.0699,-2.0699,-2.0699,-2.0699,0.0,0.0,0.0,-3.7226,-3.6431,-3.5812,-3.5573,-3.5527,-3.5399,-3.5,-3.4812,-3.4651,-3.4269,-3.3972,-3.3788,-3.378,-3.3597,-3.3397,-3.319,-3.2912,-3.2492,-3.1764,-3.1023,-3.0278,-2.9536,-2.8858,-2.8413,-2.8291,-2.8386,-2.859,-2.898,-2.9251,-2.9494,-2.9681,-3.0,-3.0509,-3.1226,-3.2807,-3.3665,-3.3774,-3.4354,-3.4529,-3.4292,-3.4305,-3.4241,-3.4116,-3.342,-3.3606,-3.4347,-3.4173,-3.3564,-3.2774,-3.2642,-3.1955,-3.1004,-3.032,-2.9762,-2.9282,-2.8532,-2.8027,-2.7672,-2.76,-2.7452,-2.7299,-2.7299,-2.7218,-2.7023,-2.6858,-2.6808,-2.6725,-2.64,-2.6227,-2.5908,-2.5082,-2.4902,-2.4799,-2.4385,-2.4302,-2.4302,-2.4302,-2.4302,-2.4302,-2.4302,-2.4302,-2.4302,-2.4302,-2.4302,-2.4302,-2.4302,-2.4302,-2.4302,-2.4302,-2.4036,-2.3952,-2.4234,-2.3824,-2.3465,-2.3231,-2.2754,-2.2296,-2.1793,-2.1375,-2.1131,-2.1131,-2.1033,-2.0947,-2.0898,-2.0898,-2.0898,-2.0898,-2.0898,-2.0898,-3.9178,0.0,0.0,0.0,0.0,-3.5799,-3.5665,-3.5624,-3.5553,-3.5189,-3.5051,-3.487,-3.4572,-3.4184,-3.3895,-3.3815,-3.3522,-3.3262,-3.3081,-3.2503,-3.1788,-3.106,-3.0099,-2.926,-2.8739,-2.808,-2.7771,-2.7936,-2.8047,-2.8264,-2.8682,-2.9012,-2.9467,-3.0057,-3.0399,-3.1199,-3.2536,-3.3838,-3.4236,-3.3718,-3.4312,-3.4185,-3.3398,-3.3396,-3.3385,-3.3324,-3.3312,-3.3771,-3.452,-3.441,-3.3817,-3.2995,-3.2791,-3.2255,-3.1523,-3.0846,-3.0332,-2.9828,-2.9225,-2.8559,-2.7971,-2.7789,-2.7569,-2.7421,-2.7313,-2.7299,-2.7218,-2.6858,-2.6908,-2.6957,-2.6657,-2.6367,-2.6033,-2.5427,-2.5098,-2.4839,-2.4574,-2.4385,-2.4302,-2.4302,-2.4302,-2.4302,-2.4302,-2.4302,-2.4302,-2.4302,-2.4302,-2.4302,-2.4302,-2.4302,-2.4302,-2.4302,-2.4036,-2.3952,-2.4261,-2.3867,-2.3508,-2.3377,-2.2934,-2.2434,-2.1949,-2.152,-2.1277,-2.1277,-2.118,-2.1131,-2.1131,-2.1033,-2.0997,-2.0997,-2.0997,-2.0997,0.0,0.0,0.0,0.0,0.0,0.0,-3.5695,0.0,-3.5683,-3.5611,-3.5334,-3.5111,-3.5095,-3.4636,-3.413,-3.3868,-3.3522,-3.3184,-3.284,-3.178,-3.0855,-3.0413,-2.9214,-2.8382,-2.8282,-2.791,-2.7672,-2.7701,-2.7954,-2.8102,-2.8102,-2.87,-2.9662,-3.0956,-3.1359,-3.2417,-3.418,-3.4391,-3.4478,-3.4466,-3.451,-3.4103,-3.3311,-3.3339,-3.3332,-3.3326,-3.3262,-3.3109,-3.2928,-3.2774,-3.2661,-3.254,-3.2107,-3.1859,-3.1771,-3.147,-3.087,-3.0143,-2.9857,-2.9272,-2.85,-2.7915,-2.7713,-2.7642,-2.739,-2.733,-2.7299,-2.7299,-2.7201,-2.7103,-2.7103,-2.6691,-2.6279,-2.6139,-2.5503,-2.4942,-2.4902,-2.4599,-2.4302,-2.4302,-2.4302,-2.4302,-2.4302,-2.4302,-2.4302,-2.4302,-2.4302,-2.4302,-2.4302,-2.4302,-2.4302,-2.4302,-2.4302,-2.4302,-2.4302,-2.3867,-2.3421,-2.2934,-2.2495,-2.1983,-2.1471,-2.1423,-2.1423,-2.1423,-2.1423,-2.1423,-2.1423,-2.1131,-2.0997,-2.0997,-2.0997,-2.1033,-3.8185,0.0,0.0,0.0,0.0,0.0,-3.5638,0.0,-3.5689,-3.5612,-3.5541,-3.5386,-3.5134,-3.4964,-3.4756,-3.4423,-3.3768,-3.3045,-3.2408,-3.176,-3.0818,-2.934,-2.8754,-2.8236,-2.7636,-2.7319,-2.7293,0.0,-2.7771,-2.7897,-2.8102,-2.9368,-3.0406,-3.1121,-3.2499,-3.3517,-3.4112,-3.4236,-3.4042,-3.3557,-3.2989,-3.2303,-3.1514,-3.1562,-3.1595,-3.1591,-3.1516,-3.1421,-3.1424,-3.2474,-3.28,-3.2579,-3.24,-3.2127,-3.1697,-3.101,-3.0517,-3.0094,-2.9436,-2.8949,-2.8576,-2.8422,-2.8055,-2.7701,-2.763,-2.7434,-2.7299,-2.7299,-2.7201,-2.707,-2.6975,-2.6842,-2.6623,-2.621,-2.5908,-2.5689,-2.5389,-2.502,-2.4639,-2.4343,-2.4302,-2.4302,-2.4302,-2.4302,-2.4302,-2.4302,-2.4302,-2.4302,-2.4302,-2.4302,-2.4302,-2.4302,-2.4302,-2.4302,-2.4302,-2.4177,-2.3909,-2.3421,-2.329,-2.2965,-2.2526,-2.217,-2.1996,-2.1996,-2.1616,-2.1423,-2.1423,-2.1326,-2.1277,-2.1277,-2.1277,-2.152,0.0,0.0,0.0,-3.5787,0.0,0.0,-3.5641,-3.5672,-3.57,0.0,-3.5678,-3.5577,-3.5385,-3.5248,-3.4962,-3.4404,-3.3801,-3.313,-3.2374,-3.1351,-3.0249,-2.9004,-2.8434,-2.7975,-2.7582,-2.7166,-2.7087,-2.7504,-2.7624,-2.8067,-2.8915,-2.9941,-3.0988,-3.2071,-3.3289,-3.412,-3.4606,-3.432,-3.3859,-3.3149,-3.2343,-3.1544,-3.0757,-3.0838,-3.0877,-3.0907,-3.0823,-3.0771,-3.081,-3.1689,-3.1923,-3.1712,-3.1531,-3.15,-3.1445,-3.0751,-3.0428,-3.0259,-2.9682,-2.9179,-2.8743,-2.8644,-2.8352,-2.8027,-2.7789,-2.76,-2.7434,-2.7313,-2.7233,-2.7152,-2.704,-2.699,-2.6892,-2.6521,-2.6297,-2.6104,-2.5799,-2.5427,-2.502,-2.4639,-2.441,-2.4302,-2.4302,-2.4302,-2.4302,-2.4302,-2.4302,-2.4302,-2.4302,-2.4302,-2.4302,-2.4302,-2.4302,-2.4302,-2.4302,-2.4302,-2.4094,-2.3638,-2.3595,-2.3377,-2.2934,-2.2632,-2.2402,-2.2184,-2.1902,-2.1616,-2.1423,-2.1423,-2.1423,-2.1423,-2.1423,-2.1568,0.0,0.0,0.0,-3.5624,-3.53,0.0,-3.5581,-3.5621,-3.5691,0.0,-3.568,-3.5546,-3.5545,-3.5242,-3.4706,-3.3934,-3.3526,-3.3087,-3.2445,-3.0844,-2.96,-2.9137,-2.8275,-2.7811,-2.7954,-2.74,-2.7103,-2.7334,-2.7635,-2.852,-3.0094,-3.058,-3.1582,-3.3347,-3.3788,-3.4372,-3.5147,-3.4422,-3.3677,-3.2957,-3.2139,-3.1391,-3.0696,-3.0767,-3.082,-3.0891,-3.0823,-3.0801,-3.0799,-3.0728,-3.0633,-3.0472,-3.0177,-3.0449,-3.1004,-3.0558,-3.0389,-3.0346,-3.0134,-2.9604,-2.897,-2.8718,-2.8626,-2.85,-2.7971,-2.7742,-2.7642,-2.7359,-2.7282,-2.725,-2.7103,-2.7103,-2.7038,-2.6926,-2.6623,-2.6314,-2.6175,-2.5835,-2.5465,-2.5082,-2.4679,-2.4343,-2.4302,-2.4302,-2.4302,-2.4302,-2.4302,-2.4302,-2.4302,-2.4302,-2.4302,-2.4302,-2.4302,-2.4302,-2.4302,-2.4302,-2.412,-2.3681,-2.3681,-2.3465,-2.3068,-2.3024,-2.2754,-2.2356,-2.231,-2.2044,-2.1471,-2.1423,-2.1423,-2.1423,-2.1423,-2.1423,-3.7437,-3.7055,-3.6682,-3.507,-3.4756,0.0,-3.5082,-3.5215,-3.5379,0.0,-3.5092,-3.4567,-3.458,-3.3984,-3.3441,-3.3278,-3.2613,-3.193,-3.1367,-3.0921,-3.0203,-2.9082,-2.8767,-2.8597,-2.8396,-2.7971,-2.7695,-2.7678,-2.8293,-2.9091,-3.007,-3.1631,-3.2754,-3.3306,-3.4225,-3.4558,-3.4266,-3.3475,-3.2718,-3.2048,-3.1235,-3.0762,-3.0619,-3.0738,-3.0818,-3.082,-3.0811,-3.0801,-3.0799,-3.0728,-3.065,-3.0548,-3.0393,-3.0299,-3.0193,-2.9888,-2.9659,-2.9493,-2.9287,-2.9122,-2.8994,-2.8929,-2.8767,-2.8576,-2.8474,-2.8083,-2.7612,-2.7261,-2.7135,-2.7103,-2.7023,-2.6975,-2.6942,-2.6926,-2.6759,-2.6624,-2.659,-2.628,-2.5944,-2.5872,-2.5275,-2.4679,-2.4343,-2.4302,-2.4302,-2.4302,-2.4302,-2.4302,-2.4302,-2.4302,-2.4302,-2.4302,-2.4302,-2.4302,-2.4302,-2.4302,-2.4261,-2.4177,-2.4177,-2.412,-2.4036,-2.3638,-2.3421,-2.3334,-2.2934,-2.254,-2.2044,-2.1616,-2.1423,-2.1423,-2.1423,-2.1616,-3.7161,-3.6789,-3.6427,-3.4877,-3.4553,0.0,0.0,-3.4904,-3.4986,-3.5177,-3.4539,-3.399,-3.4087,-3.3465,-3.2835,-3.2512,-3.2089,-3.1558,-3.0843,-3.0599,-3.0213,-2.9439,-2.9079,-2.8893,-2.8897,-2.8316,-2.8142,-2.8561,-2.8912,-2.9761,-3.1268,-3.2269,-3.3138,-3.3904,-3.4463,-3.4491,-3.3945,-3.3202,-3.2449,-3.1736,-3.0974,-3.0595,-3.0607,-3.07,-3.0762,-3.0799,-3.0798,-3.0808,-3.0799,-3.0765,-3.0682,-3.0586,-3.0453,-3.029,-3.0118,-2.9853,-2.9626,-2.9415,-2.9228,-2.9071,-2.8994,-2.8994,-2.8905,-2.8767,-2.8626,-2.8165,-2.7642,-2.731,-2.7152,-2.7103,-2.7055,-2.7007,-2.6959,-2.6926,-2.6842,-2.6792,-2.6691,-2.6539,-2.635,-2.6139,-2.5762,-2.5313,-2.4719,-2.4599,-2.4533,-2.4343,-2.4302,-2.4302,-2.4302,-2.4302,-2.4302,-2.4302,-2.4302,-2.4302,-2.4302,-2.4302,-2.4302,-2.4302,-2.4302,-2.4219,-2.3952,-2.3952,-2.3724,-2.3246,-2.2526,-2.203,-2.1793,-2.1793,-2.1664,-2.1423,-2.1423,-2.1568,-3.6952,-3.6544,-3.6189,-3.4717,-3.4353,-3.4401,0.0,0.0,0.0,-3.4528,-3.388,-3.3323,-3.3333,-3.2724,-3.2108,-3.1787,0.0,0.0,0.0,-3.0417,0.0,-2.9874,-2.942,-2.9184,-2.9336,-2.8755,-2.8684,-2.9457,-2.9651,-3.0584,-3.2426,-3.2698,-3.334,-3.4413,-3.437,-3.4109,-3.3587,-3.2879,-3.2166,-3.1438,-3.0858,-3.0586,-3.0591,-3.0664,-3.0728,-3.0771,-3.0781,-3.0796,-3.0806,-3.0801,-3.0724,-3.0607,-3.0481,-3.0378,-3.0266,-3.0,-2.9769,-2.957,-2.9375,-2.9181,-2.8994,-2.8994,-2.8994,-2.8952,-2.8694,-2.8219,-2.773,-2.7452,-2.7215,-2.7103,-2.7103,-2.7055,-2.6992,-2.6926,-2.6893,-2.6842,-2.6742,-2.6691,-2.6607,-2.628,-2.621,-2.5944,-2.5044,-2.4902,-2.4744,-2.4343,-2.4302,-2.4302,-2.4302,-2.4302,-2.4302,-2.4302,-2.4302,-2.4302,-2.4302,-2.4302,-2.4302,-2.4302,-2.4302,-2.4135,-2.3739,-2.3994,-2.3782,-2.2934,-2.2109,-2.165,-2.1568,-2.1996,-2.1996,-2.1568,-2.1568,-2.1568,-3.6754,-3.6342,-3.5937,-3.4211,-3.3842,-3.3928,-3.413,0.0,-3.4097,-3.3571,0.0,-3.209,-3.1443,0.0,0.0,-3.1295,-3.0849,-3.069,-3.1526,-3.0958,-3.0352,-3.0107,-2.9999,-2.987,-2.9589,-2.9568,-2.9675,-2.9823,-3.0823,-3.1655,-3.2208,-3.314,-3.3723,-3.3895,-3.3612,-3.3105,-3.241,-3.1841,-3.1216,-3.0552,-3.0466,-3.0481,-3.0597,-3.0678,-3.0691,-3.0711,-3.0779,-3.0799,-3.0798,-3.0808,-3.0762,-3.0672,-3.0605,-3.0462,-3.0266,-2.9992,-2.9765,-2.957,-2.9375,-2.9181,-2.8994,-2.8994,-2.8994,-2.8952,-2.8694,-2.8334,-2.7992,-2.7654,-2.7338,-2.7103,-2.7103,-2.699,-2.6926,-2.6992,-2.6859,-2.6742,-2.6691,-2.6691,-2.6691,-2.6657,-2.6624,-2.6245,-2.5082,-2.4902,-2.4744,-2.4343,-2.4302,-2.4302,-2.4302,-2.4302,-2.4302,-2.4302,-2.4302,-2.4302,-2.4302,-2.4302,-2.4302,-2.4302,-2.4302,-2.4261,-2.4219,-2.3867,-2.3421,-2.2889,-2.2799,-2.2526,-2.2137,-2.2184,-2.2184,-2.2137,-2.2137,-2.2137,-3.6743,-3.6303,-3.5899,-3.4147,-3.3726,-3.3753,-3.3807,-3.3868,-3.3725,-3.2976,0.0,0.0,0.0,0.0,0.0,0.0,-3.0094,-3.0286,-3.136,0.0,-3.0849,-3.0394,-3.0227,0.0,-3.0404,-3.0704,-3.1131,-3.1718,-3.2052,-3.2548,-3.3309,-3.3788,-3.4099,-3.4269,-3.3649,-3.2993,-3.2315,-3.1752,-3.109,-3.0336,-3.0458,-3.055,-3.0598,-3.0664,-3.0703,-3.0691,-3.0771,-3.0801,-3.0799,-3.0808,-3.0765,-3.0706,-3.0675,-3.0532,-3.0333,-3.0136,-2.995,-2.9753,-2.9533,-2.9334,-2.9141,-2.9044,-2.8994,-2.8952,-2.8694,-2.8482,-2.8281,-2.78,-2.7522,-2.7338,-2.7149,-2.7023,-2.6959,-2.6942,-2.6876,-2.6792,-2.6742,-2.6691,-2.6691,-2.6691,-2.6691,-2.6385,-2.5427,-2.5237,-2.5121,-2.4719,-2.4451,-2.4302,-2.4302,-2.4302,-2.4302,-2.4302,-2.4302,-2.4302,-2.4302,-2.4302,-2.4302,-2.4302,-2.4036,-2.4036,-2.4302,-2.3595,-2.3113,-2.2889,-2.2632,-2.2263,-2.1746,-2.2044,-2.2184,-2.2184,-2.1888,-2.1746,-3.6743,-3.6303,-3.5899,-3.4147,-3.3726,-3.3698,-3.3643,-3.3587,-3.3277,-3.2274,-3.1555,0.0,0.0,0.0,-2.9243,-2.9676,0.0,-3.0277,-3.1363,-3.1615,-3.1564,-3.1205,-3.104,0.0,0.0,-3.1955,-3.2502,-3.3112,-3.3078,-3.3377,-3.416,-3.4197,-3.4181,-3.4136,-3.3377,-3.2653,-3.1976,-3.1359,-3.08,-3.0292,-3.0455,-3.0559,-3.0598,-3.0673,-3.0698,-3.0695,-3.076,-3.08,-3.08,-3.081,-3.0768,-3.0724,-3.0706,-3.06,-3.0414,-3.0309,-3.0114,-2.9869,-2.9681,-2.9435,-2.9185,-2.9044,-2.8994,-2.8952,-2.8767,-2.8669,-2.85,-2.7971,-2.7713,-2.7552,-2.723,-2.7087,-2.7007,-2.6975,-2.6942,-2.6909,-2.6808,-2.6775,-2.6742,-2.6742,-2.6742,-2.647,-2.5799,-2.5577,-2.5351,-2.4942,-2.4574,-2.4343,-2.4451,-2.4385,-2.4302,-2.4302,-2.4302,-2.4302,-2.4302,-2.4302,-2.4302,-2.4302,-2.3994,-2.3824,-2.3909,-2.3377,-2.2979,-2.2709,-2.2495,-2.2123,-2.1616,-2.2123,-2.2263,-2.1996,-2.1746,-2.1616,0.0,0.0,-3.5899,-3.4147,-3.3753,-3.378,-3.3726,-3.3437,-3.278,-3.1273,-3.0621,-2.987,-2.8358,-2.8396,-2.8943,-2.9921,-3.0294,0.0,0.0,-3.2312,-3.2545,-3.2791,-3.2828,-3.2791,0.0,-3.3283,-3.3536,-3.3318,-3.3818,-3.4152,-3.4197,-3.4197,-3.3826,-3.2966,-3.2409,-3.1728,-3.0845,-3.0258,-3.0068,-3.0292,-3.0312,-3.0421,-3.0598,-3.0673,-3.0697,-3.0704,-3.0774,-3.0797,-3.0798,-3.0793,-3.0799,-3.0796,-3.0735,-3.0626,-3.0485,-3.0424,-3.0177,-2.988,-2.9662,-2.9353,-2.9017,-2.9017,-2.8994,-2.8994,-2.8994,-2.881,-2.8525,-2.8183,-2.7897,-2.7642,-2.7359,-2.7201,-2.7103,-2.7103,-2.7055,-2.6992,-2.6975,-2.6942,-2.6893,-2.6893,-2.6792,-2.659,-2.6175,-2.5762,-2.5351,-2.4942,-2.4574,-2.4451,-2.4823,-2.4533,-2.4302,-2.4302,-2.4302,-2.4302,-2.4302,-2.4302,-2.4302,-2.4302,-2.4317,-2.3867,-2.2979,-2.3334,-2.3157,-2.2217,-2.2663,-2.2678,-2.2184,-2.2678,-2.2388,-2.1423,-2.1949,-2.2184,0.0,0.0,-3.5899,-3.4147,0.0,0.0,-3.325,-3.2988,-3.2321,-3.0724,-3.0308,-2.9751,-2.8209,-2.8492,-2.9042,-2.9313,-3.016,-3.1126,0.0,-3.3163,-3.3954,-3.4318,-3.412,-3.3937,-3.3868,-3.441,-3.4719,-3.463,-3.4604,-3.4658,-3.4713,-3.4691,-3.4275,-3.3465,-3.2694,-3.1901,-3.107,-3.0389,-3.0123,-3.0292,-3.0336,-3.0447,-3.0598,-3.0673,-3.069,-3.0704,-3.0774,-3.0797,-3.0798,-3.0793,-3.0801,-3.0799,-3.0771,-3.0689,-3.056,-3.0441,-3.0267,-3.0045,-2.9716,-2.9415,-2.9181,-2.9044,-2.8994,-2.8994,-2.8994,-2.8929,-2.8767,-2.8237,-2.8047,-2.7869,-2.7421,-2.7282,-2.7201,-2.7135,-2.707,-2.7055,-2.7007,-2.6992,-2.6942,-2.6926,-2.6842,-2.6691,-2.6175,-2.598,-2.5689,-2.502,-2.4574,-2.4343,-2.4492,-2.4369,-2.4302,-2.4302,-2.4302,-2.4302,-2.4302,-2.4302,-2.4302,-2.4302,-2.4302,-2.4177,-2.3824,-2.3681,-2.329,-2.2678,-2.2495,-2.217,-2.1664,-2.1841,-2.1746,-2.1423,-2.1616,-2.1664,-3.6743,-3.6303,0.0,-3.4174,-3.3569,0.0,-3.3142,-3.2616,-3.1792,-3.0451,-2.9787,-2.9183,-2.8481,-2.8635,-2.9029,-2.9384,-3.038,-3.1516,0.0,-3.3722,-3.4559,-3.5021,-3.4884,-3.4788,-3.4858,-3.5235,-3.5465,-3.5452,-3.5196,-3.5059,-3.507,-3.5035,-3.4469,-3.3278,-3.2691,-3.1857,-3.0758,-3.0269,-3.0123,-3.0292,-3.0336,-3.0447,-3.0598,-3.0637,-3.0676,-3.0704,-3.0768,-3.0795,-3.0798,-3.0793,-3.0801,-3.0799,-3.0804,-3.0716,-3.0591,-3.0482,-3.0299,-3.0049,-2.9716,-2.9474,-2.927,-2.9067,-2.8994,-2.8994,-2.8994,-2.8994,-2.8905,-2.8412,-2.8183,-2.7992,-2.7539,-2.7327,-2.7233,-2.7184,-2.7135,-2.7103,-2.7105,-2.7057,-2.6992,-2.6942,-2.6876,-2.6674,-2.6175,-2.6104,-2.5872,-2.5198,-2.4744,-2.4533,-2.4533,-2.4385,-2.4302,-2.4302,-2.4302,-2.4302,-2.4302,-2.4302,-2.4302,-2.4302,-2.4302,-2.4219,-2.4051,-2.3909,-2.3638,-2.3157,-2.2844,-2.2434,-2.1921,-2.1921,-2.1746,-2.1423,-2.1616,-2.1568]},{"header":{"parameterUnit":"m.s-1","parameterCategory":1,"la1":30.6,"la2":29.2853,"lo1":-89.7004,"lo2":-87.6739,"dy":0.0162,"dx":0.0183,"nx":112,"ny":82,"refTime":"2023-06-20T06:00:00:Z","depth":0,"parameterNumber":3,"parameterNumberName":"V-component_of_WINDS"},"data":[0.0,0.0,0.0,0.0,0.0,0.0,0.0,0.0,0.0,0.0,0.0,0.0,0.0,0.0,0.0,0.0,0.0,0.0,0.0,0.0,0.0,0.0,0.0,0.0,0.0,0.0,0.0,0.0,0.0,0.0,0.0,0.0,0.0,0.0,0.0,0.0,0.0,0.0,0.0,0.0,0.0,0.0,0.0,0.0,0.0,0.0,0.0,0.0,0.0,0.0,0.0,0.0,0.0,0.0,0.0,0.0,0.0,0.0,0.0,0.0,0.0,0.0,0.0,0.0,0.0,0.0,0.0,0.0,0.0,0.0,0.0,0.0,0.0,0.0,0.0,0.0,0.0,0.0,0.0,0.0,0.0,0.0,0.0,0.0,0.0,0.0,0.0,0.0,0.0,0.0,-2.0566,-2.0566,-2.0566,-2.0323,-1.9539,-2.0167,-2.0566,-2.0566,0.0,0.0,0.0,0.0,0.0,0.0,0.0,0.0,0.0,0.0,0.0,0.0,0.0,0.0,0.0,0.0,0.0,0.0,0.0,0.0,0.0,0.0,0.0,0.0,0.0,0.0,0.0,0.0,0.0,0.0,0.0,0.0,0.0,0.0,0.0,0.0,0.0,0.0,0.0,0.0,0.0,0.0,0.0,0.0,0.0,0.0,0.0,0.0,0.0,0.0,0.0,0.0,0.0,0.0,0.0,0.0,0.0,0.0,0.0,0.0,0.0,0.0,0.0,0.0,0.0,0.0,0.0,0.0,0.0,0.0,0.0,0.0,0.0,0.0,0.0,0.0,0.0,0.0,0.0,0.0,0.0,0.0,0.0,0.0,0.0,0.0,0.0,0.0,0.0,0.0,0.0,0.0,0.0,0.0,0.0,0.0,0.0,0.0,0.0,0.0,0.0,0.0,0.0,0.0,-2.0566,-2.0566,-2.0566,-2.0566,-2.0401,-2.0489,-2.0566,-2.0566,0.0,0.0,0.0,0.0,0.0,0.0,0.0,0.0,0.0,0.0,0.0,0.0,0.0,0.0,0.0,0.0,0.0,0.0,0.0,0.0,0.0,0.0,0.0,0.0,0.0,0.0,0.0,0.0,0.0,0.0,0.0,0.0,0.0,0.0,0.0,0.0,0.0,0.0,0.0,0.0,0.0,0.0,0.0,0.0,0.0,0.0,0.0,0.0,0.0,0.0,0.0,0.0,0.0,0.0,0.0,0.0,0.0,0.0,0.0,0.0,0.0,0.0,0.0,0.0,0.0,0.0,0.0,0.0,0.0,0.0,0.0,0.0,0.0,0.0,0.0,0.0,0.0,0.0,0.0,0.0,0.0,0.0,0.0,0.0,0.0,0.0,0.0,0.0,0.0,0.0,0.0,0.0,0.0,0.0,0.0,0.0,0.0,0.0,0.0,0.0,0.0,0.0,0.0,-2.0566,-2.0566,-2.0566,-2.0566,-2.0566,-2.0566,-2.0566,-2.0566,-2.0566,-2.1756,0.0,0.0,0.0,0.0,0.0,0.0,0.0,0.0,0.0,0.0,0.0,0.0,0.0,0.0,0.0,0.0,0.0,0.0,0.0,0.0,0.0,0.0,0.0,0.0,0.0,0.0,0.0,0.0,0.0,0.0,0.0,0.0,0.0,0.0,0.0,0.0,0.0,0.0,0.0,0.0,0.0,0.0,0.0,0.0,0.0,0.0,0.0,0.0,0.0,0.0,0.0,0.0,0.0,0.0,0.0,0.0,0.0,0.0,0.0,0.0,0.0,0.0,0.0,0.0,0.0,0.0,0.0,0.0,0.0,0.0,0.0,0.0,0.0,0.0,0.0,0.0,0.0,0.0,0.0,0.0,0.0,0.0,0.0,0.0,0.0,0.0,0.0,0.0,0.0,0.0,0.0,0.0,0.0,0.0,0.0,0.0,0.0,0.0,0.0,0.0,0.0,0.0,-2.0566,-2.0566,-2.0566,-2.0566,-2.0566,-2.0566,-2.0566,-2.0644,-2.0867,-2.2209,0.0,0.0,0.0,0.0,0.0,0.0,0.0,0.0,0.0,0.0,0.0,0.0,0.0,0.0,0.0,0.0,0.0,0.0,0.0,0.0,0.0,0.0,0.0,0.0,0.0,0.0,0.0,0.0,0.0,0.0,0.0,0.0,0.0,0.0,0.0,0.0,0.0,0.0,0.0,0.0,0.0,0.0,0.0,0.0,0.0,0.0,0.0,0.0,0.0,0.0,0.0,0.0,0.0,0.0,0.0,0.0,0.0,0.0,0.0,0.0,0.0,0.0,0.0,0.0,0.0,0.0,0.0,0.0,0.0,0.0,0.0,0.0,0.0,0.0,0.0,0.0,0.0,0.0,0.0,0.0,0.0,0.0,0.0,0.0,0.0,0.0,0.0,0.0,0.0,0.0,0.0,0.0,0.0,0.0,0.0,0.0,0.0,0.0,0.0,0.0,0.0,0.0,-2.0566,-2.0566,-2.0566,-2.0566,-2.0566,-2.0566,-2.0566,-2.0944,-2.169,-2.251,0.0,0.0,0.0,0.0,0.0,0.0,0.0,0.0,0.0,0.0,0.0,0.0,0.0,0.0,0.0,0.0,0.0,0.0,0.0,0.0,0.0,0.0,0.0,0.0,0.0,0.0,0.0,0.0,0.0,0.0,0.0,0.0,0.0,0.0,0.0,0.0,0.0,0.0,0.0,0.0,0.0,0.0,0.0,0.0,0.0,0.0,0.0,0.0,0.0,0.0,0.0,0.0,0.0,0.0,0.0,0.0,0.0,0.0,0.0,0.0,0.0,0.0,0.0,0.0,0.0,0.0,0.0,0.0,0.0,0.0,0.0,0.0,0.0,0.0,0.0,0.0,0.0,0.0,0.0,0.0,0.0,0.0,0.0,0.0,0.0,0.0,0.0,0.0,0.0,0.0,0.0,0.0,0.0,0.0,0.0,0.0,0.0,0.0,0.0,0.0,0.0,0.0,-2.0566,-2.0566,-2.0566,-2.0566,-2.0566,-2.0566,-2.0566,-2.0944,-2.1756,0.0,0.0,0.0,0.0,0.0,0.0,0.0,0.0,0.0,0.0,0.0,0.0,0.0,0.0,0.0,0.0,0.0,0.0,0.0,0.0,0.0,0.0,0.0,0.0,0.0,0.0,0.0,0.0,0.0,0.0,0.0,0.0,0.0,0.0,0.0,0.0,0.0,0.0,0.0,0.0,0.0,0.0,0.0,0.0,0.0,0.0,0.0,0.0,0.0,0.0,0.0,0.0,0.0,0.0,0.0,0.0,0.0,0.0,0.0,0.0,0.0,0.0,0.0,0.0,0.0,0.0,0.0,0.0,0.0,0.0,0.0,0.0,0.0,0.0,0.0,0.0,0.0,0.0,0.0,0.0,0.0,0.0,0.0,0.0,0.0,0.0,0.0,0.0,0.0,0.0,0.0,0.0,0.0,0.0,0.0,0.0,0.0,0.0,0.0,0.0,0.0,0.0,-2.0566,-2.0566,-2.0566,-2.0566,-2.0566,-2.0566,-2.0566,-2.0566,-2.1011,-2.2134,0.0,0.0,0.0,0.0,0.0,0.0,0.0,0.0,0.0,0.0,0.0,0.0,0.0,0.0,0.0,0.0,0.0,0.0,0.0,0.0,0.0,0.0,0.0,0.0,0.0,0.0,0.0,0.0,0.0,0.0,0.0,0.0,0.0,0.0,0.0,0.0,0.0,0.0,0.0,0.0,0.0,0.0,0.0,0.0,0.0,0.0,0.0,0.0,0.0,0.0,0.0,0.0,0.0,0.0,0.0,0.0,0.0,0.0,0.0,0.0,0.0,0.0,0.0,0.0,0.0,0.0,0.0,0.0,0.0,0.0,0.0,0.0,0.0,0.0,0.0,0.0,0.0,0.0,0.0,0.0,0.0,0.0,0.0,0.0,0.0,0.0,0.0,0.0,0.0,0.0,0.0,0.0,0.0,0.0,0.0,0.0,0.0,0.0,0.0,0.0,0.0,0.0,-2.0566,-2.0566,-2.0566,-2.0566,-2.0566,-2.0566,-2.0566,-2.0644,-2.1318,0.0,0.0,0.0,0.0,0.0,0.0,0.0,0.0,0.0,0.0,0.0,0.0,0.0,0.0,0.0,0.0,0.0,0.0,0.0,0.0,0.0,0.0,0.0,0.0,0.0,0.0,0.0,0.0,0.0,0.0,0.0,0.0,0.0,0.0,0.0,0.0,0.0,0.0,0.0,0.0,0.0,0.0,0.0,0.0,0.0,0.0,0.0,0.0,0.0,0.0,0.0,0.0,0.0,0.0,0.0,0.0,0.0,0.0,0.0,0.0,0.0,0.0,0.0,0.0,0.0,0.0,0.0,0.0,0.0,0.0,0.0,0.0,0.0,0.0,0.0,0.0,0.0,0.0,0.0,0.0,0.0,0.0,0.0,0.0,0.0,0.0,0.0,0.0,0.0,0.0,0.0,0.0,0.0,0.0,0.0,0.0,0.0,0.0,0.0,0.0,0.0,0.0,0.0,-2.0566,-2.0566,-2.0566,-2.0566,-2.0566,-2.0566,-2.0566,-2.1088,-2.1907,-2.3084,0.0,0.0,0.0,0.0,0.0,0.0,0.0,0.0,0.0,0.0,0.0,0.0,0.0,0.0,0.0,0.0,0.0,0.0,0.0,0.0,0.0,0.0,0.0,0.0,0.0,0.0,0.0,0.0,0.0,0.0,0.0,0.0,0.0,0.0,0.0,0.0,0.0,0.0,0.0,0.0,0.0,0.0,0.0,0.0,0.0,0.0,0.0,0.0,0.0,0.0,0.0,0.0,0.0,0.0,0.0,0.0,0.0,0.0,0.0,0.0,0.0,0.0,0.0,0.0,0.0,0.0,0.0,0.0,0.0,0.0,0.0,0.0,0.0,0.0,0.0,0.0,0.0,0.0,0.0,0.0,0.0,0.0,0.0,0.0,0.0,0.0,0.0,0.0,0.0,0.0,0.0,0.0,0.0,0.0,0.0,0.0,0.0,0.0,0.0,0.0,0.0,0.0,-2.0644,-2.0566,-2.0566,-2.0566,-2.0566,-2.0644,-2.0731,-2.1461,-2.2264,-2.3294,0.0,0.0,0.0,0.0,0.0,0.0,0.0,0.0,0.0,0.0,0.0,0.0,0.0,0.0,0.0,0.0,0.0,0.0,0.0,0.0,0.0,0.0,0.0,0.0,0.0,0.0,0.0,0.0,0.0,0.0,0.0,0.0,0.0,0.0,0.0,0.0,0.0,0.0,0.0,0.0,0.0,0.0,0.0,0.0,0.0,0.0,0.0,0.0,0.0,0.0,0.0,0.0,0.0,0.0,0.0,0.0,0.0,0.0,0.0,0.0,0.0,0.0,0.0,0.0,0.0,0.0,0.0,0.0,0.0,0.0,0.0,0.0,0.0,0.0,0.0,0.0,0.0,0.0,0.0,0.0,0.0,0.0,0.0,0.0,0.0,0.0,0.0,0.0,0.0,0.0,0.0,0.0,0.0,0.0,0.0,0.0,0.0,0.0,0.0,0.0,0.0,0.0,-2.0789,-2.0644,-2.0644,-2.0644,-2.0644,-2.0722,-2.1051,-2.168,-2.2553,-2.3599,0.0,0.0,0.0,0.0,0.0,0.0,0.0,0.0,0.0,0.0,0.0,0.0,0.0,0.0,0.0,0.0,0.0,0.0,0.0,0.0,0.0,0.0,0.0,0.0,0.0,0.0,0.0,0.0,0.0,0.0,0.0,0.0,0.0,0.0,0.0,0.0,0.0,0.0,0.0,0.0,0.0,0.0,0.0,0.0,0.0,0.0,0.0,0.0,0.0,0.0,0.0,0.0,0.0,0.0,0.0,0.0,0.0,0.0,0.0,0.0,-1.9469,-1.9557,0.0,0.0,0.0,0.0,0.0,0.0,0.0,0.0,0.0,0.0,0.0,0.0,0.0,0.0,0.0,0.0,0.0,0.0,0.0,0.0,0.0,0.0,0.0,0.0,0.0,0.0,0.0,0.0,0.0,0.0,0.0,0.0,0.0,0.0,0.0,0.0,0.0,0.0,0.0,0.0,-2.1461,-2.1108,-2.0829,-2.0829,-2.0974,-2.1349,-2.1993,-2.2787,-2.3599,-2.4636,-2.5465,0.0,0.0,0.0,0.0,0.0,0.0,0.0,0.0,0.0,0.0,0.0,0.0,0.0,0.0,0.0,0.0,0.0,0.0,0.0,0.0,0.0,0.0,0.0,0.0,0.0,0.0,0.0,0.0,0.0,0.0,0.0,0.0,0.0,0.0,0.0,0.0,0.0,0.0,0.0,0.0,0.0,0.0,0.0,0.0,0.0,0.0,0.0,0.0,0.0,0.0,0.0,0.0,0.0,0.0,0.0,0.0,0.0,0.0,0.0,-1.939,-1.9548,0.0,0.0,0.0,0.0,0.0,0.0,0.0,0.0,0.0,0.0,0.0,0.0,0.0,0.0,0.0,0.0,0.0,0.0,0.0,0.0,0.0,0.0,0.0,0.0,0.0,0.0,0.0,0.0,0.0,0.0,0.0,0.0,0.0,0.0,0.0,0.0,0.0,0.0,0.0,0.0,-2.1928,-2.1349,-2.1128,-2.1558,-2.1624,-2.1983,-2.3021,-2.3745,-2.448,-2.5087,-2.5898,0.0,0.0,0.0,0.0,0.0,0.0,0.0,0.0,0.0,0.0,0.0,0.0,0.0,0.0,0.0,0.0,0.0,0.0,0.0,0.0,0.0,0.0,0.0,0.0,0.0,0.0,0.0,0.0,0.0,0.0,0.0,0.0,0.0,0.0,0.0,0.0,0.0,0.0,0.0,0.0,0.0,0.0,0.0,0.0,0.0,0.0,0.0,0.0,0.0,0.0,0.0,0.0,0.0,-1.8487,-1.8975,-1.9301,-1.9301,-1.9301,-1.9301,-1.9301,-1.9539,-1.9863,-1.9863,0.0,0.0,0.0,0.0,0.0,0.0,0.0,0.0,0.0,0.0,0.0,0.0,0.0,0.0,0.0,0.0,0.0,0.0,0.0,0.0,0.0,0.0,-2.4492,-2.5158,-2.4707,-2.4108,-2.4108,0.0,0.0,0.0,0.0,0.0,0.0,0.0,0.0,0.0,0.0,0.0,-2.2392,-2.1645,-2.1558,-2.2499,-2.2489,-2.285,-2.3963,-2.4636,-2.5158,-2.5523,-2.6107,-2.6533,0.0,0.0,0.0,0.0,0.0,0.0,0.0,0.0,0.0,0.0,0.0,0.0,0.0,0.0,0.0,0.0,0.0,0.0,0.0,0.0,0.0,0.0,0.0,0.0,0.0,0.0,0.0,0.0,0.0,0.0,0.0,0.0,-1.0183,-1.0096,0.0,0.0,0.0,0.0,0.0,0.0,0.0,0.0,0.0,0.0,0.0,0.0,0.0,-1.4075,-1.425,-1.4496,-1.5394,-1.6862,-1.7025,-1.7836,-1.9301,-1.9301,-1.9301,-1.9301,-1.9301,0.0,-1.9636,-1.9636,0.0,0.0,0.0,0.0,0.0,0.0,0.0,0.0,0.0,0.0,0.0,0.0,0.0,0.0,0.0,0.0,0.0,0.0,0.0,0.0,0.0,0.0,-2.5158,-2.5241,-2.4707,-2.4108,-2.4108,-2.4564,-2.4791,-2.4192,-2.4047,-2.3963,0.0,0.0,0.0,0.0,0.0,0.0,-2.3021,-2.2723,-2.2734,-2.3526,-2.3745,-2.4192,-2.5016,-2.5229,-2.5594,-2.6314,-2.6452,-2.6533,-2.6533,-2.6533,0.0,0.0,0.0,0.0,0.0,0.0,0.0,0.0,0.0,0.0,0.0,0.0,0.0,0.0,0.0,0.0,0.0,0.0,0.0,0.0,0.0,0.0,0.0,0.0,0.0,0.0,0.0,0.0,0.0,-0.9666,-0.9144,-0.9144,-0.9497,-0.9758,0.0,0.0,0.0,0.0,0.0,0.0,0.0,0.0,0.0,-1.3652,-1.3737,-1.3828,-1.4088,-1.458,-1.5477,-1.6698,-1.7188,-1.8078,-1.9301,-1.9301,-1.9301,-1.9301,-1.9301,-1.9381,-1.9469,-1.9706,-2.0255,-2.1088,0.0,0.0,0.0,0.0,-2.5312,-2.5312,-2.5312,-2.5312,-2.5312,-2.5312,0.0,0.0,0.0,0.0,0.0,0.0,0.0,-2.5312,-2.5312,-2.5312,-2.5312,-2.5312,-2.5016,-2.4779,-2.4779,-2.5087,-2.5087,-2.4264,-2.4108,-2.4264,-2.4707,-2.4504,0.0,0.0,0.0,-2.3694,-2.3963,-2.3599,-2.3683,-2.4564,-2.4636,-2.5004,-2.5886,-2.5955,-2.6094,-2.6465,-2.6533,-2.6533,-2.6533,-2.6533,-2.6533,0.0,0.0,0.0,0.0,0.0,0.0,0.0,0.0,0.0,0.0,0.0,0.0,0.0,0.0,0.0,0.0,0.0,0.0,0.0,0.0,0.0,0.0,0.0,0.0,0.0,0.0,0.0,0.0,-0.8711,-0.8105,-0.8105,-0.8368,-0.8544,0.0,0.0,0.0,0.0,0.0,0.0,-1.2966,-1.3137,-1.3307,-1.3652,-1.3652,-1.3743,-1.4088,-1.4985,-1.5801,-1.6698,-1.7694,-1.8646,-1.9467,-1.9567,-1.9613,-1.9613,-1.9613,-1.9558,-1.9457,-1.9752,-2.0479,-2.1527,-2.2499,-2.3379,-2.4192,-2.5004,-2.5312,-2.5312,-2.5312,-2.5312,-2.5312,-2.5312,-2.5312,-2.5312,-2.5312,0.0,0.0,0.0,0.0,-2.5312,-2.5312,-2.5312,-2.5312,-2.5312,-2.5312,-2.5312,-2.5312,-2.5312,-2.5087,-2.4492,-2.4264,-2.4337,-2.5158,-2.5158,0.0,-2.5087,-2.4862,-2.4707,-2.4779,-2.4409,-2.4552,-2.5523,-2.5441,-2.5664,-2.6465,-2.6533,-2.6533,-2.6533,-2.6533,-2.6533,-2.6533,-2.6533,-2.6533,-2.6533,0.0,0.0,0.0,0.0,0.0,0.0,0.0,0.0,0.0,0.0,0.0,0.0,0.0,0.0,0.0,0.0,0.0,0.0,0.0,0.0,0.0,0.0,0.0,0.0,0.0,0.0,0.0,0.0,0.0,-0.7139,-0.7929,0.0,0.0,0.0,0.0,-1.1241,-1.1327,-1.1757,-1.2705,-1.2705,-1.296,-1.3398,-1.3392,-1.3652,-1.4088,-1.4985,-1.5801,-1.6698,-1.7962,-1.9059,-1.9907,-2.0283,-2.0457,-2.0457,-2.0457,-2.0246,-1.987,-1.9724,-2.0235,-2.1211,-2.2253,-2.322,-2.4192,-2.5004,-2.5312,-2.5312,-2.5312,-2.5312,-2.5312,-2.5312,-2.5312,-2.5312,-2.5312,-2.5312,0.0,0.0,-2.5312,-2.5312,-2.5312,-2.5312,-2.5312,-2.5312,-2.5312,-2.5312,-2.5312,-2.5312,-2.5312,-2.5229,-2.4636,-2.4337,-2.5158,0.0,-2.4264,-2.4409,-2.4564,-2.4779,-2.4933,-2.5158,-2.5523,-2.6383,-2.6452,-2.6465,-2.6533,-2.6533,-2.6533,-2.6533,-2.6533,-2.6533,-2.6533,-2.6533,-2.6533,-2.6533,-2.6521,0.0,0.0,0.0,0.0,0.0,0.0,0.0,0.0,0.0,0.0,0.0,0.0,0.0,0.0,0.0,0.0,0.0,0.0,0.0,0.0,0.0,0.0,0.0,0.0,0.0,0.0,0.0,0.0,-0.7139,-0.7404,0.0,-0.7577,-0.8452,-0.941,-1.0361,-1.0971,-1.1671,-1.2619,-1.2705,-1.2875,-1.3392,-1.3398,-1.3659,-1.4088,-1.4985,-1.599,-1.7107,-1.8087,-1.9217,-2.0319,-2.0457,-2.0521,-2.0521,-2.0521,-2.0438,-2.0357,-2.0813,-2.1006,-2.1288,-2.2925,-2.3818,-2.4192,-2.5004,-2.5312,-2.5312,-2.5312,-2.5312,-2.5312,-2.5312,-2.5312,-2.5312,-2.5312,-2.5312,-2.5312,-2.5312,-2.5312,-2.5312,-2.5312,-2.5312,-2.5312,-2.5312,-2.5312,-2.5312,-2.5312,-2.5312,-2.5312,-2.5312,-2.5087,-2.4933,-2.5229,-2.5158,-2.5087,-2.5158,-2.5453,-2.5688,-2.5758,-2.5968,-2.6176,-2.6452,-2.6533,-2.6533,-2.6533,-2.6533,-2.6533,-2.6533,-2.6533,-2.6533,-2.6533,-2.6533,-2.6533,-2.6533,-2.6533,-2.685,0.0,0.0,0.0,0.0,0.0,0.0,0.0,0.0,0.0,0.0,0.0,0.0,0.0,0.0,0.0,0.0,0.0,0.0,0.0,0.0,0.0,0.0,0.0,0.0,0.0,-0.6966,-0.7054,-0.7051,-0.7404,-0.7492,-0.7139,-0.7929,-0.8886,-0.9836,-1.0448,-1.1402,-1.2619,-1.2705,-1.2875,-1.3392,-1.3398,-1.3659,-1.4088,-1.5235,-1.6239,-1.7115,-1.8556,-1.9671,-2.053,-2.0805,-2.0934,-2.0934,-2.0934,-2.1022,-2.1268,-2.1959,-2.2142,-2.2182,-2.3593,-2.4264,-2.4564,-2.5087,-2.5312,-2.5312,-2.5312,-2.5312,-2.5312,-2.5312,-2.5312,-2.5312,-2.5312,-2.5312,-2.5312,-2.5312,-2.5312,-2.5312,-2.5312,-2.5312,-2.5312,-2.5312,-2.5312,-2.5312,-2.5312,-2.5312,-2.5312,-2.5382,-2.5382,-2.5312,-2.5312,-2.5465,-2.5606,-2.5688,-2.598,-2.6201,-2.627,-2.6396,-2.6533,-2.6533,-2.6533,-2.6533,-2.6533,-2.6533,-2.6533,-2.6533,-2.6533,-2.6533,-2.6533,-2.6714,-2.685,-2.685,-2.685,-2.704,-2.7484,0.0,0.0,0.0,0.0,0.0,0.0,0.0,0.0,0.0,0.0,0.0,0.0,0.0,0.0,0.0,0.0,0.0,0.0,0.0,0.0,0.0,0.0,0.0,-0.6881,-0.6795,-0.6881,-0.7054,-0.7929,-0.8105,-0.7228,-0.7929,-0.8886,-0.9836,-0.9923,-1.0788,-1.2613,-1.2705,-1.2875,-1.3392,-1.3398,-1.3652,-1.4173,-1.5801,-1.6706,-1.6804,-1.927,-2.0512,-2.0549,-2.1337,-2.1695,-2.1695,-2.1695,-2.1983,-2.2497,-2.3033,-2.3534,-2.4015,-2.4095,-2.4636,-2.5312,-2.5312,-2.5312,-2.5312,-2.5312,-2.5312,-2.5312,-2.5312,-2.5312,-2.5312,-2.5312,-2.5312,-2.5312,-2.5312,-2.5312,-2.5312,-2.5312,-2.5312,-2.5312,-2.5312,-2.5312,-2.5312,-2.5312,-2.5312,-2.5382,-2.5535,-2.5453,-2.5312,-2.5312,-2.5465,-2.5676,-2.584,-2.6062,0.0,-2.6465,-2.6533,-2.6533,-2.6533,-2.6533,-2.6533,-2.6533,-2.6533,-2.6533,-2.6533,-2.6533,-2.6533,-2.6533,-2.7095,-2.7484,-2.7484,-2.7484,-2.7484,-2.755,0.0,0.0,0.0,0.0,0.0,0.0,0.0,0.0,0.0,0.0,0.0,0.0,0.0,0.0,0.0,0.0,0.0,0.0,0.0,0.0,0.0,-0.7489,-0.7139,-0.6884,-0.6795,-0.6881,-0.7054,-0.7316,-0.7404,-0.7139,-0.7929,-0.8886,-0.9836,-1.0534,-1.1408,-1.2619,-1.2705,-1.2875,-1.3392,-1.3398,-1.3899,-1.5068,-1.6131,-1.7155,-1.8095,-1.9395,-2.0246,-2.0521,-2.075,-2.0851,-2.0851,-2.0851,-2.1278,-2.1943,-2.2541,-2.3235,-2.3951,-2.4568,-2.4957,-2.5182,-2.5241,-2.5312,-2.5312,-2.5312,-2.5312,-2.5312,-2.5312,-2.5312,-2.5312,-2.5312,-2.5312,-2.5312,-2.5312,-2.5312,-2.5312,-2.5312,-2.5312,-2.5312,-2.5312,-2.5312,-2.5312,-2.5312,-2.5312,-2.5382,-2.5535,-2.5535,-2.5535,-2.5535,-2.5828,-2.598,-2.591,-2.6188,-2.6465,-2.6465,-2.6533,-2.6533,-2.6533,-2.6533,-2.6533,-2.6533,-2.6533,-2.6533,-2.6533,-2.6533,-2.6533,-2.6533,-2.6658,-2.6782,-2.6782,-2.7229,-2.7736,0.0,0.0,0.0,0.0,0.0,0.0,0.0,0.0,0.0,0.0,0.0,0.0,0.0,0.0,0.0,0.0,0.0,0.0,0.0,0.0,0.0,0.0,-0.6789,-0.6526,-0.6526,-0.6615,-0.67,-0.6966,-0.7404,-0.7492,-0.7139,-0.8277,-0.9318,-0.9836,-1.0799,-1.1671,-1.2619,-1.2705,-1.2875,-1.3228,-1.3724,-1.4384,-1.522,-1.6527,-1.7621,-1.834,-1.9425,-2.0044,-2.0273,-2.0438,-2.0521,-2.0521,-2.0838,-2.1476,-2.2331,-2.2841,-2.3514,-2.434,0.0,0.0,0.0,0.0,-2.5312,-2.5312,-2.5312,-2.5312,-2.5312,-2.5312,-2.5523,-2.5791,-2.5791,-2.5791,-2.5791,-2.5791,-2.5523,-2.5312,-2.5312,-2.5312,-2.5312,-2.5312,-2.5382,-2.5465,-2.5465,-2.5453,-2.5606,-2.5828,-2.5828,0.0,-2.5828,-2.6062,-2.6131,-2.605,-2.6327,-2.6533,-2.6533,-2.6533,-2.6533,-2.6533,-2.6533,-2.6533,-2.6533,-2.6533,0.0,0.0,0.0,-2.6658,-2.6905,-2.6905,0.0,0.0,0.0,-2.7537,-2.767,-2.7297,0.0,0.0,-2.6658,-2.6533,0.0,0.0,0.0,0.0,0.0,0.0,0.0,0.0,0.0,0.0,0.0,0.0,0.0,0.0,0.0,0.0,-0.626,-0.5822,-0.5997,-0.6257,-0.6432,-0.6792,-0.7757,-0.8017,-0.7139,-0.8707,-0.9749,-0.9923,-1.0799,-1.1671,-1.2619,-1.2705,0.0,0.0,0.0,-1.4789,-1.5123,-1.6927,-1.7917,-1.8167,-1.9264,-1.9861,-1.987,-2.0218,-2.0374,-2.0541,-2.125,-2.2139,-2.3095,-2.3401,-2.408,-2.486,-2.5015,-2.5123,-2.5111,-2.5241,-2.5312,-2.5312,-2.5312,0.0,0.0,-2.5312,-2.5791,-2.6414,-2.6414,-2.6483,-2.6552,-2.6552,-2.607,-2.5581,-2.5581,-2.5581,-2.5511,-2.5441,-2.5523,-2.5676,-2.5606,-2.5688,-2.591,-2.6131,-2.6201,-2.6213,-2.6201,-2.6201,-2.6201,-2.6213,-2.6396,-2.6533,-2.6533,-2.6533,-2.6533,-2.6533,0.0,0.0,-2.6533,-2.6589,-2.6589,-2.6533,-2.6533,-2.6782,-2.7484,-2.7417,-2.7417,-2.7484,-2.7417,-2.7095,-2.6589,-2.6589,-2.6589,-2.6589,-2.6521,-2.6533,0.0,0.0,0.0,0.0,0.0,0.0,0.0,0.0,0.0,0.0,0.0,0.0,0.0,0.0,0.0,-0.6086,-0.5822,-0.5733,-0.5733,-0.5994,-0.6349,-0.6707,-0.7143,-0.7316,-0.7139,-0.8101,-0.9061,-0.9836,-1.0799,-1.1671,-1.2619,-1.2705,-1.279,-1.3052,-1.3476,-1.4468,-1.6108,-1.669,-1.7674,-1.9054,-1.9304,0.0,-1.943,-1.9503,-1.9851,-2.0476,-2.0624,-2.1561,-2.3026,-2.3101,-2.3812,-2.4847,-2.4825,-2.5052,-2.5241,-2.5312,-2.5312,-2.5312,-2.5312,-2.5312,-2.5312,-2.5312,-2.5791,-2.6414,-2.6414,-2.6812,0.0,-2.7284,-2.7204,-2.7069,-2.7069,-2.7069,-2.6934,-2.6346,-2.6208,-2.6082,-2.5523,-2.5535,-2.5688,-2.591,-2.6062,-2.627,-2.6396,-2.6465,-2.6396,-2.6201,-2.6396,-2.6533,-2.6533,-2.6533,-2.6533,-2.6533,-2.6533,-2.6533,-2.6533,-2.6973,-2.7095,-2.6521,-2.6533,-2.6782,-2.7484,-2.6973,-2.6973,-2.7484,-2.6973,-2.6905,-2.7284,-2.7284,-2.7284,-2.7284,-2.6782,-2.6533,0.0,0.0,0.0,0.0,0.0,0.0,0.0,0.0,0.0,0.0,0.0,-0.7793,-0.6571,0.0,-0.626,-0.5733,-0.5733,-0.5733,-0.5733,-0.5908,-0.626,-0.6523,-0.6789,-0.6966,-0.7051,-0.836,-0.9405,-0.9836,-1.123,-1.2186,-1.2705,-1.2705,-1.279,-1.2881,-1.4041,-1.5191,-1.6175,-1.7415,-1.8407,-1.9301,-1.9301,-1.9301,-1.9301,-1.9687,-2.0148,-2.0537,-2.1385,-2.2231,-2.3001,-2.3446,-2.4043,-2.4646,-2.479,-2.4981,-2.537,-2.5721,-2.5861,-2.5931,-2.6264,-2.6389,-2.6389,-2.6389,-2.6867,-2.7458,-2.7458,-2.7723,-2.7986,-2.7986,-2.7736,-2.7484,-2.7484,-2.7484,-2.7417,-2.7015,-2.7027,-2.7027,-2.6607,-2.6744,-2.6947,-2.7095,-2.7229,-2.7351,-2.7484,-2.7484,-2.7351,-2.6905,-2.6905,-2.6973,-2.6973,-2.6973,-2.6973,-2.6973,-2.7284,-2.7484,-2.7484,-2.7802,-2.7855,-2.755,-2.7484,-2.767,-2.7986,-2.767,-2.7484,-2.7484,-2.7484,-2.7351,-2.6973,-2.7351,-2.7351,-2.6973,-2.6658,-2.6533,0.0,0.0,0.0,0.0,0.0,0.0,0.0,0.0,-0.7328,-0.6699,-0.6599,-0.6441,-0.5775,-0.5733,-0.5733,-0.5733,-0.5733,-0.5733,-0.5733,-0.5908,-0.6083,-0.6343,-0.6615,-0.6881,-0.7054,-0.8619,-0.9662,-0.9923,-1.1488,-1.2528,-1.2705,-1.2705,-1.2705,-1.2705,-1.4608,-1.5764,-1.6003,-1.798,-1.9054,-1.9301,-1.9301,-1.9301,-1.9301,-2.0001,-2.0459,-2.0847,-2.2531,-2.3224,-2.3298,-2.397,-2.4345,-2.449,-2.479,-2.5123,-2.5511,-2.6139,-2.6414,-2.6483,-2.7217,-2.7484,-2.7484,-2.7484,-2.792,-2.8492,-2.8492,-2.8634,-2.8698,-2.8698,-2.8325,-2.7881,-2.7881,-2.7881,-2.7881,-2.7736,-2.7815,-2.7894,-2.7776,-2.8026,-2.8222,-2.8222,-2.839,-2.8492,-2.8441,-2.8634,-2.8505,-2.7802,-2.767,-2.767,-2.767,-2.767,-2.767,-2.767,-2.8182,-2.8556,-2.8698,-2.8556,-2.8556,-2.8684,-2.8556,-2.8556,-2.8698,-2.8556,-2.8298,-2.7934,-2.8312,-2.792,-2.6714,-2.7351,-2.7297,-2.6533,-2.6782,-2.6782,-1.5492,-1.267,-1.025,-0.8226,-0.7647,-0.7536,0.0,0.0,-0.7328,-0.6699,-0.6599,-0.6441,-0.5775,-0.5733,-0.5733,-0.5733,-0.5733,-0.5733,-0.5733,-0.5733,-0.5819,-0.6083,-0.6526,-0.6795,-0.6792,-0.7933,-0.8973,-0.9836,-1.0885,-1.1843,-1.2619,-1.2705,-1.2705,-1.2705,-1.388,-1.5039,-1.6003,-1.7261,-1.8336,-1.9301,-1.9301,-1.9301,-1.9301,-1.9381,-2.0226,-2.1756,-2.3361,-2.4043,-2.4127,-2.4345,-2.449,-2.4562,-2.4909,-2.5453,-2.6057,-2.6277,-2.6414,-2.6483,-2.7217,-2.7484,-2.7484,-2.7484,-2.792,-2.8492,-2.8492,-2.898,-2.9477,-2.9477,-2.9401,-2.9338,-2.9338,-2.9338,-2.9198,-2.857,-2.8441,-2.8247,-2.767,-2.7802,-2.7999,-2.7908,-2.8195,-2.8441,-2.8338,-2.898,-2.9219,-2.8505,-2.8363,-2.8363,-2.8363,-2.8363,-2.8363,-2.8363,-2.8427,-2.8762,-2.9421,-2.8889,-2.8762,-2.9421,-2.8889,-2.8826,-2.9421,-2.8826,-2.8762,-2.9359,-2.8826,-2.8117,-2.7417,-2.8051,-2.7736,-2.6521,-2.7736,-2.767,-1.2393,-0.8927,-0.6576,-0.604,-0.5628,-0.5424,-0.5809,-0.5953,-0.5855,-0.5139,-0.502,-0.4838,-0.4174,-0.403,-0.403,-0.403,-0.4567,-0.4926,-0.4926,-0.5374,-0.5733,-0.5819,-0.6174,-0.6526,-0.6792,-0.7845,-0.8886,-0.9836,-1.0799,-1.1671,-1.2619,-1.2705,-1.2954,-1.3457,-1.4545,-1.5621,-1.6601,-1.7844,-1.8674,-1.9152,-1.9222,-1.9539,-2.0001,-2.0537,-2.168,-2.3202,-2.3886,-2.42,-2.42,-2.4273,-2.4611,-2.5146,-2.5429,-2.6032,-2.6786,-2.6947,-2.7271,-2.7723,-2.8468,-2.8739,-2.8739,-2.8739,-2.8931,-2.9121,-2.9121,-2.9338,-2.9602,-2.9602,-2.9602,-2.9602,-2.9602,-2.9602,-2.954,-2.9198,-2.9121,-2.9058,-2.8803,-2.8994,-2.9198,-2.9135,-2.9435,-2.9732,-2.9623,-2.9931,-3.0054,-2.9794,-2.9407,-2.9156,-2.9156,-2.9156,-2.9282,-2.967,-2.9732,-2.967,-2.9623,-2.967,-2.967,-2.9623,-2.967,-2.9856,-3.019,-2.987,-2.967,-2.9623,-2.967,-2.9205,-2.8051,-2.8762,-2.8634,-2.767,-2.7868,-2.7604,-0.8729,-0.5755,-0.4037,-0.3808,-0.3593,-0.3591,-0.4038,-0.4397,-0.4525,-0.4028,-0.3904,-0.3714,-0.3374,-0.3047,-0.2867,-0.2867,-0.3494,-0.3941,-0.3941,-0.4746,-0.5285,-0.5285,-0.5816,-0.626,-0.6615,-0.7492,-0.8452,-0.9405,-1.0361,-1.1316,-1.2272,-1.2534,-1.3124,-1.3957,-1.5039,-1.6124,-1.7115,-1.8345,-1.9002,-1.9073,-1.946,-1.9923,-2.0537,-2.1614,-2.2756,-2.3897,-2.4116,-2.4261,-2.4394,-2.4478,-2.5004,-2.58,-2.6032,-2.6718,-2.7524,-2.7736,-2.8051,-2.8634,-2.9324,-2.9602,-2.9602,-2.9602,-2.9602,-2.9602,-2.9602,-2.9602,-2.9602,-2.9602,-2.9602,-2.9602,-2.9602,-2.9602,-2.9602,-2.9602,-2.9602,-2.9665,-2.9665,-2.9913,-3.0158,-3.0111,-3.0341,-3.0568,-3.0507,-3.0568,-3.0568,-3.0568,-3.019,-2.987,-2.987,-2.987,-3.0068,-3.0568,-3.0568,-3.0387,-2.9931,-3.0312,-3.0387,-2.9931,-3.0312,-3.0568,-3.0568,-3.0568,-3.0387,-2.987,-3.0326,-2.9993,-2.8826,-2.9359,-2.9219,-2.8492,-2.8182,-2.8065,-0.5015,-0.4372,-0.3804,-0.1893,-0.1996,-0.2551,-0.2551,-0.3132,-0.3723,-0.4,-0.3974,-0.3892,-0.416,-0.3494,-0.2867,-0.2867,-0.2957,-0.2957,-0.2957,-0.3762,-0.43,-0.43,-0.5369,-0.6169,-0.6432,-0.67,-0.7319,-0.8456,-0.9405,-1.0361,-1.1322,-1.2186,-1.3124,-1.3957,-1.4887,-1.6049,-1.7359,-1.8282,-1.8922,-1.9301,-2.0079,-2.0459,-2.0547,-2.2231,-2.3001,-2.3075,-2.3824,-2.4467,-2.5016,-2.5158,-2.5709,-2.6445,-2.6812,-2.7497,-2.8274,-2.8441,-2.8492,-2.8634,-2.9324,-2.9602,-2.9602,-2.9602,-2.9602,-2.9602,-2.9602,-2.9602,-2.9602,-2.9602,-2.9602,-2.9602,-2.9602,-2.9602,-2.9602,-2.9602,-2.9713,-2.9808,-2.9808,-3.0068,-3.0266,-3.0111,-3.0341,-3.0507,-3.0326,-3.0447,-3.0568,-3.0568,-3.0568,-3.0568,-3.0568,-3.0568,-3.0568,-3.0568,-3.0568,-3.0568,-3.0568,-3.0568,-3.0568,-3.0568,-3.0568,-3.0568,-3.0568,-3.0568,-3.0568,-3.0568,-3.0568,-3.0251,-2.956,-2.9623,-2.9219,-2.8492,-2.9219,-2.956,0.0137,0.0138,0.0273,0.0,-0.0207,-0.0353,-0.0846,-0.1574,-0.1844,-0.0859,-0.0948,-0.1131,-0.0693,-0.0351,-0.0264,-0.0895,-0.1525,-0.1883,-0.1883,-0.2777,-0.3405,-0.3405,-0.376,-0.4295,-0.5184,-0.6166,-0.7492,-0.9318,-0.9749,-1.0616,-1.2186,-1.2534,-1.3124,-1.3957,-1.4887,-1.5884,-1.6944,-1.8112,-1.8772,-1.8922,-2.0537,-2.1614,-2.2231,-2.3298,-2.3824,-2.3824,-2.4043,-2.4334,-2.4467,-2.4945,-2.5627,-2.6433,-2.7204,-2.8012,-2.8894,-2.9135,-2.9261,-2.9261,-2.954,-2.9602,-2.9602,-2.9602,-2.9602,-2.9602,-2.9602,-2.9602,-2.9602,-2.9602,-2.9602,-2.9602,-2.9602,-2.9602,-2.9602,-2.9602,-2.9665,-2.9713,-2.9747,-3.0021,-3.0158,-3.0205,-3.0447,-3.0568,-3.0507,-3.0568,-3.0568,-3.0568,-3.0568,-3.0568,-3.0568,-3.0568,-3.0568,-3.0568,-3.0568,-3.0447,-2.9993,-3.0326,-3.0387,-2.9931,-3.0326,-3.0568,-3.0568,-3.0568,-3.0568,-3.0568,-3.0568,-3.0507,-3.0251,-3.0251,-3.0129,-2.9856,-2.9685,-2.9623,0.5654,0.4691,0.4197,0.3289,0.2618,0.205,0.1704,0.0697,0.0072,0.1143,0.0853,0.0639,0.1199,0.1302,0.1225,0.1073,-0.009,-0.0808,-0.0448,-0.1524,-0.2331,-0.2331,-0.2688,-0.3403,-0.4561,-0.5539,-0.6864,-0.8619,-0.9488,-1.0443,-1.166,-1.2357,-1.3124,-1.3957,-1.4887,-1.5884,-1.678,-1.8031,-1.9082,-1.9854,-2.1145,-2.2371,-2.3446,-2.397,-2.42,-2.42,-2.4394,-2.4611,-2.4826,-2.537,-2.6195,-2.7082,-2.7749,-2.8495,-2.9162,-2.9477,-2.9602,-2.9602,-2.9602,-2.9602,-2.9602,-2.9602,-2.9602,-2.9602,-2.9602,-2.9602,-2.9602,-2.9602,-2.9602,-2.9602,-2.9602,-2.9602,-2.9602,-2.9602,-2.9665,-2.9713,-2.9747,-3.0021,-3.0219,-3.0266,-3.0447,-3.0568,-3.0568,-3.0568,-3.0568,-3.0568,-3.0568,-3.0568,-3.0568,-3.0568,-3.0568,-3.0568,-3.0568,-3.0447,-3.0007,-3.0326,-3.0447,-3.0007,-3.0387,-3.0568,-3.0568,-3.0568,-3.0568,-3.0568,-3.0568,-3.0568,-3.0568,-3.0568,-3.0568,-3.0568,-3.019,-2.9931,1.1392,0.9313,0.7814,0.7843,0.6363,0.4898,0.4963,0.3592,0.2183,0.1997,0.176,0.1596,0.0,0.0,0.1749,0.2767,0.1345,0.0449,0.1256,-0.009,-0.1256,0.0,0.0,0.0,0.0,0.0,-0.5445,-0.6615,-0.8619,-0.9836,-1.0009,-1.166,-1.3039,-1.388,-1.4887,-1.5891,-1.687,-1.8121,-1.9696,-2.168,-2.1756,-2.2596,-2.4116,-2.4189,-2.42,-2.4261,-2.4802,-2.5358,-2.5931,-2.6508,-2.7188,-2.8079,-2.8406,-2.878,-2.9099,-2.9477,-2.9602,-2.9602,-2.9602,-2.9602,-2.9602,-2.9602,-2.9602,-2.9602,-2.9602,-2.9602,-2.9602,-2.9602,-2.9602,-2.9602,-2.9602,-2.9602,-2.9602,-2.9602,-2.9713,-2.9808,-2.9808,-3.0068,-3.0251,-3.0312,-3.0447,-3.0568,-3.0568,-3.0568,-3.0568,-3.0568,-3.0568,-3.0568,-3.0568,-3.0568,-3.0568,-3.0568,-3.0568,-3.0568,-3.0568,-3.0568,-3.0568,-3.0568,-3.0568,-3.0568,-3.0568,-3.0568,-3.0568,-3.0568,-3.0568,-3.0568,-3.0568,-3.0568,-3.0568,-3.0568,-3.0568,-3.0568,1.6781,1.4054,1.2017,1.1368,1.0356,0.9196,0.8101,0.6775,0.5819,0.5901,0.4905,0.4126,0.4665,0.4018,0.3403,0.3646,0.2773,0.0,0.1436,0.0987,0.0,-0.0269,0.0,-0.1166,-0.2151,-0.3306,-0.4372,-0.5356,-0.7562,-0.9497,-1.089,-1.1408,-1.21,-1.3039,-1.4552,-1.556,-1.5801,-1.7708,-1.9301,-2.0595,-2.1441,-2.2295,-2.3298,-2.3897,-2.4394,-2.4802,-2.4945,-2.5358,-2.5931,-2.6508,-2.685,-2.7121,-2.7934,-2.8406,-2.878,-2.9099,-2.9415,-2.9602,-2.9602,-2.9602,-2.9602,-2.9602,-2.9602,-2.9602,-2.9602,-2.9602,-2.9602,-2.9602,-2.9602,-2.9602,-2.9602,-2.9602,-2.9602,-2.9602,-2.9602,-2.9651,-2.9747,-2.987,-3.0007,-3.0251,-3.0447,-3.0568,-3.0568,-3.0568,-3.0568,-3.0568,-3.0568,-3.0568,-3.0568,-3.0568,-3.0568,-3.0568,-3.0568,-3.0568,-3.0568,-3.0568,-3.0568,-3.0568,-3.0568,-3.0568,-3.0568,-3.0568,-3.0568,-3.0568,-3.0568,-3.0568,-3.0568,-3.0568,-3.0568,-3.0568,-3.0568,-3.0568,2.0128,1.7585,1.5677,1.4096,1.2915,1.1715,1.0289,0.9188,0.8265,0.7873,0.7041,0.6476,0.6548,0.5447,0.4704,0.0,0.0,0.0,0.2688,0.2331,0.1704,0.0,0.0629,0.0,-0.1256,-0.2326,-0.3484,-0.4907,-0.721,-0.9148,-1.0626,-1.1063,-1.1757,-1.2705,-1.4468,-1.5809,-1.6706,-1.7951,-1.9292,-2.074,-2.1364,-2.2295,-2.3519,-2.397,-2.4334,-2.4671,-2.5158,-2.5569,-2.5931,-2.6701,-2.7053,-2.7095,-2.7512,-2.7809,-2.8025,-2.8195,-2.8407,-2.8605,-2.8741,-2.8802,-2.89,-2.9434,-2.9602,-2.9602,-2.9602,-2.9602,-2.9602,-2.9602,-2.9602,-2.9602,-2.9602,-2.9602,-2.9602,-2.9602,-2.9602,-2.9602,-2.9713,-2.9837,-3.0021,-3.0387,-3.0507,-3.0568,-3.0568,-3.0568,-3.0568,-3.0568,-3.0568,-3.0568,-3.0568,-3.0568,-3.0568,-3.0568,-3.0568,-3.0568,-3.0568,-3.0568,-3.0568,-3.0568,-3.0568,-3.0568,-3.0568,-3.0568,-3.0568,-3.0568,-3.0568,-3.0568,-3.0568,-3.0568,-3.0568,-3.0568,-3.0568,-3.0568,2.1975,2.0001,1.8582,1.6381,1.4868,1.3468,1.1997,1.11,1.0158,0.8764,0.8506,0.8373,0.773,0.6479,0.5849,0.6757,0.0,0.3582,0.4208,0.3583,0.2688,0.1704,0.1524,0.0718,-0.0897,-0.1702,-0.2861,-0.4641,-0.6858,-0.8623,-0.9662,-1.0621,-1.1666,-1.2869,-1.4552,-1.6296,-1.8193,-1.8353,-1.9283,-2.1058,-2.1288,-2.2274,-2.3886,-2.4116,-2.4261,-2.4478,-2.5441,-2.6,-2.6195,-2.7031,-2.7419,-2.7353,-2.7088,-2.7053,-2.7113,-2.7141,-2.7189,-2.7308,-2.7631,-2.7776,-2.7945,-2.9012,-2.942,-2.949,-2.949,-2.9546,-2.9602,-2.9602,-2.9602,-2.9602,-2.9602,-2.9602,-2.9602,-2.9602,-2.9602,-2.9602,-2.9602,-2.9865,-3.0144,-3.0406,-3.0451,-3.0422,-3.0335,-3.0321,-3.0321,-3.0321,-3.0321,-3.0321,-3.0321,-3.048,-3.0568,-3.0568,-3.0568,-3.0568,-3.0568,-3.0568,-3.0568,-3.0568,-3.0568,-3.0568,-3.0568,-3.0568,-3.0568,-3.0568,-3.0568,-3.0568,-3.0568,-3.0568,-3.0568,-3.0568,-3.0568,-3.0568,2.2654,2.1091,2.0041,1.8806,1.7679,1.6295,1.4019,1.3235,0.0,1.02,0.9533,0.9271,0.8987,0.8098,0.7446,0.7562,0.6773,0.5714,0.4476,0.4119,0.3673,0.0,0.1883,0.1256,0.0987,-0.0896,-0.2593,-0.3748,-0.5265,-0.6953,-0.8627,-0.9666,-1.13,-1.3704,-1.4803,-1.5884,-1.6944,-1.7942,-1.8683,-1.9152,-2.0682,-2.1669,-2.2295,-2.3582,-2.4683,-2.5652,-2.5791,0.0,-2.7217,-2.6948,-2.6817,-2.6765,-2.6254,-2.6205,-2.6441,-2.6457,-2.6829,-2.7308,-2.7381,-2.7572,-2.7804,-2.8015,-2.8436,-2.8858,-2.8858,-2.9195,-2.9602,-2.9602,-2.9602,-2.9602,-2.9602,-2.9602,-2.9602,-2.9602,-2.9602,-2.9602,-2.9602,-2.9865,-3.0015,-2.9649,-2.9725,-2.9624,-2.9102,-2.9,-2.9,-2.9,-2.9,-2.9,-2.9,-2.9929,-3.0568,-3.0568,-3.0568,-3.0568,-3.0568,-3.0568,-3.0568,-3.0568,-3.0568,-3.0568,-3.0568,-3.0568,-3.0568,-3.0568,-3.0568,-3.0568,-3.0568,-3.0568,-3.0568,-3.0568,-3.0568,-3.0568,2.2323,2.1341,2.0617,1.9078,1.8224,1.7143,1.4613,0.0,0.0,1.1453,1.0796,1.053,1.0045,0.9056,0.836,0.836,0.7482,0.6511,0.5716,0.5277,0.4656,0.3762,0.3226,0.2509,0.1524,0.0269,-0.1073,-0.2681,-0.402,-0.5885,-0.8364,-0.9845,-1.1901,-1.4636,-1.5137,-1.6049,-1.7367,-1.7951,-1.8514,-1.9152,-2.0585,-2.1573,-2.2285,-2.3582,-2.4467,-2.5028,-2.5652,-2.6046,-2.6244,-2.6583,-2.6491,-2.6177,-2.5602,-2.5489,-2.5572,-2.5435,-2.567,-2.6137,-2.6266,-2.6566,-2.6793,-2.6793,-2.7439,-2.8212,-2.8212,-2.8422,-2.8647,-2.8647,-2.8647,-2.8731,-2.9055,-2.9125,-2.9209,-2.9532,-2.9602,-2.9518,-2.9304,-2.9355,-2.9351,-2.9016,-2.9001,-2.8972,-2.8724,-2.8681,-2.8681,-2.8681,-2.8681,-2.8681,-2.8681,-2.9218,-2.9595,-2.9595,-2.9595,-2.9726,-3.0045,-3.0074,-3.0219,-3.0553,-3.0568,-3.0568,-3.0568,-3.0568,-3.0568,-3.0568,-3.0568,-3.0568,-3.0568,-3.0568,-3.0568,-3.0568,-3.0568,-3.0568,2.1659,2.1173,2.0673,1.8805,1.8262,1.7502,1.4763,1.4318,1.3979,1.2077,1.1569,1.1255,1.06,0.9733,0.9069,0.0,0.8009,0.7129,0.6864,0.6346,0.5638,0.4746,0.4389,0.0,0.1883,0.1343,0.0179,-0.197,-0.3486,-0.5612,-0.8623,-1.0193,-1.2169,-1.472,-1.5228,-1.6057,-1.7456,-1.7789,-1.8425,-1.9371,-2.0575,-2.1562,-2.2424,-2.3655,-2.4261,-2.4394,-2.532,-2.5512,-2.5239,-2.6,-2.6046,-2.5576,-2.5001,-2.4792,-2.4786,-2.458,-2.4694,-2.5061,-2.5369,-2.5702,-2.5893,-2.5893,-2.6652,-2.7579,-2.7579,-2.7664,-2.7776,-2.7776,-2.7776,-2.7888,-2.8366,-2.8493,-2.8619,-2.9097,-2.9209,-2.913,-2.8802,-2.8748,-2.8696,-2.8368,-2.8309,-2.8307,-2.8303,-2.8274,-2.8274,-2.8274,-2.8274,-2.8274,-2.8274,-2.8274,-2.8274,-2.8274,-2.8521,-2.8884,-2.9377,-2.9421,-2.9639,-3.0132,-3.0292,-3.0379,-3.0379,-3.0495,-3.0568,-3.0568,-3.0568,-3.0568,-3.0568,-3.0568,-3.0568,-3.0568,-3.0568,-3.0568,2.0981,2.0532,2.0258,1.9,1.8711,1.7996,1.5124,0.0,1.3596,1.1904,1.103,1.06,1.0519,1.0164,0.9685,0.0,0.0,0.8273,0.6956,0.6779,0.6432,0.5641,0.0,0.0,0.2867,0.179,0.0179,-0.197,-0.42,-0.677,-0.9662,-0.9923,-1.0961,-1.2869,-1.4552,-1.5477,-1.5643,-1.7212,-1.8193,-1.8514,-2.0256,-2.1257,-2.1583,-2.335,-2.4467,-2.4921,-2.5071,-2.5301,0.0,-2.5288,-2.5092,-2.4988,-2.4426,-2.4191,-2.4191,-2.4434,-2.4694,-2.5061,-2.5369,-2.5702,-2.5893,-2.5893,-2.6357,-2.6891,-2.6891,-2.7312,-2.7776,-2.7776,-2.7776,-2.779,-2.7846,-2.786,-2.7874,-2.7931,-2.7945,-2.8034,-2.8239,-2.8283,-2.8168,-2.783,-2.7755,-2.7581,-2.7055,-2.6953,-2.6953,-2.6953,-2.6953,-2.6953,-2.6953,-2.6953,-2.6953,-2.6953,-2.7984,-2.8695,-2.8768,-2.8768,-2.8797,-2.8855,-2.9392,-2.9711,-2.9711,-3.0263,-3.0568,-3.0568,-3.0568,-3.0568,-3.0568,-3.0568,-3.0568,-3.0568,-3.0568,-3.0568,2.1886,2.1297,2.0783,1.9927,1.9198,1.8025,1.5769,0.0,1.4132,1.2797,1.1756,1.1255,1.1964,1.0915,1.012,0.0,0.0,0.0,0.8185,0.7658,0.7132,0.6432,0.6074,0.5272,0.3849,0.2776,0.0715,-0.2769,-0.4198,-0.606,-0.8886,-0.9579,-1.1042,-1.3372,-1.472,-1.5636,-1.6206,-1.7375,-1.8031,-1.8201,-1.9885,-2.0874,-2.1247,-2.2673,-2.3587,-2.4038,-2.4389,-2.4439,0.0,-2.4826,-2.4766,-2.4426,-2.4204,-2.4112,-2.4112,-2.4216,-2.4549,-2.5005,-2.5131,-2.5522,-2.5893,-2.5893,-2.6062,-2.6259,-2.6259,-2.6441,-2.6652,-2.6652,-2.6652,-2.6722,-2.7102,-2.72,-2.72,-2.72,-2.6905,-2.6595,-2.6325,-2.6647,-2.6828,-2.639,-2.6654,-2.6949,-2.6823,-2.6779,-2.6779,-2.6779,-2.6779,-2.6779,-2.6779,-2.6779,-2.6779,-2.6779,-2.7244,-2.7694,-2.8071,-2.8115,-2.8274,-2.8652,-2.8927,-2.9058,-2.9058,-2.9668,-3.0001,-3.0001,-3.0379,-3.0568,-3.0568,-3.0568,-3.0568,-3.0568,-3.0568,-3.0568,2.1861,2.139,2.083,2.0019,1.92,1.7988,1.5843,0.0,1.425,1.3258,1.2229,1.1822,1.285,1.1583,1.0554,0.0,0.0,0.9152,0.889,0.8448,0.7834,0.7217,0.0,0.6422,0.4828,0.3221,0.0715,-0.2858,-0.384,-0.544,-0.7918,-0.9226,-1.0869,-1.3112,-1.4378,-1.5379,-1.6288,-1.7204,-1.773,-1.7869,-1.9316,-2.0311,-2.0767,-2.1883,-2.2629,-2.3178,-2.358,-2.3591,0.0,-2.4234,-2.4359,-2.4112,-2.4112,-2.4112,-2.4112,-2.4157,-2.4492,-2.4878,-2.5075,-2.5411,-2.5798,-2.5893,-2.5893,-2.5893,-2.5893,-2.5893,-2.5893,-2.5893,-2.5767,-2.5725,-2.616,-2.6132,-2.5992,-2.5992,-2.5669,-2.5286,-2.4902,-2.5261,-2.555,-2.5263,-2.5819,-2.6341,-2.6489,-2.6649,-2.6779,-2.6779,-2.6779,-2.6779,-2.6779,-2.6779,-2.6779,-2.6779,-2.6779,-2.6968,-2.7418,-2.7447,-2.7636,-2.8086,-2.8289,-2.839,-2.839,-2.9,-2.9334,-2.9334,-2.9784,-3.0118,-3.0292,-3.0292,-3.0393,-3.0568,-3.0568,-3.0568,2.0183,2.0226,1.9998,1.8824,1.8593,1.7948,1.5217,1.4155,1.3498,1.2739,1.2068,1.1816,1.2692,1.1999,1.1322,1.1327,1.0554,0.0,0.8978,0.889,0.8623,0.0,0.7834,0.7122,0.5523,0.2587,-0.0089,-0.197,-0.3486,-0.5082,-0.7017,-0.8865,-1.0356,-1.1327,-1.3112,-1.4461,-1.5394,-1.6296,-1.7016,-1.7553,-1.8525,-1.9266,-1.9858,-2.0864,-2.1804,-2.273,-2.2674,-2.2955,0.0,-2.3376,-2.37,-2.4112,-2.4112,-2.4112,-2.4112,-2.4421,-2.4509,-2.458,-2.5257,-2.5494,-2.555,-2.5798,-2.5893,-2.5893,-2.5893,-2.5893,-2.5893,-2.5893,-2.5458,-2.4994,-2.4994,-2.461,-2.4146,-2.4146,-2.4132,-2.4182,-2.4433,-2.4497,-2.4583,-2.4751,-2.5357,-2.5792,-2.5792,-2.6344,-2.6779,-2.6779,-2.6779,-2.6779,-2.6779,-2.6779,-2.6779,-2.6779,-2.6779,-2.6779,-2.6794,-2.6794,-2.6794,-2.6808,-2.7389,-2.7683,-2.7683,-2.8347,-2.8695,-2.8695,-2.8695,-2.9,-2.9639,-2.9639,-2.9958,-3.0568,-3.0568,-3.0568,2.0364,2.0052,1.9661,1.9278,1.8613,1.7522,1.5562,1.472,1.4027,1.2813,1.2376,1.2533,1.3581,1.2413,1.1494,1.2169,1.0977,0.0,0.0,0.0,0.0,0.8627,0.7658,0.6239,0.3933,0.2412,0.0625,-0.1879,-0.3487,-0.4821,-0.6065,-0.8519,-1.0361,-1.1241,-1.3021,-1.4126,-1.4461,-1.565,-1.6381,-1.6586,-1.7729,-1.8648,-1.9508,-2.0128,-2.0899,-2.1844,-2.2046,-2.244,-2.285,-2.3273,-2.37,-2.4112,-2.4112,-2.4112,-2.4112,-2.4216,-2.4363,-2.4523,-2.4765,-2.5131,-2.5494,-2.5605,-2.5743,-2.5893,-2.5893,-2.5893,-2.5809,-2.5388,-2.5135,-2.4882,-2.4512,-2.3884,-2.3407,-2.3407,-2.3083,-2.287,-2.3027,-2.345,-2.3846,-2.4038,-2.4655,-2.5139,-2.5139,-2.5676,-2.6097,-2.6097,-2.6489,-2.6779,-2.6779,-2.6779,-2.6779,-2.6779,-2.6779,-2.6779,-2.6779,-2.6779,-2.6779,-2.6779,-2.6968,-2.7084,-2.7084,-2.7694,-2.8028,-2.8028,-2.8463,-2.8768,-2.8971,-2.8971,-2.9073,-2.929,-2.9726,-2.9929,0.0,1.9323,1.8813,1.8813,1.7881,0.0,1.5359,1.4585,1.389,1.2739,1.2772,1.318,1.3502,1.2579,1.1912,1.2169,1.0977,1.0038,0.0,0.0,0.9685,0.8978,0.7921,0.6151,0.3575,0.268,0.1161,-0.1343,-0.2862,-0.4111,-0.5092,-0.7464,-0.9479,-1.0712,-1.2516,-1.3659,-1.3888,-1.4999,-1.5653,-1.5793,-1.6798,-1.7852,-1.8821,-1.9111,-1.9942,-2.1083,-2.1337,-2.1865,0.0,-2.2932,-2.3497,-2.4112,-2.4112,-2.4112,-2.4112,-2.4112,-2.4216,-2.4363,-2.4452,-2.4892,-2.5313,-2.5439,-2.5702,-2.5851,-2.5626,-2.5542,-2.5472,-2.5093,-2.4629,-2.4179,-2.38,-2.3224,-2.2746,-2.2746,-2.2451,-2.2231,-2.237,-2.2776,-2.314,-2.331,-2.3908,-2.4375,-2.4423,-2.5023,-2.5444,-2.5429,-2.5981,-2.6402,-2.6402,-2.662,-2.6779,-2.6779,-2.6779,-2.6779,-2.6779,-2.6779,-2.6779,-2.6779,-2.6779,-2.6779,-2.6779,-2.7157,-2.7374,-2.7374,-2.7766,-2.8086,-2.8318,-2.8565,-2.8681,-2.8695,-2.9087,-2.9261,0.0,1.7872,1.7491,1.7491,1.6594,1.5542,0.0,0.0,0.0,1.2472,1.3099,1.3509,1.2724,1.2585,1.2425,1.1408,1.0641,1.0038,0.0,1.0038,0.9685,0.8978,0.8273,0.6763,0.4275,0.3123,0.1609,-0.0448,-0.1792,-0.3042,-0.42,-0.6051,-0.7979,-0.9812,-1.1632,-1.289,-1.3627,-1.4377,-1.4844,-1.5149,-1.5863,-1.6813,-1.7901,-1.7969,-1.89,0.0,-2.0571,-2.1313,-2.2531,-2.2592,-2.316,-2.4054,-2.4112,-2.4112,-2.4112,-2.4112,-2.4112,-2.4112,-2.4421,-2.4708,-2.5005,-2.5328,-2.5632,-2.5711,-2.5107,-2.4952,-2.4952,-2.4868,-2.3997,-2.3083,-2.3041,-2.2606,-2.2184,-2.2184,-2.2184,-2.2231,-2.237,-2.2417,-2.2477,-2.2749,-2.3256,-2.3677,-2.3771,-2.4384,-2.4805,-2.4728,-2.5313,-2.5734,-2.5778,-2.6329,-2.6736,-2.6779,-2.6779,-2.6779,-2.6779,-2.6779,-2.6779,-2.6779,-2.6779,-2.6779,-2.6779,-2.6779,-2.6779,-2.6779,-2.6779,-2.7084,-2.7665,-2.826,-2.8536,-2.855,-2.8594,-2.8608,1.598,0.0,1.5313,1.5313,1.51,1.4673,0.0,0.0,0.0,0.0,0.0,0.0,0.0,0.0,1.2425,1.1408,1.1154,1.0722,1.0125,1.0038,0.9685,0.8978,0.8273,0.7031,0.5255,0.3479,0.1877,0.0447,-0.1432,-0.3042,-0.42,-0.6051,-0.7839,-0.9521,-1.0716,-1.1701,-1.2643,-1.3625,-1.416,-1.4231,-1.5396,-1.629,-1.6941,-1.7696,-1.8566,-1.9639,-2.0302,-2.1135,-2.2063,-2.2482,-2.2992,-2.3582,-2.3936,-2.4112,-2.4112,-2.4112,-2.4112,-2.4112,-2.4157,-2.4376,-2.4627,-2.4696,-2.4924,-2.5078,-2.4512,-2.4653,-2.4783,-2.3814,-2.3322,-2.2985,-2.2521,-2.2297,-2.2184,-2.2184,-2.2184,-2.2231,-2.237,-2.2417,-2.2477,-2.2615,-2.285,-2.3011,-2.3057,-2.367,-2.4123,-2.4109,-2.4675,-2.527,-2.572,-2.5923,-2.6213,-2.6736,-2.6779,-2.6779,-2.6779,-2.6779,-2.6779,-2.6779,-2.6779,-2.6779,-2.6779,-2.6779,-2.6779,-2.6779,-2.6779,-2.6852,-2.7012,-2.7157,-2.7229,-2.7244,-2.7723,-2.7955,1.4265,1.4699,1.5004,1.5004,1.4708,1.4335,1.3969,0.0,0.0,0.0,0.0,0.0,0.0,0.0,0.0,0.0,1.158,0.0,1.0125,1.0038,0.9685,0.8978,0.8273,0.721,0.5523,0.3749,0.2147,0.0805,-0.0806,-0.2407,-0.4144,-0.5187,-0.6685,-0.8813,-0.9548,-1.0643,-1.1956,-1.3271,-1.3857,-1.3718,-1.516,-1.607,-1.6603,-1.7364,-1.824,-1.91,-1.9966,-2.088,-2.1702,-2.2125,-2.2555,-2.3065,-2.3569,-2.376,-2.3819,-2.3995,-2.4112,-2.4112,-2.4112,-2.4103,-2.4155,-2.4107,-2.4246,-2.4291,-2.3814,-2.3856,-2.3969,-2.328,-2.2887,-2.2592,-2.2269,-2.2184,-2.2184,-2.2184,-2.2184,-2.2231,-2.2278,-2.2324,-2.237,-2.2463,-2.2583,-2.2644,-2.2764,-2.3115,-2.3424,-2.3455,-2.4007,-2.4544,-2.4878,-2.5168,-2.5604,-2.6257,-2.6329,-2.646,-2.6765,-2.6779,-2.6779,-2.6779,-2.6779,-2.6779,-2.6779,-2.6779,-2.6779,-2.6779,-2.6779,-2.6779,-2.6779,-2.6779,-2.6779,-2.6794,-2.7128,-2.7302,1.2933,1.4266,1.5242,1.5134,1.4647,1.4102,1.4102,0.0,0.0,0.0,0.0,0.0,0.0,1.2439,0.0,0.0,0.0,0.0,1.0125,1.0038,0.9772,0.9157,0.836,0.7298,0.588,0.402,0.2329,0.0984,-0.0089,-0.1593,-0.3819,-0.3976,-0.5281,-0.7796,-0.8449,-0.9531,-1.1236,-1.2817,-1.3577,-1.3535,-1.4919,-1.5921,-1.6473,-1.7028,-1.7774,-1.8556,-1.9497,0.0,-2.1187,-2.1628,-2.2063,-2.2543,-2.3065,-2.328,-2.3323,-2.3677,-2.3871,-2.3851,-2.3851,-2.3695,-2.3566,-2.3453,-2.3506,-2.3497,-2.3056,-2.2909,-2.2957,-2.2957,-2.2578,-2.2184,-2.2184,-2.2184,-2.2184,-2.2184,-2.2184,-2.2184,-2.2184,-2.2184,-2.2231,-2.237,-2.237,-2.2477,-2.2704,-2.2749,-2.2841,-2.2857,-2.3351,-2.3775,-2.3876,-2.4355,-2.4936,-2.5575,-2.572,-2.601,-2.6591,-2.6721,-2.6779,-2.6779,-2.6779,-2.6779,-2.6779,-2.6779,-2.6779,-2.6779,-2.6779,-2.6779,-2.6779,-2.6779,-2.6779,-2.6779,-2.6779,-2.6779,1.369,1.4115,1.4152,1.3639,1.3437,1.3358,1.3358,0.0,0.0,0.0,0.0,0.0,0.0,1.3522,1.3626,0.0,0.0,1.0982,1.0125,1.0038,0.9951,0.9864,0.8627,0.7742,0.7474,0.4643,0.2596,0.1965,0.0264,-0.1396,-0.295,-0.3663,-0.4829,-0.6572,-0.7426,-0.8604,-1.0127,-1.177,-1.2854,-1.3535,-1.4394,-1.5196,-1.5938,-1.6473,-1.695,-1.7413,0.0,-1.942,-2.0128,-2.1049,-2.1702,-2.2063,-2.2555,-2.2705,-2.2667,-2.2712,-2.2716,-2.2662,-2.2635,-2.2775,-2.2871,-2.2335,-2.2491,-2.2732,-2.2173,-2.2183,-2.2325,-2.2325,-2.2255,-2.2184,-2.2184,-2.2184,-2.2184,-2.2184,-2.2184,-2.2184,-2.2184,-2.2184,-2.2231,-2.2231,-2.2324,-2.2417,-2.2477,-2.2644,-2.2795,-2.2795,-2.2944,-2.3235,-2.3818,-2.3978,-2.4283,-2.4921,-2.5458,-2.5821,-2.5923,-2.646,-2.6779,-2.6779,-2.6779,-2.6779,-2.6779,-2.6779,-2.6779,-2.6779,-2.6779,-2.6779,-2.6779,-2.6779,-2.6779,-2.6779,-2.6779,-2.6779,1.3209,1.3893,1.426,1.407,1.3913,1.3913,1.3995,0.0,0.0,0.0,0.0,0.0,0.0,0.0,1.3027,1.2083,0.0,1.0982,1.0125,1.0038,1.0038,1.0038,0.8715,0.7834,0.7834,0.5267,0.3296,0.2376,0.096,-0.0688,-0.2345,-0.2982,-0.3987,-0.5556,-0.6489,-0.7423,-0.8454,-1.0002,-1.1398,-1.2641,-1.3775,-1.4453,-1.4703,-1.5569,-1.6105,-1.6296,0.0,-1.8032,-1.8607,-1.9486,-2.0052,-2.0514,-2.1164,-2.1375,-2.1399,-2.1914,-2.1919,-2.1678,-2.1619,-2.1677,-2.168,-2.1262,-2.1419,-2.1776,-2.1794,-2.1902,-2.1996,-2.2184,-2.2184,-2.2184,-2.2184,-2.2184,-2.2184,-2.2184,-2.2184,-2.2184,-2.2184,-2.2184,-2.2184,-2.2184,-2.2231,-2.2324,-2.237,-2.2477,-2.2644,-2.2764,-2.2841,-2.2973,-2.3293,-2.3383,-2.3615,-2.4254,-2.4588,-2.5038,-2.572,-2.6068,-2.6402,-2.6765,-2.6779,-2.6779,-2.6779,-2.6779,-2.6779,-2.6779,-2.6779,-2.6779,-2.6779,-2.6779,-2.6779,-2.6779,-2.6779,-2.6779,1.2674,1.3704,1.4482,1.4741,1.465,1.4482,1.465,0.0,0.0,0.0,0.0,0.0,0.0,1.3451,0.0,1.1746,1.1408,1.0982,1.0125,1.0038,1.0038,1.0038,0.889,0.7994,0.7781,0.5761,0.4051,0.2844,0.1543,0.0084,-0.1543,-0.2178,-0.3102,-0.4346,-0.5337,-0.618,-0.6919,-0.8225,-0.9818,-1.1616,-1.3009,-1.3711,-1.3733,-1.4846,-1.531,-1.5375,-1.6173,-1.6733,-1.7234,-1.8025,-1.8533,-1.8928,-1.9889,-2.0226,-2.0268,-2.0921,-2.0982,-2.0699,-2.0602,-2.057,-2.0494,-2.0258,-2.0472,-2.0934,-2.141,-2.1698,-2.1841,-2.2137,-2.2184,-2.2184,-2.2184,-2.2184,-2.2184,-2.2184,-2.2184,-2.2184,-2.2184,-2.2184,-2.2184,-2.2184,-2.2184,-2.2231,-2.2324,-2.2417,-2.2523,-2.2735,-2.2795,-2.2826,-2.2888,-2.2888,-2.3091,-2.3615,-2.3804,-2.4341,-2.5473,-2.5705,-2.601,-2.6518,-2.6692,-2.6779,-2.6779,-2.6779,-2.6779,-2.6779,-2.6779,-2.6779,-2.6779,-2.6779,-2.6779,-2.6779,-2.6779,-2.6779,1.2674,1.3704,1.4482,1.4999,1.4908,0.0,1.4734,1.4734,0.0,1.465,0.0,0.0,0.0,1.4482,1.3711,1.276,1.1832,1.0982,1.0125,1.0038,1.0038,1.0038,0.9331,0.8566,0.7807,0.615,0.4725,0.3619,0.1897,0.0652,0.0162,-0.1352,-0.2333,-0.2655,-0.4157,-0.5288,-0.6079,-0.6801,-0.8357,-1.0597,-1.1969,-1.2998,-1.3733,-1.4412,-1.4749,-1.4806,-1.5366,-1.579,-1.6208,-1.7482,-1.7924,-1.7852,-1.9239,-1.9668,-1.9535,-1.9556,-1.9543,-1.9531,-1.9494,-1.9534,-1.9522,-1.9485,-1.9926,-2.0523,-2.0795,-2.1299,-2.1841,-2.2137,-2.2184,-2.2184,-2.2184,-2.2184,-2.2184,-2.2184,-2.2184,-2.2184,-2.2184,-2.2184,-2.2184,-2.2184,-2.2184,-2.2184,-2.2231,-2.2417,-2.2615,-2.2615,-2.2752,-2.2888,-2.2888,-2.2888,-2.2917,-2.296,-2.3543,-2.4167,-2.48,-2.5444,-2.5807,-2.585,-2.6445,-2.6779,-2.6779,-2.6779,-2.6779,-2.6779,-2.6779,-2.6779,-2.6779,-2.6779,-2.6779,-2.6779,-2.6779,-2.6779,1.2163,1.3444,1.4741,1.5173,0.0,0.0,0.0,0.0,1.5173,1.5173,1.5257,0.0,0.0,0.0,1.2936,1.2003,1.1063,1.0381,1.0038,1.0038,0.9904,0.9776,0.9154,0.8394,0.7628,0.6518,0.529,0.3862,0.3013,0.2013,0.0715,-0.0155,-0.1068,-0.2193,-0.3419,-0.4362,-0.509,-0.6209,-0.7395,-0.861,-1.0153,-1.1411,-1.2345,-1.3052,-1.3564,-1.3956,-1.4188,-1.4488,-1.4919,-1.5749,-1.6406,-1.7063,-1.8249,-1.8463,-1.8124,-1.8792,-1.8839,-1.8625,-1.8946,-1.9011,-1.9011,-1.9011,-1.9368,-1.9823,-2.0105,-2.066,-2.114,-2.1077,-2.1382,-2.1793,-2.2137,-2.2184,-2.2137,-2.1793,-2.1949,-2.2137,-2.1746,-2.1949,-2.2184,-2.2184,-2.1949,-2.1712,-2.1712,-2.1841,-2.1996,-2.2091,-2.2523,-2.2872,-2.2888,-2.2888,-2.2888,-2.2888,-2.3514,-2.3978,-2.4225,-2.4834,-2.5357,-2.5763,-2.6416,-2.6779,-2.6779,-2.6779,-2.6779,-2.6779,-2.6779,-2.6779,-2.6779,-2.6779,-2.6779,-2.6779,-2.6779,-2.6779,1.1729,1.3099,1.4475,0.0,0.0,0.0,0.0,0.0,1.5431,1.5431,1.5431,0.0,1.4223,0.0,0.0,0.0,1.0747,1.0191,0.9943,1.0047,1.0035,0.9559,0.9122,0.8542,0.7702,0.7026,0.5984,0.4654,0.4006,0.3013,0.1395,0.0838,-0.015,-0.1551,-0.2537,-0.3331,-0.3998,-0.5225,-0.6254,-0.7125,-0.8433,-0.9857,-1.1212,-1.1888,-1.2573,-1.3199,-1.3199,-1.3502,-1.4061,-1.4619,-1.5603,-1.6765,-1.7112,-1.7224,-1.7313,-1.7995,-1.8061,-1.7909,-1.841,-1.8583,-1.8583,-1.8583,-1.8839,-1.9263,-1.9604,-2.0093,-2.0547,-2.0484,-2.0795,-2.1215,-2.1589,-2.1684,-2.1589,-2.1215,-2.1458,-2.1589,-2.1215,-2.1554,-2.1902,-2.1732,-2.1554,-2.1375,-2.1166,-2.1264,-2.1361,-2.1458,-2.1902,-2.2338,-2.2555,-2.2615,-2.2706,-2.2888,-2.3325,-2.3586,-2.3586,-2.4167,-2.4718,-2.5154,-2.5807,-2.6358,-2.6765,-2.6779,-2.6779,-2.6779,-2.6779,-2.6779,-2.6779,-2.6779,-2.6779,-2.6779,-2.6779,-2.6779,1.1381,1.2674,1.3704,0.0,0.0,0.0,1.5431,1.5431,1.5431,1.5431,0.0,1.5173,1.4307,1.336,0.0,1.1488,1.1032,1.0554,0.9723,1.0105,1.0201,0.9399,0.9318,0.8995,0.8166,0.7581,0.6874,0.5948,0.4608,0.3324,0.2264,0.1357,0.0443,-0.0561,-0.1469,-0.2206,-0.288,-0.3816,-0.5014,-0.64,-0.706,-0.8484,-1.0485,-1.1149,-1.1888,-1.2504,-1.2504,-1.2879,-1.3563,-1.4501,-1.5823,-1.7034,-1.5864,-1.614,-1.7202,-1.7202,-1.7202,-1.7313,-1.7909,-1.8084,-1.8084,-1.8084,-1.8422,-1.8839,-1.9279,-1.9683,-2.0093,-2.0459,-2.061,-2.061,-2.061,-2.056,-2.061,-2.061,-2.061,-2.061,-2.061,-2.1019,-2.1215,-2.0709,-2.1019,-2.1215,-2.066,-2.0709,-2.0795,-2.0795,-2.0894,-2.1237,-2.1902,-2.1983,-2.2231,-2.2843,-2.2888,-2.2888,-2.2888,-2.3514,-2.3876,-2.3891,-2.4471,-2.5415,-2.6721,-2.6779,-2.6779,-2.6779,-2.6779,-2.6779,-2.6779,-2.6779,-2.6779,-2.6779,-2.6779,-2.6779,1.0317,1.1878,0.0,1.4824,0.0,0.0,0.0,1.5906,0.0,0.0,1.5824,1.5274,1.4789,1.3905,0.0,1.2644,1.1903,1.1369,1.1131,1.1226,1.1032,1.0068,0.9968,0.9409,0.8039,0.7708,0.7249,0.6486,0.5635,0.4742,0.3668,0.2453,0.135,0.042,-0.096,-0.1757,-0.2011,-0.3284,-0.4483,-0.547,-0.6137,-0.7632,-0.9818,-1.0465,-1.1156,-1.1826,-1.1826,-1.2197,-1.2879,-1.4314,-1.504,-1.5352,-1.5864,-1.5968,-1.5968,-1.6415,-1.6866,-1.7202,-1.7379,-1.7733,-1.8084,-1.8084,-1.8193,-1.8302,-1.8452,-1.9016,-1.9527,-1.9279,-1.9592,-1.9952,-1.9552,-1.95,-1.9552,-1.9952,-2.0308,-2.051,-2.0105,-2.0459,-2.0809,-2.061,-2.0409,-2.0207,-2.0055,-2.0144,-2.0245,-2.0245,-2.0696,-2.1091,-2.1286,-2.1636,-2.1949,-2.2231,-2.2583,-2.2872,-2.2902,-2.3062,-2.3412,-2.3862,-2.4065,-2.4747,-2.6025,-2.6083,-2.63,-2.6779,-2.6779,-2.6779,-2.6779,-2.6779,-2.6779,-2.6779,-2.6779,-2.6779,0.9187,1.0489,0.0,1.3444,1.4052,1.4434,1.5139,0.0,0.0,0.0,1.5442,1.4903,1.4292,1.3762,0.0,1.2644,1.2286,1.1975,1.166,1.1811,1.1605,1.0676,1.0275,0.9684,0.8708,0.8018,0.748,0.7005,0.6338,0.5428,0.4285,0.3379,0.2294,0.0965,-0.0068,-0.0939,-0.1475,-0.2414,-0.3482,-0.4613,-0.5342,-0.6584,-0.8205,-0.925,-1.0078,-1.0752,-1.126,-1.1764,-1.232,-1.3588,-1.4273,-1.4469,-1.5284,-1.5526,-1.5468,-1.5806,-1.6187,-1.6528,-1.6754,-1.7213,-1.7733,-1.7733,-1.7909,-1.8084,-1.8193,-1.8602,-1.9016,-1.8774,-1.9093,-1.9396,-1.9093,-1.8987,-1.9093,-1.9396,-1.9747,-1.9901,-1.9552,-1.9901,-2.0207,-2.0003,-1.9901,-1.9747,-1.95,-1.954,-1.9592,-1.9592,-2.0194,-2.0597,-2.0597,-2.114,-2.1589,-2.1902,-2.2245,-2.2583,-2.2826,-2.2902,-2.3062,-2.3484,-2.3514,-2.3978,-2.4994,-2.527,-2.572,-2.6373,-2.6387,-2.6518,-2.6779,-2.6779,-2.6779,-2.6779,-2.6779,-2.6779,0.78,0.0,0.0,1.137,1.2386,0.0,1.465,1.4885,1.478,1.4889,0.0,1.4216,1.3376,1.3205,1.2883,1.1994,1.2318,1.2457,1.1686,1.2084,1.2077,1.1335,1.0588,1.0067,0.9992,0.8589,0.7651,0.7638,0.6805,0.5708,0.4455,0.424,0.3301,0.1344,0.1008,0.0201,-0.1072,-0.1408,-0.2213,-0.3556,-0.448,-0.5272,-0.5943,-0.7642,-0.8801,-0.9488,-1.0822,-1.1516,-1.1764,-1.2573,-1.3416,-1.4118,-1.4309,-1.4784,-1.5294,-1.5294,-1.5352,-1.5468,-1.6026,-1.6585,-1.7146,-1.7146,-1.7556,-1.803,-1.8247,-1.841,-1.8614,-1.8744,-1.8893,-1.8999,-1.8987,-1.8987,-1.8987,-1.8987,-1.8987,-1.8987,-1.8987,-1.9396,-1.9604,-1.9093,-1.9396,-1.9552,-1.9093,-1.8987,-1.8987,-1.8987,-1.954,-1.9888,-1.9888,-2.0497,-2.1091,-2.1589,-2.1793,-2.2091,-2.2644,-2.2766,-2.2797,-2.2843,-2.2888,-2.3163,-2.3789,-2.4365,-2.5052,-2.5691,-2.5705,-2.5995,-2.6605,-2.6605,-2.6634,-2.6692,-2.6692,-2.6721,0.5869,0.7453,0.0,0.0,1.1769,1.2952,1.322,1.3514,1.4014,1.5118,1.49,1.4384,1.3892,1.3849,1.3686,1.3212,1.3188,1.3219,1.3065,1.3162,1.2973,1.215,1.1855,1.1558,1.0887,0.9843,0.9119,0.8943,0.7608,0.6458,0.5614,0.459,0.3639,0.275,0.1612,0.0873,0.0604,-0.0604,-0.141,-0.1877,-0.3213,-0.4082,-0.4547,-0.6654,-0.8032,-0.8807,-1.0148,-1.0843,-1.1087,-1.1888,-1.2696,-1.3502,-1.3631,-1.413,-1.4675,-1.4675,-1.502,-1.541,-1.5526,-1.5968,-1.6472,-1.6472,-1.6922,-1.7379,-1.7435,-1.7897,-1.8464,-1.8625,-1.8732,-1.8839,-1.8999,-1.8987,-1.8987,-1.8987,-1.8987,-1.8987,-1.8987,-1.9093,-1.9146,-1.904,-1.9093,-1.9146,-1.904,-1.8987,-1.8987,-1.8987,-1.9146,-1.9198,-1.9198,-1.9695,-2.0144,-2.0346,-2.0795,-2.1299,-2.1949,-2.2044,-2.2231,-2.2661,-2.2781,-2.2898,-2.3028,-2.3728,-2.4384,-2.4974,-2.5038,-2.511,-2.5206,-2.5206,-2.5517,-2.5995,-2.5995,-2.6286,0.4101,0.0,0.0,0.8628,0.0,1.126,1.1834,1.2177,1.2722,1.3863,1.3989,1.3795,1.3628,1.3673,1.3697,1.3521,1.3492,1.3492,1.3492,1.3492,1.3346,1.29,1.2526,1.215,1.1706,1.0599,0.9896,0.9765,0.8471,0.7437,0.6806,0.5609,0.4483,0.3616,0.2614,0.1813,0.1076,0.0336,-0.0403,-0.1208,-0.2078,-0.3034,-0.4165,-0.6036,-0.7512,-0.8554,-0.9262,-0.9773,-1.0225,-1.1087,-1.1703,-1.2266,-1.307,-1.364,-1.407,-1.4387,-1.4684,-1.4961,-1.4961,-1.5352,-1.5864,-1.5864,-1.6255,-1.681,-1.709,-1.7556,-1.8018,-1.8452,-1.8679,-1.8851,-1.8999,-1.8987,-1.8987,-1.8987,-1.8987,-1.8987,-1.8987,-1.8987,-1.8987,-1.8987,-1.8987,-1.8987,-1.8987,-1.8987,-1.8987,-1.8987,-1.8987,-1.8987,-1.8987,-1.9251,-1.9552,-1.994,-2.0295,-2.0894,-2.1841,-2.1949,-2.2231,-2.2706,-2.2812,-2.2872,-2.2872,-2.3221,-2.3731,-2.437,-2.4384,-2.453,-2.4785,-2.4785,-2.5009,-2.5328,-2.5328,-2.5531,0.2504,0.0,0.4844,0.7072,0.8298,0.0,1.0383,1.0956,1.1403,1.215,1.2746,1.3127,1.3127,1.3273,1.3419,1.3419,1.3419,1.3492,1.3492,1.3492,1.3492,1.3492,1.29,1.2505,1.2451,1.123,1.0485,1.0442,0.9257,0.8291,0.7707,0.6671,0.5484,0.4217,0.3616,0.2748,0.1478,0.121,0.047,-0.0739,-0.1146,-0.2326,-0.4211,-0.5474,-0.68,-0.8153,-0.8376,-0.8818,-0.9414,-1.0281,-1.0773,-1.108,-1.2458,-1.3078,-1.3381,-1.407,-1.4327,-1.4327,-1.4455,-1.4852,-1.5245,-1.5245,-1.5633,-1.6255,-1.6754,-1.709,-1.749,-1.805,-1.8398,-1.8625,-1.8774,-1.8827,-1.8881,-1.8999,-1.8987,-1.8987,-1.8987,-1.8987,-1.8987,-1.8987,-1.8987,-1.8987,-1.8987,-1.8987,-1.8987,-1.8987,-1.8987,-1.8987,-1.8987,-1.8987,-1.9186,-1.9798,-1.994,-2.0434,-2.1541,-2.1732,-2.2077,-2.2661,-2.2752,-2.2797,-2.2857,-2.2888,-2.3149,-2.3717,-2.3731,-2.3978,-2.4467,-2.4467,-2.451,-2.4612,-2.4612,-2.4747,0.0,0.0,0.4586,0.0,0.7307,0.8098,0.0,0.0,1.0346,0.0,1.215,1.2973,1.2973,1.2973,1.3046,1.32,1.3273,1.3273,1.3499,1.3492,1.3492,1.3492,1.3419,1.3237,1.2955,1.1957,1.1228,1.091,0.9415,0.8291,0.7707,0.6999,0.6079,0.502,0.4284,0.3549,0.2948,0.1678,0.1008,0.0807,-0.0619,-0.2252,-0.4042,-0.4388,-0.5377,-0.6895,-0.8048,-0.8554,-0.8689,-0.96,-1.0288,-1.0899,-1.1351,-1.1911,-1.2573,-1.3321,-1.3631,-1.37,-1.4327,-1.4565,-1.4625,-1.4625,-1.502,-1.5526,-1.5642,-1.6368,-1.7146,-1.6877,-1.7268,-1.7886,-1.8007,-1.8104,-1.8375,-1.8881,-1.8987,-1.8987,-1.8987,-1.8987,-1.8987,-1.8987,-1.8987,-1.8987,-1.8987,-1.8987,-1.8987,-1.8987,-1.8987,-1.8987,-1.8987,-1.8987,-1.904,-1.9146,-1.9133,-1.9436,-2.0194,-2.0283,-2.0795,-2.1888,-2.2044,-2.2338,-2.2795,-2.2857,-2.2931,-2.3018,-2.3018,-2.3062,-2.3149,-2.3149,-2.3438,-2.4022,-2.4022,-2.4312,0.0626,0.2467,0.3791,0.0,0.5749,0.6644,0.7735,0.8304,0.9059,1.0732,1.1484,1.2077,1.2599,1.2826,1.29,1.3046,1.3046,1.3119,1.3273,1.3346,1.3346,1.3492,1.3331,1.317,1.3023,1.2262,1.1713,1.1572,1.038,0.9326,0.8742,0.7772,0.6863,0.6013,0.5084,0.4284,0.3682,0.2748,0.1895,0.1102,-0.0141,-0.1377,-0.2669,-0.2852,-0.4321,-0.6822,-0.7362,-0.8074,-0.8883,-0.9231,-0.9814,-1.0529,-1.1111,-1.1509,-1.1849,-1.2642,-1.3199,-1.3571,-1.3821,-1.4198,-1.4515,-1.4515,-1.4684,-1.4961,-1.5303,-1.5748,-1.6312,-1.6989,-1.7157,-1.7324,-1.7886,-1.805,-1.8159,-1.8429,-1.8762,-1.8987,-1.8987,-1.8987,-1.8987,-1.8987,-1.8987,-1.8987,-1.8987,-1.8987,-1.8987,-1.8987,-1.8987,-1.8987,-1.8987,-1.8987,-1.9052,-1.9105,-1.9408,-1.9695,-2.0093,-2.0396,-2.0795,-2.1348,-2.1698,-2.1996,-2.2245,-2.2629,-2.2826,-2.2826,-2.2857,-2.2888,-2.2888,-2.2888,-2.3033,-2.3354,-2.3354,-2.3453,0.0,0.0,0.2562,0.3427,0.4162,0.5102,0.0,0.0,0.7766,0.0,1.0657,1.1105,1.2077,1.2526,1.2753,1.2826,1.2826,1.2973,1.3339,1.3484,1.363,1.3985,1.3547,1.3244,1.317,1.2432,1.1999,1.1919,1.1058,1.0295,0.9779,0.8549,0.7642,0.6999,0.5881,0.4954,0.4281,0.3372,0.2345,0.1143,0.0219,-0.0671,-0.16,-0.1796,-0.3401,-0.6044,-0.6403,-0.7291,-0.8564,-0.8915,-0.9444,-1.0031,-1.0896,-1.1177,-1.1164,-1.2032,-1.2661,-1.3017,-1.3381,-1.3821,-1.4258,-1.4446,-1.4515,-1.4565,-1.501,-1.5303,-1.5633,-1.6595,-1.6708,-1.6708,-1.7368,-1.7589,-1.7699,-1.8038,-1.8429,-1.8815,-1.8987,-1.8987,-1.8987,-1.8987,-1.8987,-1.8987,-1.8987,-1.8987,-1.8987,-1.8987,-1.8987,-1.8987,-1.8987,-1.8987,-1.9052,-1.9117,-1.95,-1.9786,-1.994,-2.0446,-2.0845,-2.0993,-2.1492,-2.1841,-2.1996,-2.2491,-2.2749,-2.2749,-2.2812,-2.2843,-2.2888,-2.2888,-2.2888,-2.2888,-2.2888,-2.2888,0.0,-0.0939,0.0,0.2446,0.2948,0.0,0.0,0.0,0.678,0.847,0.9448,1.0196,1.1031,1.1781,1.2378,1.2599,1.2599,1.2966,1.3912,1.4129,1.4553,1.5321,1.4571,1.3958,1.3656,1.2629,1.1911,1.1611,1.0933,1.0485,1.0421,0.9198,0.8226,0.7642,0.6474,0.5624,0.502,0.3096,0.1861,0.1279,0.0377,-0.0535,-0.1642,-0.1798,-0.2495,-0.3647,-0.5097,-0.6144,-0.7086,-0.8493,-0.912,-0.9249,-1.0441,-1.0757,-1.0567,-1.1616,-1.1873,-1.1794,-1.3078,-1.3511,-1.364,-1.4258,-1.4515,-1.4515,-1.4515,-1.4961,-1.5303,-1.4793,-1.5303,-1.5989,-1.5979,-1.6197,-1.6698,-1.782,-1.8147,-1.8309,-1.8881,-1.8987,-1.8987,-1.8987,-1.8987,-1.8987,-1.8987,-1.8987,-1.8987,-1.8987,-1.8987,-1.8987,-1.8987,-1.8987,-1.8987,-1.8999,-1.904,-1.9105,-1.9223,-1.9759,-2.0346,-2.0944,-2.1492,-2.2044,-2.2555,-2.2615,-2.2615,-2.2615,-2.2615,-2.2706,-2.2888,-2.2888,-2.2888,-2.2888,-2.2888,-2.2888,0.0,0.0,0.0,0.0162,0.1034,0.219,0.4368,0.5151,0.6083,0.8241,0.8922,0.9528,1.0887,1.1781,1.2298,1.2378,1.2813,1.3324,1.3833,1.4482,1.4893,1.5066,1.4714,1.428,1.393,1.3304,1.2725,1.2228,1.1903,1.1406,1.0548,0.9646,0.8877,0.8231,0.7064,0.6,0.5225,0.381,0.265,0.1918,0.12,0.0377,-0.0599,-0.0898,-0.157,-0.2386,-0.3218,-0.4648,-0.6521,-0.7654,-0.868,-0.9631,-1.0136,-1.0615,-1.0979,-1.1261,-1.1574,-1.1831,-1.2111,-1.2773,-1.3571,-1.3761,-1.4139,-1.4515,-1.4515,-1.4625,-1.4902,-1.5118,-1.5245,-1.543,-1.5941,-1.6151,-1.6585,-1.7809,-1.8093,-1.8267,-1.8881,-1.8987,-1.8987,-1.8987,-1.8987,-1.8987,-1.8987,-1.8987,-1.8987,-1.8987,-1.8987,-1.8987,-1.8987,-1.8987,-1.8987,-1.8987,-1.9291,-1.9396,-1.9105,-1.9552,-1.9952,-2.0194,-2.0759,-2.1251,-2.1793,-2.2231,-2.2463,-2.2463,-2.2555,-2.2661,-2.2706,-2.2706,-2.2706,-2.2706,-2.2706,-2.2706,-0.5419,0.0,0.0,0.0,0.0,0.0391,0.2885,0.3744,0.4681,0.7,0.7931,0.8613,0.9669,1.1025,1.2003,1.2224,1.2952,1.3608,1.4042,1.4727,1.5333,1.5486,1.5007,1.4589,1.4407,1.3847,1.3321,1.2879,1.2634,1.2143,1.1226,1.0345,0.9361,0.8336,0.7158,0.6135,0.5445,0.423,0.3297,0.2728,0.1723,0.097,0.0219,-0.0364,-0.0947,-0.1528,-0.211,-0.3624,-0.5777,-0.6611,-0.7807,-0.8995,-0.9713,-1.0325,-1.0854,-1.1075,-1.1341,-1.1674,-1.166,-1.2196,-1.2895,-1.3329,-1.3821,-1.4198,-1.4446,-1.4515,-1.4625,-1.5118,-1.5069,-1.502,-1.5468,-1.5921,-1.6425,-1.7313,-1.782,-1.8213,-1.8602,-1.8881,-1.8987,-1.8987,-1.8987,-1.8987,-1.8987,-1.8987,-1.8987,-1.8987,-1.8987,-1.8987,-1.8987,-1.8987,-1.8987,-1.8987,-1.9291,-1.9396,-1.904,-1.95,-1.9901,-2.0055,-2.056,-2.1104,-2.1664,-2.2091,-2.2324,-2.2324,-2.2417,-2.2463,-2.2463,-2.2555,-2.2615,-2.2615,-2.2615,-2.2615,0.0,0.0,0.0,0.0,0.0,0.0,0.1402,0.0,0.2652,0.453,0.623,0.7383,0.746,0.9362,1.1254,1.2077,1.2952,1.3745,1.445,1.4988,1.5721,1.6599,1.5615,1.4932,1.5038,1.4144,1.3571,1.3511,1.2887,1.2512,1.2512,1.1233,0.9709,0.8078,0.6809,0.6008,0.5796,0.4375,0.3624,0.3547,0.2035,0.1116,0.08,-0.0145,-0.0727,-0.0945,-0.1962,-0.3188,-0.4701,-0.5558,-0.6497,-0.7438,-0.9055,-0.9892,-1.017,-1.1067,-1.1236,-1.112,-1.1761,-1.1752,-1.1732,-1.3017,-1.3442,-1.3631,-1.4258,-1.4455,-1.4515,-1.4515,-1.4616,-1.4715,-1.4715,-1.541,-1.6104,-1.6255,-1.7202,-1.8038,-1.8093,-1.8536,-1.8987,-1.8987,-1.8987,-1.8987,-1.8987,-1.8987,-1.8987,-1.8987,-1.8987,-1.8987,-1.8987,-1.8987,-1.8987,-1.8987,-1.8987,-1.8987,-1.8987,-1.95,-2.0003,-2.056,-2.1068,-2.1602,-2.2137,-2.2184,-2.2184,-2.2184,-2.2184,-2.2184,-2.2184,-2.2463,-2.2615,-2.2615,-2.2615,-2.2555,-0.7856,0.0,0.0,0.0,0.0,0.0,-0.07,0.0,0.1558,0.3272,0.3971,0.4894,0.667,0.7512,0.8505,1.0115,1.2124,1.3519,1.3424,1.414,1.4782,1.495,1.4809,1.4621,1.4463,1.4602,1.4359,0.0,1.3321,1.3009,1.2512,1.0907,0.9369,0.7904,0.7354,0.6895,0.6399,0.5576,0.4633,0.3601,0.2524,0.1622,0.0756,-0.0138,-0.062,-0.0827,-0.1307,-0.1991,-0.2957,-0.442,-0.5636,-0.6702,-0.7778,-0.8985,-1.0146,-1.0301,-1.0657,-1.1028,-1.1006,-1.1185,-1.1545,-1.1919,-1.2712,-1.3511,-1.37,-1.413,-1.4515,-1.4515,-1.4616,-1.4775,-1.5029,-1.5264,-1.5604,-1.614,-1.6585,-1.6922,-1.7368,-1.7929,-1.8483,-1.8934,-1.8987,-1.8987,-1.8987,-1.8987,-1.8987,-1.8987,-1.8987,-1.8987,-1.8987,-1.8987,-1.8987,-1.8987,-1.8987,-1.8987,-1.8987,-1.9146,-1.9448,-2.0003,-2.0156,-2.0497,-2.1006,-2.141,-2.1616,-2.1616,-2.1996,-2.2184,-2.2184,-2.2278,-2.2324,-2.2324,-2.2324,-2.2091,0.0,0.0,0.0,-0.6471,0.0,0.0,-0.2414,-0.148,-0.0467,0.0,0.1792,0.2488,0.3953,0.5032,0.6086,0.7234,0.9453,1.1408,1.2346,1.3066,1.3547,1.3912,1.41,1.4101,1.3752,1.4597,1.4784,1.3863,1.3623,1.3014,1.1903,1.0529,0.94,0.8519,0.7838,0.7253,0.6727,0.6129,0.5211,0.407,0.3186,0.2206,0.1208,0.0336,-0.0337,-0.0809,-0.1009,-0.1344,-0.1749,-0.3051,-0.4415,-0.5734,-0.6846,-0.8,-0.9165,-0.977,-1.0255,-1.0567,-1.073,-1.091,-1.1178,-1.1428,-1.2035,-1.2773,-1.3329,-1.3761,-1.413,-1.4446,-1.4556,-1.4666,-1.4911,-1.4961,-1.5137,-1.57,-1.6036,-1.6312,-1.6754,-1.7313,-1.7929,-1.8483,-1.8815,-1.8987,-1.8987,-1.8987,-1.8987,-1.8987,-1.8987,-1.8987,-1.8987,-1.8987,-1.8987,-1.8987,-1.8987,-1.8987,-1.8987,-1.8987,-1.9251,-1.9747,-1.9798,-2.0055,-2.056,-2.0921,-2.1166,-2.1423,-2.1712,-2.1996,-2.2184,-2.2184,-2.2184,-2.2184,-2.2184,-2.2044,0.0,0.0,0.0,-0.741,-0.6942,0.0,-0.4133,-0.3587,-0.3044,0.0,-0.0467,0.0155,0.0388,0.2233,0.3878,0.4091,0.5911,0.8173,1.0935,1.1532,1.2034,1.2973,1.326,1.3191,1.2887,1.4112,1.4715,1.4154,1.3778,1.2773,1.1028,1.0232,0.9731,0.9405,0.8268,0.7384,0.6912,0.6225,0.5485,0.4632,0.3804,0.2884,0.2012,0.094,0.0067,-0.0674,-0.1009,-0.1076,-0.1143,-0.1812,-0.3017,-0.4622,-0.6071,-0.703,-0.773,-0.927,-0.9874,-1.0007,-1.0745,-1.0775,-1.0688,-1.124,-1.1421,-1.1732,-1.2895,-1.3381,-1.3631,-1.4318,-1.4506,-1.4565,-1.4715,-1.4715,-1.4834,-1.5156,-1.5604,-1.6046,-1.6197,-1.6698,-1.7257,-1.7809,-1.8429,-1.8934,-1.8987,-1.8987,-1.8987,-1.8987,-1.8987,-1.8987,-1.8987,-1.8987,-1.8987,-1.8987,-1.8987,-1.8987,-1.8987,-1.8987,-1.9186,-1.9695,-1.9695,-1.9952,-2.0409,-2.0459,-2.0759,-2.1215,-2.1264,-2.1568,-2.2137,-2.2184,-2.2184,-2.2184,-2.2184,-2.2184,-1.0735,-1.0363,-1.0173,-0.9479,-0.8908,0.0,-0.7138,-0.6447,-0.5604,0.0,-0.3379,-0.2645,-0.083,0.0,0.1022,0.2838,0.3428,0.4772,0.7966,0.894,0.9814,1.0946,1.1115,1.1337,1.1981,1.2895,1.3433,1.3425,1.3723,1.3028,1.1093,1.066,1.017,0.955,0.8851,0.7899,0.6738,0.6507,0.5769,0.4504,0.3628,0.3098,0.2746,0.1208,0.0336,0.0067,-0.074,-0.1076,-0.1143,-0.1812,-0.2614,-0.3616,-0.4746,-0.5958,-0.7179,-0.8359,-0.9139,-0.9725,-1.0443,-1.0672,-1.0624,-1.0744,-1.1115,-1.1545,-1.1794,-1.265,-1.3692,-1.4419,-1.4656,-1.4715,-1.4902,-1.5029,-1.5088,-1.5156,-1.5371,-1.5526,-1.5584,-1.6026,-1.6528,-1.6641,-1.7534,-1.8429,-1.8934,-1.8987,-1.8987,-1.8987,-1.8987,-1.8987,-1.8987,-1.8987,-1.8987,-1.8987,-1.8987,-1.8987,-1.8987,-1.8987,-1.904,-1.9146,-1.9146,-1.9186,-1.9291,-1.9747,-2.0003,-2.0105,-2.056,-2.1019,-2.1568,-2.1996,-2.2184,-2.2184,-2.2184,-2.1996,-1.1717,-1.1335,-1.105,-1.0166,-0.9664,0.0,0.0,-0.8138,-0.7596,-0.644,-0.6013,-0.5384,-0.3959,-0.3149,-0.2224,-0.0709,0.028,0.1654,0.3787,0.5948,0.7673,0.872,0.973,1.0445,1.0661,1.202,1.2899,1.3016,1.3328,1.2863,1.1458,1.1269,1.0767,0.9802,0.9476,0.86,0.7138,0.668,0.5941,0.4885,0.4147,0.3553,0.3082,0.1945,0.1074,0.0336,-0.0403,-0.0874,-0.1143,-0.1478,-0.2213,-0.3282,-0.4348,-0.5477,-0.6539,-0.7582,-0.8425,-0.9134,-0.9779,-1.0295,-1.0624,-1.0624,-1.0807,-1.1115,-1.1421,-1.2466,-1.3631,-1.4369,-1.4666,-1.4715,-1.4843,-1.497,-1.5098,-1.5156,-1.5264,-1.5313,-1.541,-1.5633,-1.5911,-1.6255,-1.681,-1.7479,-1.8375,-1.8536,-1.8655,-1.8934,-1.8987,-1.8987,-1.8987,-1.8987,-1.8987,-1.8987,-1.8987,-1.8987,-1.8987,-1.8987,-1.8987,-1.8987,-1.8987,-1.9093,-1.9396,-1.9396,-1.9643,-2.0207,-2.1006,-2.1554,-2.1793,-2.1793,-2.1949,-2.2184,-2.2184,-2.2044,-1.2544,-1.2227,-1.1933,-1.0697,-1.0421,-1.019,0.0,0.0,0.0,-0.8449,-0.8056,-0.7693,-0.7009,-0.6065,-0.5157,-0.4255,0.0,0.0,0.0,0.2594,0.0,0.6828,0.8436,0.9412,0.932,1.1254,1.2547,1.258,1.297,1.2825,1.2043,1.1982,1.1398,1.0357,1.0018,0.914,0.7677,0.6989,0.618,0.5261,0.4681,0.4095,0.3418,0.2683,0.1812,0.0806,0.0067,-0.0538,-0.0941,-0.1076,-0.1879,-0.3082,-0.4148,-0.5084,-0.602,-0.7064,-0.7907,-0.8619,-0.9262,-0.9977,-1.0624,-1.0624,-1.0624,-1.0681,-1.1303,-1.2343,-1.345,-1.4139,-1.4547,-1.4715,-1.4715,-1.4843,-1.5039,-1.5156,-1.5215,-1.5264,-1.5362,-1.541,-1.5517,-1.6026,-1.614,-1.6528,-1.7863,-1.8093,-1.8309,-1.8934,-1.8987,-1.8987,-1.8987,-1.8987,-1.8987,-1.8987,-1.8987,-1.8987,-1.8987,-1.8987,-1.8987,-1.8987,-1.8987,-1.9198,-1.9656,-1.9344,-1.9604,-2.056,-2.1444,-2.1935,-2.2044,-2.1616,-2.1616,-2.2044,-2.2044,-2.2044,-1.3287,-1.3048,-1.2903,-1.2452,-1.215,-1.1848,-1.1254,0.0,-1.0587,-0.9547,0.0,-0.8749,-0.7986,0.0,0.0,-0.5167,-0.461,-0.3904,-0.2689,-0.1081,0.1524,0.5716,0.6445,0.7102,0.8484,1.0471,1.1689,1.1898,1.3163,1.36,1.2931,1.2473,1.2191,1.2003,1.0437,0.9259,0.8382,0.7424,0.6351,0.5113,0.503,0.4691,0.4164,0.2954,0.2348,0.208,0.0403,-0.0336,-0.0403,-0.0874,-0.1545,-0.2347,-0.3284,-0.4553,-0.602,-0.6924,-0.7767,-0.8619,-0.9262,-0.9977,-1.0624,-1.0624,-1.0624,-1.0681,-1.1303,-1.2027,-1.2757,-1.3563,-1.4231,-1.4715,-1.4715,-1.4961,-1.5156,-1.5039,-1.5196,-1.5362,-1.541,-1.541,-1.541,-1.5468,-1.5526,-1.6083,-1.7809,-1.8093,-1.8309,-1.8934,-1.8987,-1.8987,-1.8987,-1.8987,-1.8987,-1.8987,-1.8987,-1.8987,-1.8987,-1.8987,-1.8987,-1.8987,-1.8987,-1.904,-1.9093,-1.95,-2.0003,-2.061,-2.0709,-2.1006,-2.1471,-2.1423,-2.1423,-2.1471,-2.1471,-2.1471,-1.3373,-1.3213,-1.3066,-1.2682,-1.2526,-1.2452,-1.2305,-1.2077,-1.1777,-1.1194,0.0,0.0,0.0,0.0,0.0,0.0,-0.6741,-0.6024,-0.4757,0.0,-0.1752,0.2392,0.398,0.0,0.7792,0.9461,1.0492,1.0767,1.1984,1.2494,1.1959,1.1717,1.1409,1.0887,1.0047,0.915,0.8282,0.7112,0.6184,0.5554,0.496,0.4498,0.43,0.3291,0.2686,0.2348,0.0806,0.0,-0.0336,-0.0874,-0.1478,-0.2147,-0.2549,-0.3749,-0.5348,-0.6268,-0.719,-0.8042,-0.8678,-0.939,-1.0034,-1.0428,-1.0624,-1.0681,-1.1303,-1.1725,-1.2151,-1.326,-1.3872,-1.4231,-1.4588,-1.4902,-1.5098,-1.5088,-1.5205,-1.5313,-1.5362,-1.541,-1.541,-1.541,-1.541,-1.5853,-1.7313,-1.7589,-1.7754,-1.8375,-1.8762,-1.8987,-1.8987,-1.8987,-1.8987,-1.8987,-1.8987,-1.8987,-1.8987,-1.8987,-1.8987,-1.8987,-1.9291,-1.9291,-1.8987,-1.9798,-2.0359,-2.061,-2.0921,-2.1313,-2.1841,-2.1568,-2.1423,-2.1423,-2.1698,-2.1841,-1.3373,-1.3213,-1.3066,-1.2682,-1.2526,-1.2599,-1.2746,-1.2893,-1.2774,-1.2389,-1.2192,0.0,0.0,0.0,-0.9856,-0.9215,0.0,-0.7971,-0.6881,-0.6145,-0.4296,-0.0613,0.1831,0.0,0.0,0.819,0.9166,0.973,1.0827,1.1411,1.1099,1.1111,1.0777,1.0193,0.9728,0.9132,0.8344,0.7168,0.6336,0.5888,0.5096,0.4567,0.43,0.3563,0.2956,0.2551,0.1141,0.0269,-0.0134,-0.0807,-0.1411,-0.1879,-0.2147,-0.3149,-0.4613,-0.5481,-0.647,-0.7517,-0.8231,-0.9069,-0.9907,-1.0428,-1.0624,-1.0681,-1.1115,-1.1365,-1.1732,-1.2895,-1.3442,-1.3812,-1.4478,-1.4784,-1.497,-1.5029,-1.5088,-1.5147,-1.5245,-1.5303,-1.5362,-1.5362,-1.5362,-1.5748,-1.6754,-1.709,-1.7424,-1.8038,-1.8602,-1.8934,-1.8762,-1.8881,-1.8987,-1.8987,-1.8987,-1.8987,-1.8987,-1.8987,-1.8987,-1.8987,-1.9344,-1.9552,-1.9448,-2.0055,-2.051,-2.0809,-2.1068,-2.1458,-2.1996,-2.1458,-2.1313,-2.1616,-2.1841,-2.1996,0.0,0.0,-1.3066,-1.2682,-1.2452,-1.2378,-1.2526,-1.3171,-1.3494,-1.2794,-1.3235,-1.3534,-1.2849,-1.1981,-1.1255,-1.0817,-1.0284,0.0,0.0,-0.8056,-0.5958,-0.2293,0.0501,0.3013,0.0,0.6771,0.7897,0.8772,1.0098,1.0932,1.1111,1.1111,1.0991,1.0791,0.9831,0.9173,0.8991,0.7966,0.6942,0.5888,0.5892,0.5296,0.43,0.3563,0.3159,0.3092,0.1276,0.047,0.0403,-0.0672,-0.1143,-0.121,-0.2284,-0.3084,-0.3811,-0.4547,-0.5866,-0.7312,-0.8226,-0.9396,-1.0561,-1.0561,-1.0624,-1.0624,-1.0624,-1.1059,-1.167,-1.2328,-1.3009,-1.3631,-1.4318,-1.4616,-1.4715,-1.4715,-1.4843,-1.5039,-1.5029,-1.5088,-1.5215,-1.5215,-1.5313,-1.5584,-1.6197,-1.681,-1.7424,-1.8038,-1.8602,-1.8762,-1.8201,-1.8655,-1.8987,-1.8987,-1.8987,-1.8987,-1.8987,-1.8987,-1.8987,-1.8987,-1.8999,-1.95,-2.051,-2.0105,-2.0308,-2.1361,-2.0858,-2.0871,-2.1423,-2.0871,-2.1153,-2.2184,-2.1664,-2.1423,0.0,0.0,-1.3066,-1.2682,0.0,0.0,-1.3688,-1.4258,-1.456,-1.3921,-1.3892,-1.3794,-1.3079,-1.2835,-1.2703,-1.267,-1.2109,-1.156,0.0,-0.9902,-0.7995,-0.5052,-0.2012,0.0741,0.3038,0.453,0.5888,0.7203,0.8468,0.9205,0.9301,0.9458,0.9425,0.9202,0.876,0.8399,0.818,0.7366,0.6609,0.5888,0.5554,0.5027,0.43,0.3563,0.3226,0.3092,0.1276,0.047,0.0403,-0.0672,-0.1076,-0.1143,-0.1747,-0.2618,-0.3685,-0.4821,-0.5815,-0.6868,-0.8102,-0.9134,-0.9977,-1.0428,-1.0624,-1.0624,-1.0624,-1.0744,-1.1115,-1.2205,-1.2634,-1.307,-1.4198,-1.4506,-1.4616,-1.4656,-1.4775,-1.4843,-1.497,-1.5039,-1.5088,-1.5156,-1.5264,-1.5488,-1.6197,-1.6472,-1.6922,-1.7929,-1.8602,-1.8934,-1.8709,-1.8869,-1.8987,-1.8987,-1.8987,-1.8987,-1.8987,-1.8987,-1.8987,-1.8987,-1.8987,-1.9146,-1.9552,-1.9695,-2.0156,-2.0871,-2.1068,-2.141,-2.1949,-2.1746,-2.1841,-2.2184,-2.1996,-2.1949,-1.3373,-1.3213,0.0,-1.2608,-1.2886,0.0,-1.3897,-1.4522,-1.4825,-1.428,-1.4447,-1.4392,-1.3281,-1.3505,-1.3769,-1.3702,-1.3447,-1.2974,0.0,-1.112,-0.9422,-0.7046,-0.4206,-0.1595,0.0608,0.2618,0.4119,0.4982,0.6444,0.7532,0.7936,0.8089,0.8196,0.8297,0.8151,0.7943,0.7669,0.7197,0.6609,0.5888,0.5554,0.5027,0.43,0.3694,0.336,0.3092,0.1411,0.0605,0.0403,-0.0672,-0.1076,-0.1143,-0.148,-0.2283,-0.3418,-0.4556,-0.5752,-0.6937,-0.8102,-0.8941,-0.9652,-1.0364,-1.0624,-1.0624,-1.0624,-1.0624,-1.0807,-1.1841,-1.2328,-1.2757,-1.3881,-1.4378,-1.4556,-1.4606,-1.4656,-1.4715,-1.4793,-1.4921,-1.5039,-1.5088,-1.5205,-1.5478,-1.6197,-1.6312,-1.6641,-1.7644,-1.8309,-1.8655,-1.8655,-1.8881,-1.8987,-1.8987,-1.8987,-1.8987,-1.8987,-1.8987,-1.8987,-1.8987,-1.8987,-1.9093,-1.9303,-1.9448,-1.9747,-2.0308,-2.066,-2.1104,-2.1636,-2.1636,-2.1841,-2.2184,-2.1996,-2.2044]}]]